<?xml version="1.0" encoding="UTF-8" standalone="no" ?>
<gpx xmlns="http://www.topografix.com/GPX/1/1" xmlns:xsi="http://www.w3.org/2001/XMLSchema-instance" xsi:schemaLocation="http://www.topografix.com/GPX/1/1 http://www.topografix.com/GPX/1/1/gpx.xsd" version="1.1" creator="VisuGPX - https://www.visugpx.com">
  <metadata>
    <name>CAMINO FRANCES &quot;PEDROUZO 6 SANTIAGO DE COMPOSTELLA&quot;</name>
    <desc><![CDATA[Dernière étape de notre pélérinage par el CAMINO PRIMITIVO, très mémorable par l'émotion qu'elle nous procure au moment ou l'on découvre la cathédrale de Santiago dans les derniers hectomètres du chemin.]]></desc>
  </metadata>
  <trk>
    <name><![CDATA[2016-07-20-01]]></name>
    <trkseg>
      <trkpt lat="42.90611" lon="-8.36572">
        <ele>277.3</ele>
        <time>2016-07-20T04:43:37Z</time>
      </trkpt>
      <trkpt lat="42.90611" lon="-8.36574">
        <ele>275</ele>
        <time>2016-07-20T04:43:34Z</time>
      </trkpt>
      <trkpt lat="42.90611" lon="-8.36574">
        <ele>275</ele>
        <time>2016-07-20T04:43:34Z</time>
      </trkpt>
      <trkpt lat="42.90621" lon="-8.36572">
        <ele>284.2</ele>
        <time>2016-07-20T04:43:47Z</time>
      </trkpt>
      <trkpt lat="42.90627" lon="-8.36563">
        <ele>289.9</ele>
        <time>2016-07-20T04:44:04Z</time>
      </trkpt>
      <trkpt lat="42.90629" lon="-8.3655">
        <ele>291.4</ele>
        <time>2016-07-20T04:44:13Z</time>
      </trkpt>
      <trkpt lat="42.90632" lon="-8.36537">
        <ele>292.2</ele>
        <time>2016-07-20T04:44:22Z</time>
      </trkpt>
      <trkpt lat="42.90634" lon="-8.36523">
        <ele>292.6</ele>
        <time>2016-07-20T04:44:31Z</time>
      </trkpt>
      <trkpt lat="42.90637" lon="-8.3651">
        <ele>293</ele>
        <time>2016-07-20T04:44:40Z</time>
      </trkpt>
      <trkpt lat="42.90639" lon="-8.36497">
        <ele>293.7</ele>
        <time>2016-07-20T04:44:49Z</time>
      </trkpt>
      <trkpt lat="42.90642" lon="-8.36485">
        <ele>293.6</ele>
        <time>2016-07-20T04:44:58Z</time>
      </trkpt>
      <trkpt lat="42.90643" lon="-8.36473">
        <ele>294.1</ele>
        <time>2016-07-20T04:45:07Z</time>
      </trkpt>
      <trkpt lat="42.90643" lon="-8.3646">
        <ele>294.4</ele>
        <time>2016-07-20T04:45:17Z</time>
      </trkpt>
      <trkpt lat="42.90643" lon="-8.36447">
        <ele>294.9</ele>
        <time>2016-07-20T04:45:28Z</time>
      </trkpt>
      <trkpt lat="42.90644" lon="-8.36435">
        <ele>295.2</ele>
        <time>2016-07-20T04:45:36Z</time>
      </trkpt>
      <trkpt lat="42.90646" lon="-8.36422">
        <ele>295.5</ele>
        <time>2016-07-20T04:45:44Z</time>
      </trkpt>
      <trkpt lat="42.90646" lon="-8.3641">
        <ele>296.6</ele>
        <time>2016-07-20T04:45:55Z</time>
      </trkpt>
      <trkpt lat="42.90648" lon="-8.36397">
        <ele>297.4</ele>
        <time>2016-07-20T04:46:05Z</time>
      </trkpt>
      <trkpt lat="42.9065" lon="-8.36385">
        <ele>298.9</ele>
        <time>2016-07-20T04:46:15Z</time>
      </trkpt>
      <trkpt lat="42.90659" lon="-8.36381">
        <ele>300.6</ele>
        <time>2016-07-20T04:46:30Z</time>
      </trkpt>
      <trkpt lat="42.90668" lon="-8.36385">
        <ele>301.3</ele>
        <time>2016-07-20T04:46:43Z</time>
      </trkpt>
      <trkpt lat="42.90677" lon="-8.36388">
        <ele>301.5</ele>
        <time>2016-07-20T04:46:52Z</time>
      </trkpt>
      <trkpt lat="42.90686" lon="-8.36391">
        <ele>301.5</ele>
        <time>2016-07-20T04:47:01Z</time>
      </trkpt>
      <trkpt lat="42.90695" lon="-8.36393">
        <ele>301.3</ele>
        <time>2016-07-20T04:47:10Z</time>
      </trkpt>
      <trkpt lat="42.90704" lon="-8.36398">
        <ele>301.1</ele>
        <time>2016-07-20T04:47:19Z</time>
      </trkpt>
      <trkpt lat="42.90713" lon="-8.36403">
        <ele>300.7</ele>
        <time>2016-07-20T04:47:27Z</time>
      </trkpt>
      <trkpt lat="42.9072" lon="-8.36412">
        <ele>300.6</ele>
        <time>2016-07-20T04:47:34Z</time>
      </trkpt>
      <trkpt lat="42.90726" lon="-8.3642">
        <ele>300.1</ele>
        <time>2016-07-20T04:47:43Z</time>
      </trkpt>
      <trkpt lat="42.90734" lon="-8.36429">
        <ele>299.8</ele>
        <time>2016-07-20T04:47:54Z</time>
      </trkpt>
      <trkpt lat="42.90741" lon="-8.36438">
        <ele>299.7</ele>
        <time>2016-07-20T04:48:01Z</time>
      </trkpt>
      <trkpt lat="42.90748" lon="-8.36446">
        <ele>299.3</ele>
        <time>2016-07-20T04:48:11Z</time>
      </trkpt>
      <trkpt lat="42.90755" lon="-8.36455">
        <ele>299.2</ele>
        <time>2016-07-20T04:48:18Z</time>
      </trkpt>
      <trkpt lat="42.90762" lon="-8.36465">
        <ele>299.4</ele>
        <time>2016-07-20T04:48:26Z</time>
      </trkpt>
      <trkpt lat="42.90769" lon="-8.36475">
        <ele>299.6</ele>
        <time>2016-07-20T04:48:35Z</time>
      </trkpt>
      <trkpt lat="42.90775" lon="-8.36485">
        <ele>299.4</ele>
        <time>2016-07-20T04:48:44Z</time>
      </trkpt>
      <trkpt lat="42.90781" lon="-8.36495">
        <ele>299</ele>
        <time>2016-07-20T04:48:57Z</time>
      </trkpt>
      <trkpt lat="42.90788" lon="-8.36505">
        <ele>298.7</ele>
        <time>2016-07-20T04:49:06Z</time>
      </trkpt>
      <trkpt lat="42.90795" lon="-8.36514">
        <ele>298.8</ele>
        <time>2016-07-20T04:49:13Z</time>
      </trkpt>
      <trkpt lat="42.90802" lon="-8.36521">
        <ele>299.3</ele>
        <time>2016-07-20T04:49:21Z</time>
      </trkpt>
      <trkpt lat="42.9081" lon="-8.3653">
        <ele>299.7</ele>
        <time>2016-07-20T04:49:30Z</time>
      </trkpt>
      <trkpt lat="42.90817" lon="-8.36538">
        <ele>300</ele>
        <time>2016-07-20T04:49:44Z</time>
      </trkpt>
      <trkpt lat="42.90824" lon="-8.36547">
        <ele>300.2</ele>
        <time>2016-07-20T04:49:51Z</time>
      </trkpt>
      <trkpt lat="42.90828" lon="-8.36559">
        <ele>300.5</ele>
        <time>2016-07-20T04:49:58Z</time>
      </trkpt>
      <trkpt lat="42.90827" lon="-8.36572">
        <ele>300.7</ele>
        <time>2016-07-20T04:50:06Z</time>
      </trkpt>
      <trkpt lat="42.90823" lon="-8.36584">
        <ele>300.8</ele>
        <time>2016-07-20T04:50:18Z</time>
      </trkpt>
      <trkpt lat="42.9082" lon="-8.36597">
        <ele>300.6</ele>
        <time>2016-07-20T04:50:28Z</time>
      </trkpt>
      <trkpt lat="42.90813" lon="-8.36608">
        <ele>300.6</ele>
        <time>2016-07-20T04:50:37Z</time>
      </trkpt>
      <trkpt lat="42.90809" lon="-8.3662">
        <ele>300.5</ele>
        <time>2016-07-20T04:50:45Z</time>
      </trkpt>
      <trkpt lat="42.90805" lon="-8.36632">
        <ele>300.5</ele>
        <time>2016-07-20T04:50:52Z</time>
      </trkpt>
      <trkpt lat="42.90802" lon="-8.36644">
        <ele>300.3</ele>
        <time>2016-07-20T04:51:00Z</time>
      </trkpt>
      <trkpt lat="42.90797" lon="-8.36656">
        <ele>300.3</ele>
        <time>2016-07-20T04:51:08Z</time>
      </trkpt>
      <trkpt lat="42.90794" lon="-8.36668">
        <ele>300.4</ele>
        <time>2016-07-20T04:51:17Z</time>
      </trkpt>
      <trkpt lat="42.90789" lon="-8.3668">
        <ele>300.1</ele>
        <time>2016-07-20T04:51:28Z</time>
      </trkpt>
      <trkpt lat="42.90785" lon="-8.36691">
        <ele>300</ele>
        <time>2016-07-20T04:51:36Z</time>
      </trkpt>
      <trkpt lat="42.90784" lon="-8.36704">
        <ele>299.9</ele>
        <time>2016-07-20T04:51:45Z</time>
      </trkpt>
      <trkpt lat="42.9078" lon="-8.36716">
        <ele>299.8</ele>
        <time>2016-07-20T04:51:54Z</time>
      </trkpt>
      <trkpt lat="42.90775" lon="-8.36727">
        <ele>299.3</ele>
        <time>2016-07-20T04:52:01Z</time>
      </trkpt>
      <trkpt lat="42.90771" lon="-8.3674">
        <ele>298.9</ele>
        <time>2016-07-20T04:52:10Z</time>
      </trkpt>
      <trkpt lat="42.90766" lon="-8.3675">
        <ele>298.8</ele>
        <time>2016-07-20T04:52:18Z</time>
      </trkpt>
      <trkpt lat="42.90763" lon="-8.36762">
        <ele>298.6</ele>
        <time>2016-07-20T04:52:25Z</time>
      </trkpt>
      <trkpt lat="42.90759" lon="-8.36773">
        <ele>298.5</ele>
        <time>2016-07-20T04:52:33Z</time>
      </trkpt>
      <trkpt lat="42.90754" lon="-8.36784">
        <ele>298.3</ele>
        <time>2016-07-20T04:52:42Z</time>
      </trkpt>
      <trkpt lat="42.90747" lon="-8.36794">
        <ele>297.8</ele>
        <time>2016-07-20T04:52:52Z</time>
      </trkpt>
      <trkpt lat="42.90742" lon="-8.36805">
        <ele>297.4</ele>
        <time>2016-07-20T04:53:01Z</time>
      </trkpt>
      <trkpt lat="42.90738" lon="-8.36817">
        <ele>297</ele>
        <time>2016-07-20T04:53:09Z</time>
      </trkpt>
      <trkpt lat="42.90735" lon="-8.36828">
        <ele>296.6</ele>
        <time>2016-07-20T04:53:18Z</time>
      </trkpt>
      <trkpt lat="42.90729" lon="-8.36839">
        <ele>296.5</ele>
        <time>2016-07-20T04:53:25Z</time>
      </trkpt>
      <trkpt lat="42.90725" lon="-8.36851">
        <ele>296.2</ele>
        <time>2016-07-20T04:53:33Z</time>
      </trkpt>
      <trkpt lat="42.90722" lon="-8.36863">
        <ele>296.3</ele>
        <time>2016-07-20T04:53:41Z</time>
      </trkpt>
      <trkpt lat="42.9072" lon="-8.36876">
        <ele>296.3</ele>
        <time>2016-07-20T04:53:49Z</time>
      </trkpt>
      <trkpt lat="42.90718" lon="-8.36889">
        <ele>295.9</ele>
        <time>2016-07-20T04:53:59Z</time>
      </trkpt>
      <trkpt lat="42.90714" lon="-8.369">
        <ele>295.8</ele>
        <time>2016-07-20T04:54:08Z</time>
      </trkpt>
      <trkpt lat="42.90708" lon="-8.36911">
        <ele>295.7</ele>
        <time>2016-07-20T04:54:16Z</time>
      </trkpt>
      <trkpt lat="42.90703" lon="-8.36923">
        <ele>295.7</ele>
        <time>2016-07-20T04:54:25Z</time>
      </trkpt>
      <trkpt lat="42.90696" lon="-8.36934">
        <ele>295.4</ele>
        <time>2016-07-20T04:54:32Z</time>
      </trkpt>
      <trkpt lat="42.90692" lon="-8.36947">
        <ele>295.9</ele>
        <time>2016-07-20T04:54:41Z</time>
      </trkpt>
      <trkpt lat="42.90688" lon="-8.36958">
        <ele>295.2</ele>
        <time>2016-07-20T04:54:50Z</time>
      </trkpt>
      <trkpt lat="42.90684" lon="-8.36971">
        <ele>294.1</ele>
        <time>2016-07-20T04:54:58Z</time>
      </trkpt>
      <trkpt lat="42.90678" lon="-8.36982">
        <ele>293</ele>
        <time>2016-07-20T04:55:07Z</time>
      </trkpt>
      <trkpt lat="42.90673" lon="-8.36994">
        <ele>292.2</ele>
        <time>2016-07-20T04:55:14Z</time>
      </trkpt>
      <trkpt lat="42.90669" lon="-8.37005">
        <ele>292.4</ele>
        <time>2016-07-20T04:55:20Z</time>
      </trkpt>
      <trkpt lat="42.90663" lon="-8.37015">
        <ele>291.6</ele>
        <time>2016-07-20T04:55:30Z</time>
      </trkpt>
      <trkpt lat="42.90656" lon="-8.37025">
        <ele>290.4</ele>
        <time>2016-07-20T04:55:39Z</time>
      </trkpt>
      <trkpt lat="42.90648" lon="-8.37032">
        <ele>289.1</ele>
        <time>2016-07-20T04:55:53Z</time>
      </trkpt>
      <trkpt lat="42.90639" lon="-8.37036">
        <ele>288.9</ele>
        <time>2016-07-20T04:56:01Z</time>
      </trkpt>
      <trkpt lat="42.9063" lon="-8.37043">
        <ele>288.4</ele>
        <time>2016-07-20T04:56:08Z</time>
      </trkpt>
      <trkpt lat="42.90626" lon="-8.37055">
        <ele>288</ele>
        <time>2016-07-20T04:56:15Z</time>
      </trkpt>
      <trkpt lat="42.9063" lon="-8.37066">
        <ele>287.4</ele>
        <time>2016-07-20T04:56:23Z</time>
      </trkpt>
      <trkpt lat="42.90636" lon="-8.37077">
        <ele>286.9</ele>
        <time>2016-07-20T04:56:31Z</time>
      </trkpt>
      <trkpt lat="42.90642" lon="-8.37087">
        <ele>286.5</ele>
        <time>2016-07-20T04:56:38Z</time>
      </trkpt>
      <trkpt lat="42.90642" lon="-8.37101">
        <ele>285.5</ele>
        <time>2016-07-20T04:56:47Z</time>
      </trkpt>
      <trkpt lat="42.90636" lon="-8.37111">
        <ele>284.5</ele>
        <time>2016-07-20T04:56:55Z</time>
      </trkpt>
      <trkpt lat="42.90629" lon="-8.3712">
        <ele>283.7</ele>
        <time>2016-07-20T04:57:03Z</time>
      </trkpt>
      <trkpt lat="42.90622" lon="-8.37128">
        <ele>282.8</ele>
        <time>2016-07-20T04:57:11Z</time>
      </trkpt>
      <trkpt lat="42.90615" lon="-8.37138">
        <ele>282.1</ele>
        <time>2016-07-20T04:57:20Z</time>
      </trkpt>
      <trkpt lat="42.90609" lon="-8.37147">
        <ele>281.1</ele>
        <time>2016-07-20T04:57:28Z</time>
      </trkpt>
      <trkpt lat="42.90602" lon="-8.37155">
        <ele>280.3</ele>
        <time>2016-07-20T04:57:36Z</time>
      </trkpt>
      <trkpt lat="42.90596" lon="-8.37166">
        <ele>279.5</ele>
        <time>2016-07-20T04:57:47Z</time>
      </trkpt>
      <trkpt lat="42.90588" lon="-8.37173">
        <ele>279.2</ele>
        <time>2016-07-20T04:57:57Z</time>
      </trkpt>
      <trkpt lat="42.90581" lon="-8.37182">
        <ele>278.9</ele>
        <time>2016-07-20T04:58:10Z</time>
      </trkpt>
      <trkpt lat="42.90582" lon="-8.37195">
        <ele>278.8</ele>
        <time>2016-07-20T04:58:20Z</time>
      </trkpt>
      <trkpt lat="42.90588" lon="-8.37205">
        <ele>278.8</ele>
        <time>2016-07-20T04:58:30Z</time>
      </trkpt>
      <trkpt lat="42.90594" lon="-8.37215">
        <ele>279.1</ele>
        <time>2016-07-20T04:58:39Z</time>
      </trkpt>
      <trkpt lat="42.90601" lon="-8.37224">
        <ele>278.9</ele>
        <time>2016-07-20T04:58:49Z</time>
      </trkpt>
      <trkpt lat="42.90605" lon="-8.37236">
        <ele>279</ele>
        <time>2016-07-20T04:58:58Z</time>
      </trkpt>
      <trkpt lat="42.90608" lon="-8.37249">
        <ele>279</ele>
        <time>2016-07-20T04:59:06Z</time>
      </trkpt>
      <trkpt lat="42.90607" lon="-8.37262">
        <ele>279.6</ele>
        <time>2016-07-20T04:59:16Z</time>
      </trkpt>
      <trkpt lat="42.90604" lon="-8.37274">
        <ele>279.9</ele>
        <time>2016-07-20T04:59:26Z</time>
      </trkpt>
      <trkpt lat="42.90602" lon="-8.37288">
        <ele>280</ele>
        <time>2016-07-20T04:59:35Z</time>
      </trkpt>
      <trkpt lat="42.90602" lon="-8.37302">
        <ele>279.9</ele>
        <time>2016-07-20T04:59:43Z</time>
      </trkpt>
      <trkpt lat="42.90599" lon="-8.37314">
        <ele>280.1</ele>
        <time>2016-07-20T04:59:52Z</time>
      </trkpt>
      <trkpt lat="42.90595" lon="-8.37326">
        <ele>280.2</ele>
        <time>2016-07-20T05:00:02Z</time>
      </trkpt>
      <trkpt lat="42.90591" lon="-8.37338">
        <ele>280.5</ele>
        <time>2016-07-20T05:00:10Z</time>
      </trkpt>
      <trkpt lat="42.90587" lon="-8.3735">
        <ele>281.1</ele>
        <time>2016-07-20T05:00:19Z</time>
      </trkpt>
      <trkpt lat="42.90583" lon="-8.37362">
        <ele>281.6</ele>
        <time>2016-07-20T05:00:28Z</time>
      </trkpt>
      <trkpt lat="42.90579" lon="-8.37373">
        <ele>281.9</ele>
        <time>2016-07-20T05:00:37Z</time>
      </trkpt>
      <trkpt lat="42.90576" lon="-8.37384">
        <ele>282.1</ele>
        <time>2016-07-20T05:00:45Z</time>
      </trkpt>
      <trkpt lat="42.9057" lon="-8.37396">
        <ele>282.1</ele>
        <time>2016-07-20T05:00:54Z</time>
      </trkpt>
      <trkpt lat="42.90564" lon="-8.37406">
        <ele>282.3</ele>
        <time>2016-07-20T05:01:02Z</time>
      </trkpt>
      <trkpt lat="42.90559" lon="-8.37418">
        <ele>282.7</ele>
        <time>2016-07-20T05:01:12Z</time>
      </trkpt>
      <trkpt lat="42.90555" lon="-8.37429">
        <ele>283</ele>
        <time>2016-07-20T05:01:21Z</time>
      </trkpt>
      <trkpt lat="42.9055" lon="-8.37441">
        <ele>283.2</ele>
        <time>2016-07-20T05:01:29Z</time>
      </trkpt>
      <trkpt lat="42.90545" lon="-8.37452">
        <ele>283.4</ele>
        <time>2016-07-20T05:01:40Z</time>
      </trkpt>
      <trkpt lat="42.90538" lon="-8.37461">
        <ele>284.2</ele>
        <time>2016-07-20T05:01:50Z</time>
      </trkpt>
      <trkpt lat="42.9053" lon="-8.37468">
        <ele>284.6</ele>
        <time>2016-07-20T05:01:57Z</time>
      </trkpt>
      <trkpt lat="42.90521" lon="-8.37474">
        <ele>285</ele>
        <time>2016-07-20T05:02:09Z</time>
      </trkpt>
      <trkpt lat="42.90513" lon="-8.37479">
        <ele>285.3</ele>
        <time>2016-07-20T05:02:16Z</time>
      </trkpt>
      <trkpt lat="42.90505" lon="-8.37486">
        <ele>285.6</ele>
        <time>2016-07-20T05:02:22Z</time>
      </trkpt>
      <trkpt lat="42.90497" lon="-8.37493">
        <ele>285.7</ele>
        <time>2016-07-20T05:02:30Z</time>
      </trkpt>
      <trkpt lat="42.90491" lon="-8.37503">
        <ele>285.8</ele>
        <time>2016-07-20T05:02:40Z</time>
      </trkpt>
      <trkpt lat="42.90485" lon="-8.37512">
        <ele>286.2</ele>
        <time>2016-07-20T05:02:51Z</time>
      </trkpt>
      <trkpt lat="42.90477" lon="-8.3752">
        <ele>286.3</ele>
        <time>2016-07-20T05:03:01Z</time>
      </trkpt>
      <trkpt lat="42.9047" lon="-8.3753">
        <ele>286.8</ele>
        <time>2016-07-20T05:03:10Z</time>
      </trkpt>
      <trkpt lat="42.90463" lon="-8.37538">
        <ele>287.1</ele>
        <time>2016-07-20T05:03:19Z</time>
      </trkpt>
      <trkpt lat="42.90456" lon="-8.37547">
        <ele>286.9</ele>
        <time>2016-07-20T05:03:27Z</time>
      </trkpt>
      <trkpt lat="42.90449" lon="-8.37556">
        <ele>286.9</ele>
        <time>2016-07-20T05:03:34Z</time>
      </trkpt>
      <trkpt lat="42.90442" lon="-8.37564">
        <ele>287</ele>
        <time>2016-07-20T05:03:40Z</time>
      </trkpt>
      <trkpt lat="42.90435" lon="-8.37573">
        <ele>287</ele>
        <time>2016-07-20T05:03:48Z</time>
      </trkpt>
      <trkpt lat="42.90427" lon="-8.37581">
        <ele>287.5</ele>
        <time>2016-07-20T05:03:57Z</time>
      </trkpt>
      <trkpt lat="42.9042" lon="-8.3759">
        <ele>287.7</ele>
        <time>2016-07-20T05:04:07Z</time>
      </trkpt>
      <trkpt lat="42.90415" lon="-8.376">
        <ele>287.8</ele>
        <time>2016-07-20T05:04:18Z</time>
      </trkpt>
      <trkpt lat="42.90413" lon="-8.37613">
        <ele>287.6</ele>
        <time>2016-07-20T05:04:30Z</time>
      </trkpt>
      <trkpt lat="42.90411" lon="-8.37626">
        <ele>288</ele>
        <time>2016-07-20T05:04:40Z</time>
      </trkpt>
      <trkpt lat="42.90407" lon="-8.37638">
        <ele>288.3</ele>
        <time>2016-07-20T05:04:48Z</time>
      </trkpt>
      <trkpt lat="42.90403" lon="-8.37651">
        <ele>288.7</ele>
        <time>2016-07-20T05:04:55Z</time>
      </trkpt>
      <trkpt lat="42.90398" lon="-8.37662">
        <ele>288.9</ele>
        <time>2016-07-20T05:05:02Z</time>
      </trkpt>
      <trkpt lat="42.90393" lon="-8.37673">
        <ele>289</ele>
        <time>2016-07-20T05:05:10Z</time>
      </trkpt>
      <trkpt lat="42.90389" lon="-8.37685">
        <ele>289.1</ele>
        <time>2016-07-20T05:05:18Z</time>
      </trkpt>
      <trkpt lat="42.90383" lon="-8.37696">
        <ele>289.2</ele>
        <time>2016-07-20T05:05:26Z</time>
      </trkpt>
      <trkpt lat="42.90379" lon="-8.37708">
        <ele>289.3</ele>
        <time>2016-07-20T05:05:35Z</time>
      </trkpt>
      <trkpt lat="42.90377" lon="-8.37721">
        <ele>289.3</ele>
        <time>2016-07-20T05:05:44Z</time>
      </trkpt>
      <trkpt lat="42.90372" lon="-8.37733">
        <ele>289.8</ele>
        <time>2016-07-20T05:05:54Z</time>
      </trkpt>
      <trkpt lat="42.90371" lon="-8.37746">
        <ele>290.2</ele>
        <time>2016-07-20T05:06:03Z</time>
      </trkpt>
      <trkpt lat="42.90369" lon="-8.37758">
        <ele>290.7</ele>
        <time>2016-07-20T05:06:12Z</time>
      </trkpt>
      <trkpt lat="42.90367" lon="-8.37771">
        <ele>291.5</ele>
        <time>2016-07-20T05:06:22Z</time>
      </trkpt>
      <trkpt lat="42.90369" lon="-8.37784">
        <ele>291.8</ele>
        <time>2016-07-20T05:06:30Z</time>
      </trkpt>
      <trkpt lat="42.9037" lon="-8.37796">
        <ele>292</ele>
        <time>2016-07-20T05:06:38Z</time>
      </trkpt>
      <trkpt lat="42.90368" lon="-8.37809">
        <ele>292.2</ele>
        <time>2016-07-20T05:06:48Z</time>
      </trkpt>
      <trkpt lat="42.90365" lon="-8.37821">
        <ele>292.6</ele>
        <time>2016-07-20T05:06:57Z</time>
      </trkpt>
      <trkpt lat="42.90365" lon="-8.37834">
        <ele>293.1</ele>
        <time>2016-07-20T05:07:07Z</time>
      </trkpt>
      <trkpt lat="42.90366" lon="-8.37847">
        <ele>293</ele>
        <time>2016-07-20T05:07:16Z</time>
      </trkpt>
      <trkpt lat="42.90363" lon="-8.3786">
        <ele>293.4</ele>
        <time>2016-07-20T05:07:24Z</time>
      </trkpt>
      <trkpt lat="42.90361" lon="-8.37873">
        <ele>293.8</ele>
        <time>2016-07-20T05:07:32Z</time>
      </trkpt>
      <trkpt lat="42.90361" lon="-8.37886">
        <ele>294.1</ele>
        <time>2016-07-20T05:07:41Z</time>
      </trkpt>
      <trkpt lat="42.90361" lon="-8.37899">
        <ele>294.2</ele>
        <time>2016-07-20T05:07:49Z</time>
      </trkpt>
      <trkpt lat="42.90359" lon="-8.37912">
        <ele>294.1</ele>
        <time>2016-07-20T05:07:58Z</time>
      </trkpt>
      <trkpt lat="42.90358" lon="-8.37925">
        <ele>294.2</ele>
        <time>2016-07-20T05:08:08Z</time>
      </trkpt>
      <trkpt lat="42.90359" lon="-8.37938">
        <ele>294.4</ele>
        <time>2016-07-20T05:08:18Z</time>
      </trkpt>
      <trkpt lat="42.9036" lon="-8.37951">
        <ele>294.5</ele>
        <time>2016-07-20T05:08:26Z</time>
      </trkpt>
      <trkpt lat="42.90361" lon="-8.37964">
        <ele>294.7</ele>
        <time>2016-07-20T05:08:35Z</time>
      </trkpt>
      <trkpt lat="42.90361" lon="-8.37978">
        <ele>295</ele>
        <time>2016-07-20T05:08:46Z</time>
      </trkpt>
      <trkpt lat="42.90363" lon="-8.3799">
        <ele>295.2</ele>
        <time>2016-07-20T05:08:54Z</time>
      </trkpt>
      <trkpt lat="42.90365" lon="-8.38003">
        <ele>295.3</ele>
        <time>2016-07-20T05:09:03Z</time>
      </trkpt>
      <trkpt lat="42.90368" lon="-8.38016">
        <ele>295.9</ele>
        <time>2016-07-20T05:09:11Z</time>
      </trkpt>
      <trkpt lat="42.90372" lon="-8.38027">
        <ele>296.3</ele>
        <time>2016-07-20T05:09:18Z</time>
      </trkpt>
      <trkpt lat="42.90374" lon="-8.3804">
        <ele>296.5</ele>
        <time>2016-07-20T05:09:26Z</time>
      </trkpt>
      <trkpt lat="42.90374" lon="-8.38052">
        <ele>296.8</ele>
        <time>2016-07-20T05:09:37Z</time>
      </trkpt>
      <trkpt lat="42.90374" lon="-8.38065">
        <ele>297</ele>
        <time>2016-07-20T05:09:47Z</time>
      </trkpt>
      <trkpt lat="42.90376" lon="-8.38078">
        <ele>297.1</ele>
        <time>2016-07-20T05:09:57Z</time>
      </trkpt>
      <trkpt lat="42.90374" lon="-8.38091">
        <ele>296.8</ele>
        <time>2016-07-20T05:10:06Z</time>
      </trkpt>
      <trkpt lat="42.90373" lon="-8.38104">
        <ele>296.5</ele>
        <time>2016-07-20T05:10:14Z</time>
      </trkpt>
      <trkpt lat="42.90373" lon="-8.38116">
        <ele>295.9</ele>
        <time>2016-07-20T05:10:22Z</time>
      </trkpt>
      <trkpt lat="42.90372" lon="-8.38129">
        <ele>295.4</ele>
        <time>2016-07-20T05:10:29Z</time>
      </trkpt>
      <trkpt lat="42.90368" lon="-8.38141">
        <ele>295</ele>
        <time>2016-07-20T05:10:37Z</time>
      </trkpt>
      <trkpt lat="42.90361" lon="-8.38149">
        <ele>294.9</ele>
        <time>2016-07-20T05:10:44Z</time>
      </trkpt>
      <trkpt lat="42.90355" lon="-8.3816">
        <ele>294.1</ele>
        <time>2016-07-20T05:10:51Z</time>
      </trkpt>
      <trkpt lat="42.90356" lon="-8.38172">
        <ele>293.4</ele>
        <time>2016-07-20T05:11:02Z</time>
      </trkpt>
      <trkpt lat="42.90359" lon="-8.38184">
        <ele>293.2</ele>
        <time>2016-07-20T05:11:11Z</time>
      </trkpt>
      <trkpt lat="42.90363" lon="-8.38196">
        <ele>293.2</ele>
        <time>2016-07-20T05:11:19Z</time>
      </trkpt>
      <trkpt lat="42.90367" lon="-8.38207">
        <ele>293.3</ele>
        <time>2016-07-20T05:11:26Z</time>
      </trkpt>
      <trkpt lat="42.90371" lon="-8.3822">
        <ele>293.4</ele>
        <time>2016-07-20T05:11:34Z</time>
      </trkpt>
      <trkpt lat="42.90374" lon="-8.38233">
        <ele>293.7</ele>
        <time>2016-07-20T05:11:42Z</time>
      </trkpt>
      <trkpt lat="42.90377" lon="-8.38246">
        <ele>294</ele>
        <time>2016-07-20T05:11:51Z</time>
      </trkpt>
      <trkpt lat="42.90381" lon="-8.38258">
        <ele>294.5</ele>
        <time>2016-07-20T05:12:00Z</time>
      </trkpt>
      <trkpt lat="42.90384" lon="-8.3827">
        <ele>294.7</ele>
        <time>2016-07-20T05:12:09Z</time>
      </trkpt>
      <trkpt lat="42.90388" lon="-8.38282">
        <ele>294.9</ele>
        <time>2016-07-20T05:12:18Z</time>
      </trkpt>
      <trkpt lat="42.90392" lon="-8.38294">
        <ele>295</ele>
        <time>2016-07-20T05:12:27Z</time>
      </trkpt>
      <trkpt lat="42.90395" lon="-8.38305">
        <ele>295</ele>
        <time>2016-07-20T05:12:35Z</time>
      </trkpt>
      <trkpt lat="42.90398" lon="-8.38319">
        <ele>294.6</ele>
        <time>2016-07-20T05:12:45Z</time>
      </trkpt>
      <trkpt lat="42.90399" lon="-8.38331">
        <ele>294.9</ele>
        <time>2016-07-20T05:12:56Z</time>
      </trkpt>
      <trkpt lat="42.90401" lon="-8.38343">
        <ele>295.2</ele>
        <time>2016-07-20T05:13:08Z</time>
      </trkpt>
      <trkpt lat="42.90404" lon="-8.38356">
        <ele>295.4</ele>
        <time>2016-07-20T05:13:17Z</time>
      </trkpt>
      <trkpt lat="42.90408" lon="-8.38368">
        <ele>295.5</ele>
        <time>2016-07-20T05:13:25Z</time>
      </trkpt>
      <trkpt lat="42.90412" lon="-8.3838">
        <ele>295.6</ele>
        <time>2016-07-20T05:13:34Z</time>
      </trkpt>
      <trkpt lat="42.90416" lon="-8.38392">
        <ele>296.1</ele>
        <time>2016-07-20T05:13:42Z</time>
      </trkpt>
      <trkpt lat="42.9042" lon="-8.38403">
        <ele>296.4</ele>
        <time>2016-07-20T05:13:50Z</time>
      </trkpt>
      <trkpt lat="42.90423" lon="-8.38416">
        <ele>296.4</ele>
        <time>2016-07-20T05:13:58Z</time>
      </trkpt>
      <trkpt lat="42.90428" lon="-8.38427">
        <ele>296.6</ele>
        <time>2016-07-20T05:14:07Z</time>
      </trkpt>
      <trkpt lat="42.90431" lon="-8.38439">
        <ele>296.8</ele>
        <time>2016-07-20T05:14:15Z</time>
      </trkpt>
      <trkpt lat="42.90435" lon="-8.38452">
        <ele>297</ele>
        <time>2016-07-20T05:14:23Z</time>
      </trkpt>
      <trkpt lat="42.9044" lon="-8.38464">
        <ele>297.2</ele>
        <time>2016-07-20T05:14:32Z</time>
      </trkpt>
      <trkpt lat="42.90444" lon="-8.38475">
        <ele>297.5</ele>
        <time>2016-07-20T05:14:40Z</time>
      </trkpt>
      <trkpt lat="42.90449" lon="-8.38486">
        <ele>298.2</ele>
        <time>2016-07-20T05:14:48Z</time>
      </trkpt>
      <trkpt lat="42.90454" lon="-8.38497">
        <ele>298.8</ele>
        <time>2016-07-20T05:14:57Z</time>
      </trkpt>
      <trkpt lat="42.90458" lon="-8.38509">
        <ele>299.3</ele>
        <time>2016-07-20T05:15:06Z</time>
      </trkpt>
      <trkpt lat="42.90463" lon="-8.38521">
        <ele>300.1</ele>
        <time>2016-07-20T05:15:16Z</time>
      </trkpt>
      <trkpt lat="42.90467" lon="-8.38531">
        <ele>300.7</ele>
        <time>2016-07-20T05:15:24Z</time>
      </trkpt>
      <trkpt lat="42.90472" lon="-8.38544">
        <ele>300.7</ele>
        <time>2016-07-20T05:15:33Z</time>
      </trkpt>
      <trkpt lat="42.90475" lon="-8.38556">
        <ele>301</ele>
        <time>2016-07-20T05:15:42Z</time>
      </trkpt>
      <trkpt lat="42.90479" lon="-8.38568">
        <ele>301.1</ele>
        <time>2016-07-20T05:15:51Z</time>
      </trkpt>
      <trkpt lat="42.90483" lon="-8.38579">
        <ele>301.1</ele>
        <time>2016-07-20T05:16:01Z</time>
      </trkpt>
      <trkpt lat="42.90486" lon="-8.38591">
        <ele>301.3</ele>
        <time>2016-07-20T05:16:12Z</time>
      </trkpt>
      <trkpt lat="42.90483" lon="-8.38603">
        <ele>301.1</ele>
        <time>2016-07-20T05:16:22Z</time>
      </trkpt>
      <trkpt lat="42.90477" lon="-8.38614">
        <ele>300.6</ele>
        <time>2016-07-20T05:16:31Z</time>
      </trkpt>
      <trkpt lat="42.90471" lon="-8.38624">
        <ele>299.6</ele>
        <time>2016-07-20T05:16:41Z</time>
      </trkpt>
      <trkpt lat="42.90463" lon="-8.38632">
        <ele>299</ele>
        <time>2016-07-20T05:16:49Z</time>
      </trkpt>
      <trkpt lat="42.90455" lon="-8.38638">
        <ele>297.9</ele>
        <time>2016-07-20T05:16:57Z</time>
      </trkpt>
      <trkpt lat="42.90448" lon="-8.38646">
        <ele>296.9</ele>
        <time>2016-07-20T05:17:07Z</time>
      </trkpt>
      <trkpt lat="42.9044" lon="-8.38654">
        <ele>295.7</ele>
        <time>2016-07-20T05:17:16Z</time>
      </trkpt>
      <trkpt lat="42.90431" lon="-8.3866">
        <ele>294.1</ele>
        <time>2016-07-20T05:17:26Z</time>
      </trkpt>
      <trkpt lat="42.90423" lon="-8.38664">
        <ele>293.5</ele>
        <time>2016-07-20T05:17:33Z</time>
      </trkpt>
      <trkpt lat="42.90414" lon="-8.38668">
        <ele>292.9</ele>
        <time>2016-07-20T05:17:40Z</time>
      </trkpt>
      <trkpt lat="42.90405" lon="-8.38671">
        <ele>292.4</ele>
        <time>2016-07-20T05:17:47Z</time>
      </trkpt>
      <trkpt lat="42.90396" lon="-8.38674">
        <ele>291.7</ele>
        <time>2016-07-20T05:17:54Z</time>
      </trkpt>
      <trkpt lat="42.90387" lon="-8.38677">
        <ele>290.9</ele>
        <time>2016-07-20T05:18:01Z</time>
      </trkpt>
      <trkpt lat="42.90378" lon="-8.3868">
        <ele>290.2</ele>
        <time>2016-07-20T05:18:09Z</time>
      </trkpt>
      <trkpt lat="42.90368" lon="-8.38682">
        <ele>288.8</ele>
        <time>2016-07-20T05:18:18Z</time>
      </trkpt>
      <trkpt lat="42.90358" lon="-8.38685">
        <ele>288</ele>
        <time>2016-07-20T05:18:26Z</time>
      </trkpt>
      <trkpt lat="42.90349" lon="-8.38688">
        <ele>286.6</ele>
        <time>2016-07-20T05:18:35Z</time>
      </trkpt>
      <trkpt lat="42.90339" lon="-8.38692">
        <ele>285.8</ele>
        <time>2016-07-20T05:18:44Z</time>
      </trkpt>
      <trkpt lat="42.90331" lon="-8.38699">
        <ele>285.3</ele>
        <time>2016-07-20T05:18:53Z</time>
      </trkpt>
      <trkpt lat="42.90325" lon="-8.3871">
        <ele>284.7</ele>
        <time>2016-07-20T05:19:01Z</time>
      </trkpt>
      <trkpt lat="42.90326" lon="-8.38723">
        <ele>283.9</ele>
        <time>2016-07-20T05:19:09Z</time>
      </trkpt>
      <trkpt lat="42.9033" lon="-8.38735">
        <ele>283.5</ele>
        <time>2016-07-20T05:19:17Z</time>
      </trkpt>
      <trkpt lat="42.90333" lon="-8.38747">
        <ele>283.5</ele>
        <time>2016-07-20T05:19:25Z</time>
      </trkpt>
      <trkpt lat="42.90336" lon="-8.38759">
        <ele>282.7</ele>
        <time>2016-07-20T05:19:33Z</time>
      </trkpt>
      <trkpt lat="42.90339" lon="-8.38771">
        <ele>282.2</ele>
        <time>2016-07-20T05:19:41Z</time>
      </trkpt>
      <trkpt lat="42.90343" lon="-8.38783">
        <ele>282.2</ele>
        <time>2016-07-20T05:19:48Z</time>
      </trkpt>
      <trkpt lat="42.90345" lon="-8.38795">
        <ele>282</ele>
        <time>2016-07-20T05:19:56Z</time>
      </trkpt>
      <trkpt lat="42.90349" lon="-8.38808">
        <ele>281.8</ele>
        <time>2016-07-20T05:20:05Z</time>
      </trkpt>
      <trkpt lat="42.90353" lon="-8.38819">
        <ele>281.6</ele>
        <time>2016-07-20T05:20:18Z</time>
      </trkpt>
      <trkpt lat="42.90356" lon="-8.38832">
        <ele>281.1</ele>
        <time>2016-07-20T05:20:28Z</time>
      </trkpt>
      <trkpt lat="42.90359" lon="-8.38844">
        <ele>280.6</ele>
        <time>2016-07-20T05:20:37Z</time>
      </trkpt>
      <trkpt lat="42.90362" lon="-8.38857">
        <ele>280.2</ele>
        <time>2016-07-20T05:20:47Z</time>
      </trkpt>
      <trkpt lat="42.90365" lon="-8.38869">
        <ele>279.9</ele>
        <time>2016-07-20T05:20:55Z</time>
      </trkpt>
      <trkpt lat="42.9037" lon="-8.38882">
        <ele>279.3</ele>
        <time>2016-07-20T05:21:04Z</time>
      </trkpt>
      <trkpt lat="42.90373" lon="-8.38893">
        <ele>278.7</ele>
        <time>2016-07-20T05:21:12Z</time>
      </trkpt>
      <trkpt lat="42.90378" lon="-8.38904">
        <ele>277.9</ele>
        <time>2016-07-20T05:21:20Z</time>
      </trkpt>
      <trkpt lat="42.90383" lon="-8.38915">
        <ele>277.2</ele>
        <time>2016-07-20T05:21:28Z</time>
      </trkpt>
      <trkpt lat="42.90389" lon="-8.38925">
        <ele>276.2</ele>
        <time>2016-07-20T05:21:36Z</time>
      </trkpt>
      <trkpt lat="42.90397" lon="-8.38934">
        <ele>275.4</ele>
        <time>2016-07-20T05:21:44Z</time>
      </trkpt>
      <trkpt lat="42.90404" lon="-8.38943">
        <ele>274.9</ele>
        <time>2016-07-20T05:21:52Z</time>
      </trkpt>
      <trkpt lat="42.90412" lon="-8.3895">
        <ele>273.9</ele>
        <time>2016-07-20T05:22:00Z</time>
      </trkpt>
      <trkpt lat="42.9042" lon="-8.38958">
        <ele>273.1</ele>
        <time>2016-07-20T05:22:08Z</time>
      </trkpt>
      <trkpt lat="42.90427" lon="-8.38967">
        <ele>272.3</ele>
        <time>2016-07-20T05:22:16Z</time>
      </trkpt>
      <trkpt lat="42.90433" lon="-8.38976">
        <ele>271.7</ele>
        <time>2016-07-20T05:22:24Z</time>
      </trkpt>
      <trkpt lat="42.90437" lon="-8.38988">
        <ele>270.8</ele>
        <time>2016-07-20T05:22:33Z</time>
      </trkpt>
      <trkpt lat="42.90439" lon="-8.39">
        <ele>270.2</ele>
        <time>2016-07-20T05:22:41Z</time>
      </trkpt>
      <trkpt lat="42.90441" lon="-8.39013">
        <ele>269.9</ele>
        <time>2016-07-20T05:22:49Z</time>
      </trkpt>
      <trkpt lat="42.9044" lon="-8.39026">
        <ele>269.3</ele>
        <time>2016-07-20T05:22:58Z</time>
      </trkpt>
      <trkpt lat="42.90439" lon="-8.39039">
        <ele>268.9</ele>
        <time>2016-07-20T05:23:07Z</time>
      </trkpt>
      <trkpt lat="42.90439" lon="-8.39053">
        <ele>268.4</ele>
        <time>2016-07-20T05:23:16Z</time>
      </trkpt>
      <trkpt lat="42.90439" lon="-8.39066">
        <ele>268</ele>
        <time>2016-07-20T05:23:24Z</time>
      </trkpt>
      <trkpt lat="42.90441" lon="-8.39078">
        <ele>267.4</ele>
        <time>2016-07-20T05:23:32Z</time>
      </trkpt>
      <trkpt lat="42.90444" lon="-8.39091">
        <ele>266.1</ele>
        <time>2016-07-20T05:23:41Z</time>
      </trkpt>
      <trkpt lat="42.90452" lon="-8.39099">
        <ele>265</ele>
        <time>2016-07-20T05:23:50Z</time>
      </trkpt>
      <trkpt lat="42.9046" lon="-8.39104">
        <ele>263.8</ele>
        <time>2016-07-20T05:23:57Z</time>
      </trkpt>
      <trkpt lat="42.90469" lon="-8.39108">
        <ele>262.7</ele>
        <time>2016-07-20T05:24:07Z</time>
      </trkpt>
      <trkpt lat="42.90479" lon="-8.39111">
        <ele>262.2</ele>
        <time>2016-07-20T05:24:15Z</time>
      </trkpt>
      <trkpt lat="42.90488" lon="-8.39118">
        <ele>261.3</ele>
        <time>2016-07-20T05:24:24Z</time>
      </trkpt>
      <trkpt lat="42.90495" lon="-8.39125">
        <ele>260.8</ele>
        <time>2016-07-20T05:24:32Z</time>
      </trkpt>
      <trkpt lat="42.90503" lon="-8.39134">
        <ele>260.4</ele>
        <time>2016-07-20T05:24:42Z</time>
      </trkpt>
      <trkpt lat="42.9051" lon="-8.39142">
        <ele>260.2</ele>
        <time>2016-07-20T05:24:51Z</time>
      </trkpt>
      <trkpt lat="42.90518" lon="-8.39149">
        <ele>260.2</ele>
        <time>2016-07-20T05:24:59Z</time>
      </trkpt>
      <trkpt lat="42.90525" lon="-8.39157">
        <ele>260.3</ele>
        <time>2016-07-20T05:25:07Z</time>
      </trkpt>
      <trkpt lat="42.90531" lon="-8.39168">
        <ele>260</ele>
        <time>2016-07-20T05:25:17Z</time>
      </trkpt>
      <trkpt lat="42.90535" lon="-8.3918">
        <ele>260.3</ele>
        <time>2016-07-20T05:25:26Z</time>
      </trkpt>
      <trkpt lat="42.90539" lon="-8.39192">
        <ele>259.8</ele>
        <time>2016-07-20T05:25:35Z</time>
      </trkpt>
      <trkpt lat="42.90543" lon="-8.39204">
        <ele>259.4</ele>
        <time>2016-07-20T05:25:44Z</time>
      </trkpt>
      <trkpt lat="42.90547" lon="-8.39215">
        <ele>259.4</ele>
        <time>2016-07-20T05:25:52Z</time>
      </trkpt>
      <trkpt lat="42.90551" lon="-8.39226">
        <ele>259.2</ele>
        <time>2016-07-20T05:26:00Z</time>
      </trkpt>
      <trkpt lat="42.90556" lon="-8.39237">
        <ele>259.3</ele>
        <time>2016-07-20T05:26:08Z</time>
      </trkpt>
      <trkpt lat="42.9056" lon="-8.39248">
        <ele>259.5</ele>
        <time>2016-07-20T05:26:17Z</time>
      </trkpt>
      <trkpt lat="42.90566" lon="-8.39259">
        <ele>259.4</ele>
        <time>2016-07-20T05:26:26Z</time>
      </trkpt>
      <trkpt lat="42.90569" lon="-8.39271">
        <ele>259.7</ele>
        <time>2016-07-20T05:26:35Z</time>
      </trkpt>
      <trkpt lat="42.90572" lon="-8.39284">
        <ele>259.6</ele>
        <time>2016-07-20T05:26:44Z</time>
      </trkpt>
      <trkpt lat="42.90575" lon="-8.39296">
        <ele>259.5</ele>
        <time>2016-07-20T05:26:52Z</time>
      </trkpt>
      <trkpt lat="42.90579" lon="-8.39308">
        <ele>259.6</ele>
        <time>2016-07-20T05:27:00Z</time>
      </trkpt>
      <trkpt lat="42.90583" lon="-8.39318">
        <ele>259.7</ele>
        <time>2016-07-20T05:27:08Z</time>
      </trkpt>
      <trkpt lat="42.90588" lon="-8.3933">
        <ele>259.7</ele>
        <time>2016-07-20T05:27:16Z</time>
      </trkpt>
      <trkpt lat="42.9059" lon="-8.39343">
        <ele>259.7</ele>
        <time>2016-07-20T05:27:24Z</time>
      </trkpt>
      <trkpt lat="42.90589" lon="-8.39355">
        <ele>259.7</ele>
        <time>2016-07-20T05:27:33Z</time>
      </trkpt>
      <trkpt lat="42.90588" lon="-8.39368">
        <ele>259.4</ele>
        <time>2016-07-20T05:27:42Z</time>
      </trkpt>
      <trkpt lat="42.90582" lon="-8.39378">
        <ele>259.4</ele>
        <time>2016-07-20T05:27:50Z</time>
      </trkpt>
      <trkpt lat="42.90585" lon="-8.3939">
        <ele>259.5</ele>
        <time>2016-07-20T05:27:57Z</time>
      </trkpt>
      <trkpt lat="42.90591" lon="-8.39399">
        <ele>259.5</ele>
        <time>2016-07-20T05:28:06Z</time>
      </trkpt>
      <trkpt lat="42.90593" lon="-8.39412">
        <ele>259.6</ele>
        <time>2016-07-20T05:28:16Z</time>
      </trkpt>
      <trkpt lat="42.90594" lon="-8.39424">
        <ele>260.6</ele>
        <time>2016-07-20T05:28:29Z</time>
      </trkpt>
      <trkpt lat="42.90595" lon="-8.39437">
        <ele>261.4</ele>
        <time>2016-07-20T05:28:40Z</time>
      </trkpt>
      <trkpt lat="42.90592" lon="-8.39449">
        <ele>262</ele>
        <time>2016-07-20T05:28:50Z</time>
      </trkpt>
      <trkpt lat="42.90587" lon="-8.39461">
        <ele>262.5</ele>
        <time>2016-07-20T05:29:00Z</time>
      </trkpt>
      <trkpt lat="42.90584" lon="-8.39473">
        <ele>263.3</ele>
        <time>2016-07-20T05:29:11Z</time>
      </trkpt>
      <trkpt lat="42.90583" lon="-8.39486">
        <ele>263.8</ele>
        <time>2016-07-20T05:29:22Z</time>
      </trkpt>
      <trkpt lat="42.9058" lon="-8.39498">
        <ele>264.1</ele>
        <time>2016-07-20T05:29:31Z</time>
      </trkpt>
      <trkpt lat="42.90578" lon="-8.3951">
        <ele>264.1</ele>
        <time>2016-07-20T05:29:41Z</time>
      </trkpt>
      <trkpt lat="42.90574" lon="-8.39522">
        <ele>264.5</ele>
        <time>2016-07-20T05:29:52Z</time>
      </trkpt>
      <trkpt lat="42.90574" lon="-8.39536">
        <ele>264.9</ele>
        <time>2016-07-20T05:30:02Z</time>
      </trkpt>
      <trkpt lat="42.90575" lon="-8.39549">
        <ele>265.3</ele>
        <time>2016-07-20T05:30:11Z</time>
      </trkpt>
      <trkpt lat="42.90574" lon="-8.39562">
        <ele>265.7</ele>
        <time>2016-07-20T05:30:21Z</time>
      </trkpt>
      <trkpt lat="42.90572" lon="-8.39575">
        <ele>266.2</ele>
        <time>2016-07-20T05:30:32Z</time>
      </trkpt>
      <trkpt lat="42.90571" lon="-8.39589">
        <ele>266.9</ele>
        <time>2016-07-20T05:30:43Z</time>
      </trkpt>
      <trkpt lat="42.90567" lon="-8.39601">
        <ele>267.6</ele>
        <time>2016-07-20T05:30:51Z</time>
      </trkpt>
      <trkpt lat="42.90566" lon="-8.39614">
        <ele>268.4</ele>
        <time>2016-07-20T05:30:58Z</time>
      </trkpt>
      <trkpt lat="42.90566" lon="-8.39626">
        <ele>268.9</ele>
        <time>2016-07-20T05:31:06Z</time>
      </trkpt>
      <trkpt lat="42.90565" lon="-8.39639">
        <ele>269.4</ele>
        <time>2016-07-20T05:31:15Z</time>
      </trkpt>
      <trkpt lat="42.90562" lon="-8.39651">
        <ele>269.7</ele>
        <time>2016-07-20T05:31:24Z</time>
      </trkpt>
      <trkpt lat="42.90561" lon="-8.39665">
        <ele>270.4</ele>
        <time>2016-07-20T05:31:35Z</time>
      </trkpt>
      <trkpt lat="42.90561" lon="-8.39677">
        <ele>270.8</ele>
        <time>2016-07-20T05:31:44Z</time>
      </trkpt>
      <trkpt lat="42.90558" lon="-8.39689">
        <ele>271.5</ele>
        <time>2016-07-20T05:31:54Z</time>
      </trkpt>
      <trkpt lat="42.90558" lon="-8.39701">
        <ele>272.3</ele>
        <time>2016-07-20T05:32:03Z</time>
      </trkpt>
      <trkpt lat="42.90556" lon="-8.39714">
        <ele>273.5</ele>
        <time>2016-07-20T05:32:14Z</time>
      </trkpt>
      <trkpt lat="42.90554" lon="-8.39727">
        <ele>275</ele>
        <time>2016-07-20T05:32:28Z</time>
      </trkpt>
      <trkpt lat="42.90557" lon="-8.39739">
        <ele>276.4</ele>
        <time>2016-07-20T05:32:41Z</time>
      </trkpt>
      <trkpt lat="42.90557" lon="-8.39751">
        <ele>277.9</ele>
        <time>2016-07-20T05:32:52Z</time>
      </trkpt>
      <trkpt lat="42.90557" lon="-8.39764">
        <ele>279.6</ele>
        <time>2016-07-20T05:33:02Z</time>
      </trkpt>
      <trkpt lat="42.90558" lon="-8.39777">
        <ele>281.5</ele>
        <time>2016-07-20T05:33:14Z</time>
      </trkpt>
      <trkpt lat="42.90562" lon="-8.39788">
        <ele>282.9</ele>
        <time>2016-07-20T05:33:26Z</time>
      </trkpt>
      <trkpt lat="42.90569" lon="-8.39797">
        <ele>284.2</ele>
        <time>2016-07-20T05:33:38Z</time>
      </trkpt>
      <trkpt lat="42.90576" lon="-8.39806">
        <ele>285.3</ele>
        <time>2016-07-20T05:33:48Z</time>
      </trkpt>
      <trkpt lat="42.90582" lon="-8.39816">
        <ele>286.5</ele>
        <time>2016-07-20T05:33:58Z</time>
      </trkpt>
      <trkpt lat="42.90587" lon="-8.39827">
        <ele>287.8</ele>
        <time>2016-07-20T05:34:12Z</time>
      </trkpt>
      <trkpt lat="42.90592" lon="-8.39837">
        <ele>289.4</ele>
        <time>2016-07-20T05:34:24Z</time>
      </trkpt>
      <trkpt lat="42.90597" lon="-8.39849">
        <ele>290.2</ele>
        <time>2016-07-20T05:34:34Z</time>
      </trkpt>
      <trkpt lat="42.90603" lon="-8.39859">
        <ele>291.3</ele>
        <time>2016-07-20T05:34:44Z</time>
      </trkpt>
      <trkpt lat="42.90608" lon="-8.39869">
        <ele>292.5</ele>
        <time>2016-07-20T05:34:55Z</time>
      </trkpt>
      <trkpt lat="42.90613" lon="-8.3988">
        <ele>293</ele>
        <time>2016-07-20T05:35:05Z</time>
      </trkpt>
      <trkpt lat="42.90617" lon="-8.39892">
        <ele>293.9</ele>
        <time>2016-07-20T05:35:14Z</time>
      </trkpt>
      <trkpt lat="42.90621" lon="-8.39903">
        <ele>294.9</ele>
        <time>2016-07-20T05:35:24Z</time>
      </trkpt>
      <trkpt lat="42.90626" lon="-8.39915">
        <ele>295.5</ele>
        <time>2016-07-20T05:35:33Z</time>
      </trkpt>
      <trkpt lat="42.90629" lon="-8.39927">
        <ele>295.9</ele>
        <time>2016-07-20T05:35:42Z</time>
      </trkpt>
      <trkpt lat="42.90631" lon="-8.39941">
        <ele>296.7</ele>
        <time>2016-07-20T05:35:53Z</time>
      </trkpt>
      <trkpt lat="42.90631" lon="-8.39954">
        <ele>297.6</ele>
        <time>2016-07-20T05:36:04Z</time>
      </trkpt>
      <trkpt lat="42.9063" lon="-8.39966">
        <ele>298.3</ele>
        <time>2016-07-20T05:36:14Z</time>
      </trkpt>
      <trkpt lat="42.90626" lon="-8.39977">
        <ele>299.1</ele>
        <time>2016-07-20T05:36:24Z</time>
      </trkpt>
      <trkpt lat="42.90623" lon="-8.39989">
        <ele>299.2</ele>
        <time>2016-07-20T05:36:34Z</time>
      </trkpt>
      <trkpt lat="42.90621" lon="-8.40002">
        <ele>299.7</ele>
        <time>2016-07-20T05:36:44Z</time>
      </trkpt>
      <trkpt lat="42.9062" lon="-8.40016">
        <ele>300.1</ele>
        <time>2016-07-20T05:36:55Z</time>
      </trkpt>
      <trkpt lat="42.90619" lon="-8.40028">
        <ele>300.4</ele>
        <time>2016-07-20T05:37:04Z</time>
      </trkpt>
      <trkpt lat="42.90617" lon="-8.40041">
        <ele>300.9</ele>
        <time>2016-07-20T05:37:14Z</time>
      </trkpt>
      <trkpt lat="42.90615" lon="-8.40053">
        <ele>301.4</ele>
        <time>2016-07-20T05:37:54Z</time>
      </trkpt>
      <trkpt lat="42.90612" lon="-8.40065">
        <ele>301.5</ele>
        <time>2016-07-20T05:38:04Z</time>
      </trkpt>
      <trkpt lat="42.90609" lon="-8.40077">
        <ele>302.1</ele>
        <time>2016-07-20T05:38:14Z</time>
      </trkpt>
      <trkpt lat="42.90605" lon="-8.4009">
        <ele>302.7</ele>
        <time>2016-07-20T05:38:22Z</time>
      </trkpt>
      <trkpt lat="42.90602" lon="-8.40102">
        <ele>303</ele>
        <time>2016-07-20T05:38:29Z</time>
      </trkpt>
      <trkpt lat="42.90599" lon="-8.40115">
        <ele>303.3</ele>
        <time>2016-07-20T05:38:37Z</time>
      </trkpt>
      <trkpt lat="42.90598" lon="-8.40128">
        <ele>303.8</ele>
        <time>2016-07-20T05:38:46Z</time>
      </trkpt>
      <trkpt lat="42.90598" lon="-8.40142">
        <ele>303.5</ele>
        <time>2016-07-20T05:38:54Z</time>
      </trkpt>
      <trkpt lat="42.90599" lon="-8.40154">
        <ele>303.4</ele>
        <time>2016-07-20T05:39:01Z</time>
      </trkpt>
      <trkpt lat="42.906" lon="-8.40168">
        <ele>303.3</ele>
        <time>2016-07-20T05:39:10Z</time>
      </trkpt>
      <trkpt lat="42.90603" lon="-8.4018">
        <ele>303.4</ele>
        <time>2016-07-20T05:39:18Z</time>
      </trkpt>
      <trkpt lat="42.90607" lon="-8.40193">
        <ele>303.6</ele>
        <time>2016-07-20T05:39:26Z</time>
      </trkpt>
      <trkpt lat="42.9061" lon="-8.40205">
        <ele>304.2</ele>
        <time>2016-07-20T05:39:34Z</time>
      </trkpt>
      <trkpt lat="42.90612" lon="-8.40218">
        <ele>305.2</ele>
        <time>2016-07-20T05:39:44Z</time>
      </trkpt>
      <trkpt lat="42.90609" lon="-8.40231">
        <ele>305.8</ele>
        <time>2016-07-20T05:39:53Z</time>
      </trkpt>
      <trkpt lat="42.90603" lon="-8.40241">
        <ele>306.1</ele>
        <time>2016-07-20T05:40:03Z</time>
      </trkpt>
      <trkpt lat="42.90596" lon="-8.4025">
        <ele>306.4</ele>
        <time>2016-07-20T05:40:15Z</time>
      </trkpt>
      <trkpt lat="42.90589" lon="-8.4026">
        <ele>306.8</ele>
        <time>2016-07-20T05:40:25Z</time>
      </trkpt>
      <trkpt lat="42.90584" lon="-8.40271">
        <ele>307.9</ele>
        <time>2016-07-20T05:40:36Z</time>
      </trkpt>
      <trkpt lat="42.90582" lon="-8.40283">
        <ele>308.9</ele>
        <time>2016-07-20T05:40:46Z</time>
      </trkpt>
      <trkpt lat="42.9058" lon="-8.40297">
        <ele>309.8</ele>
        <time>2016-07-20T05:40:55Z</time>
      </trkpt>
      <trkpt lat="42.90577" lon="-8.40309">
        <ele>310.9</ele>
        <time>2016-07-20T05:41:04Z</time>
      </trkpt>
      <trkpt lat="42.90575" lon="-8.40322">
        <ele>311.9</ele>
        <time>2016-07-20T05:41:14Z</time>
      </trkpt>
      <trkpt lat="42.90573" lon="-8.40334">
        <ele>313.1</ele>
        <time>2016-07-20T05:41:24Z</time>
      </trkpt>
      <trkpt lat="42.90573" lon="-8.40348">
        <ele>313.6</ele>
        <time>2016-07-20T05:41:33Z</time>
      </trkpt>
      <trkpt lat="42.90574" lon="-8.40361">
        <ele>314.2</ele>
        <time>2016-07-20T05:41:43Z</time>
      </trkpt>
      <trkpt lat="42.90575" lon="-8.40375">
        <ele>314.9</ele>
        <time>2016-07-20T05:41:52Z</time>
      </trkpt>
      <trkpt lat="42.90575" lon="-8.40388">
        <ele>315.5</ele>
        <time>2016-07-20T05:42:00Z</time>
      </trkpt>
      <trkpt lat="42.90576" lon="-8.40401">
        <ele>316.5</ele>
        <time>2016-07-20T05:42:09Z</time>
      </trkpt>
      <trkpt lat="42.90579" lon="-8.40414">
        <ele>317.2</ele>
        <time>2016-07-20T05:42:18Z</time>
      </trkpt>
      <trkpt lat="42.90582" lon="-8.40426">
        <ele>318</ele>
        <time>2016-07-20T05:42:26Z</time>
      </trkpt>
      <trkpt lat="42.90586" lon="-8.40438">
        <ele>318.9</ele>
        <time>2016-07-20T05:42:35Z</time>
      </trkpt>
      <trkpt lat="42.90588" lon="-8.40451">
        <ele>319.7</ele>
        <time>2016-07-20T05:42:44Z</time>
      </trkpt>
      <trkpt lat="42.90587" lon="-8.40464">
        <ele>320.5</ele>
        <time>2016-07-20T05:42:54Z</time>
      </trkpt>
      <trkpt lat="42.90586" lon="-8.40476">
        <ele>321.1</ele>
        <time>2016-07-20T05:43:03Z</time>
      </trkpt>
      <trkpt lat="42.90587" lon="-8.40489">
        <ele>321.7</ele>
        <time>2016-07-20T05:43:12Z</time>
      </trkpt>
      <trkpt lat="42.90587" lon="-8.40503">
        <ele>322.3</ele>
        <time>2016-07-20T05:43:22Z</time>
      </trkpt>
      <trkpt lat="42.90587" lon="-8.40516">
        <ele>323.1</ele>
        <time>2016-07-20T05:43:32Z</time>
      </trkpt>
      <trkpt lat="42.90588" lon="-8.40529">
        <ele>324</ele>
        <time>2016-07-20T05:43:42Z</time>
      </trkpt>
      <trkpt lat="42.90588" lon="-8.40543">
        <ele>324.6</ele>
        <time>2016-07-20T05:43:51Z</time>
      </trkpt>
      <trkpt lat="42.90588" lon="-8.40556">
        <ele>325.2</ele>
        <time>2016-07-20T05:44:01Z</time>
      </trkpt>
      <trkpt lat="42.90587" lon="-8.40569">
        <ele>325.9</ele>
        <time>2016-07-20T05:44:12Z</time>
      </trkpt>
      <trkpt lat="42.90587" lon="-8.40581">
        <ele>326.3</ele>
        <time>2016-07-20T05:44:21Z</time>
      </trkpt>
      <trkpt lat="42.90585" lon="-8.40593">
        <ele>327.3</ele>
        <time>2016-07-20T05:44:30Z</time>
      </trkpt>
      <trkpt lat="42.90585" lon="-8.40606">
        <ele>328</ele>
        <time>2016-07-20T05:44:39Z</time>
      </trkpt>
      <trkpt lat="42.90586" lon="-8.4062">
        <ele>328.4</ele>
        <time>2016-07-20T05:44:49Z</time>
      </trkpt>
      <trkpt lat="42.90586" lon="-8.40633">
        <ele>329.6</ele>
        <time>2016-07-20T05:44:59Z</time>
      </trkpt>
      <trkpt lat="42.90586" lon="-8.40646">
        <ele>330.6</ele>
        <time>2016-07-20T05:45:09Z</time>
      </trkpt>
      <trkpt lat="42.90586" lon="-8.40659">
        <ele>331.5</ele>
        <time>2016-07-20T05:45:20Z</time>
      </trkpt>
      <trkpt lat="42.90583" lon="-8.40672">
        <ele>332.7</ele>
        <time>2016-07-20T05:45:31Z</time>
      </trkpt>
      <trkpt lat="42.90579" lon="-8.40683">
        <ele>333.7</ele>
        <time>2016-07-20T05:45:40Z</time>
      </trkpt>
      <trkpt lat="42.9058" lon="-8.40697">
        <ele>334.8</ele>
        <time>2016-07-20T05:45:50Z</time>
      </trkpt>
      <trkpt lat="42.90582" lon="-8.40709">
        <ele>335.5</ele>
        <time>2016-07-20T05:46:00Z</time>
      </trkpt>
      <trkpt lat="42.90584" lon="-8.40721">
        <ele>336.4</ele>
        <time>2016-07-20T05:46:10Z</time>
      </trkpt>
      <trkpt lat="42.90584" lon="-8.40734">
        <ele>337.7</ele>
        <time>2016-07-20T05:46:21Z</time>
      </trkpt>
      <trkpt lat="42.90584" lon="-8.40748">
        <ele>338.9</ele>
        <time>2016-07-20T05:46:31Z</time>
      </trkpt>
      <trkpt lat="42.90583" lon="-8.40761">
        <ele>339.8</ele>
        <time>2016-07-20T05:46:41Z</time>
      </trkpt>
      <trkpt lat="42.90583" lon="-8.40773">
        <ele>340.4</ele>
        <time>2016-07-20T05:46:52Z</time>
      </trkpt>
      <trkpt lat="42.90581" lon="-8.40786">
        <ele>341.3</ele>
        <time>2016-07-20T05:47:01Z</time>
      </trkpt>
      <trkpt lat="42.90579" lon="-8.40798">
        <ele>342.3</ele>
        <time>2016-07-20T05:47:11Z</time>
      </trkpt>
      <trkpt lat="42.90575" lon="-8.4081">
        <ele>343.3</ele>
        <time>2016-07-20T05:47:20Z</time>
      </trkpt>
      <trkpt lat="42.90574" lon="-8.40823">
        <ele>344</ele>
        <time>2016-07-20T05:47:29Z</time>
      </trkpt>
      <trkpt lat="42.90572" lon="-8.40836">
        <ele>344.4</ele>
        <time>2016-07-20T05:47:38Z</time>
      </trkpt>
      <trkpt lat="42.90571" lon="-8.40848">
        <ele>344.5</ele>
        <time>2016-07-20T05:47:45Z</time>
      </trkpt>
      <trkpt lat="42.90574" lon="-8.40861">
        <ele>344.6</ele>
        <time>2016-07-20T05:47:53Z</time>
      </trkpt>
      <trkpt lat="42.90578" lon="-8.40874">
        <ele>344.7</ele>
        <time>2016-07-20T05:48:01Z</time>
      </trkpt>
      <trkpt lat="42.90583" lon="-8.40885">
        <ele>344.7</ele>
        <time>2016-07-20T05:48:09Z</time>
      </trkpt>
      <trkpt lat="42.90587" lon="-8.40896">
        <ele>345.4</ele>
        <time>2016-07-20T05:48:18Z</time>
      </trkpt>
      <trkpt lat="42.90591" lon="-8.40908">
        <ele>346</ele>
        <time>2016-07-20T05:48:27Z</time>
      </trkpt>
      <trkpt lat="42.90594" lon="-8.4092">
        <ele>346.8</ele>
        <time>2016-07-20T05:48:36Z</time>
      </trkpt>
      <trkpt lat="42.90596" lon="-8.40932">
        <ele>347.5</ele>
        <time>2016-07-20T05:48:46Z</time>
      </trkpt>
      <trkpt lat="42.90602" lon="-8.40942">
        <ele>348.1</ele>
        <time>2016-07-20T05:48:57Z</time>
      </trkpt>
      <trkpt lat="42.90608" lon="-8.40953">
        <ele>348.6</ele>
        <time>2016-07-20T05:49:06Z</time>
      </trkpt>
      <trkpt lat="42.90613" lon="-8.40965">
        <ele>349.4</ele>
        <time>2016-07-20T05:49:15Z</time>
      </trkpt>
      <trkpt lat="42.90613" lon="-8.40977">
        <ele>350.3</ele>
        <time>2016-07-20T05:49:26Z</time>
      </trkpt>
      <trkpt lat="42.90613" lon="-8.4099">
        <ele>351.3</ele>
        <time>2016-07-20T05:49:38Z</time>
      </trkpt>
      <trkpt lat="42.90616" lon="-8.41003">
        <ele>352.6</ele>
        <time>2016-07-20T05:49:50Z</time>
      </trkpt>
      <trkpt lat="42.90622" lon="-8.41013">
        <ele>353.4</ele>
        <time>2016-07-20T05:50:00Z</time>
      </trkpt>
      <trkpt lat="42.90629" lon="-8.41022">
        <ele>353.6</ele>
        <time>2016-07-20T05:50:09Z</time>
      </trkpt>
      <trkpt lat="42.90636" lon="-8.41032">
        <ele>354.1</ele>
        <time>2016-07-20T05:50:19Z</time>
      </trkpt>
      <trkpt lat="42.90643" lon="-8.41042">
        <ele>354.9</ele>
        <time>2016-07-20T05:50:29Z</time>
      </trkpt>
      <trkpt lat="42.9065" lon="-8.4105">
        <ele>355.5</ele>
        <time>2016-07-20T05:50:38Z</time>
      </trkpt>
      <trkpt lat="42.90658" lon="-8.41058">
        <ele>356.2</ele>
        <time>2016-07-20T05:50:47Z</time>
      </trkpt>
      <trkpt lat="42.90666" lon="-8.41064">
        <ele>357.2</ele>
        <time>2016-07-20T05:50:55Z</time>
      </trkpt>
      <trkpt lat="42.90675" lon="-8.41068">
        <ele>358.1</ele>
        <time>2016-07-20T05:51:04Z</time>
      </trkpt>
      <trkpt lat="42.90684" lon="-8.41074">
        <ele>358.3</ele>
        <time>2016-07-20T05:51:14Z</time>
      </trkpt>
      <trkpt lat="42.90693" lon="-8.41078">
        <ele>358.5</ele>
        <time>2016-07-20T05:51:23Z</time>
      </trkpt>
      <trkpt lat="42.90702" lon="-8.41082">
        <ele>358.8</ele>
        <time>2016-07-20T05:51:30Z</time>
      </trkpt>
      <trkpt lat="42.90711" lon="-8.41088">
        <ele>359.3</ele>
        <time>2016-07-20T05:51:39Z</time>
      </trkpt>
      <trkpt lat="42.90717" lon="-8.41098">
        <ele>359.6</ele>
        <time>2016-07-20T05:51:57Z</time>
      </trkpt>
      <trkpt lat="42.90725" lon="-8.41104">
        <ele>360</ele>
        <time>2016-07-20T05:52:07Z</time>
      </trkpt>
      <trkpt lat="42.90733" lon="-8.41111">
        <ele>360.5</ele>
        <time>2016-07-20T05:52:16Z</time>
      </trkpt>
      <trkpt lat="42.9074" lon="-8.41119">
        <ele>360.6</ele>
        <time>2016-07-20T05:52:24Z</time>
      </trkpt>
      <trkpt lat="42.90747" lon="-8.41128">
        <ele>361.3</ele>
        <time>2016-07-20T05:52:33Z</time>
      </trkpt>
      <trkpt lat="42.9075" lon="-8.41141">
        <ele>361.9</ele>
        <time>2016-07-20T05:52:41Z</time>
      </trkpt>
      <trkpt lat="42.90752" lon="-8.41153">
        <ele>362.3</ele>
        <time>2016-07-20T05:52:49Z</time>
      </trkpt>
      <trkpt lat="42.90755" lon="-8.41166">
        <ele>362.9</ele>
        <time>2016-07-20T05:52:58Z</time>
      </trkpt>
      <trkpt lat="42.90759" lon="-8.41178">
        <ele>363.3</ele>
        <time>2016-07-20T05:53:07Z</time>
      </trkpt>
      <trkpt lat="42.90765" lon="-8.4119">
        <ele>363.6</ele>
        <time>2016-07-20T05:53:18Z</time>
      </trkpt>
      <trkpt lat="42.90768" lon="-8.41202">
        <ele>364.2</ele>
        <time>2016-07-20T05:53:27Z</time>
      </trkpt>
      <trkpt lat="42.90771" lon="-8.41215">
        <ele>364.9</ele>
        <time>2016-07-20T05:53:39Z</time>
      </trkpt>
      <trkpt lat="42.90775" lon="-8.41226">
        <ele>365.2</ele>
        <time>2016-07-20T05:53:47Z</time>
      </trkpt>
      <trkpt lat="42.90777" lon="-8.41239">
        <ele>365.9</ele>
        <time>2016-07-20T05:53:56Z</time>
      </trkpt>
      <trkpt lat="42.9078" lon="-8.41251">
        <ele>366.7</ele>
        <time>2016-07-20T05:54:05Z</time>
      </trkpt>
      <trkpt lat="42.90783" lon="-8.41264">
        <ele>367.2</ele>
        <time>2016-07-20T05:54:14Z</time>
      </trkpt>
      <trkpt lat="42.90786" lon="-8.41276">
        <ele>368.1</ele>
        <time>2016-07-20T05:54:24Z</time>
      </trkpt>
      <trkpt lat="42.90786" lon="-8.41289">
        <ele>369.7</ele>
        <time>2016-07-20T05:55:36Z</time>
      </trkpt>
      <trkpt lat="42.9079" lon="-8.413">
        <ele>370.1</ele>
        <time>2016-07-20T05:55:47Z</time>
      </trkpt>
      <trkpt lat="42.90794" lon="-8.41312">
        <ele>370.4</ele>
        <time>2016-07-20T05:55:56Z</time>
      </trkpt>
      <trkpt lat="42.90799" lon="-8.41324">
        <ele>370.8</ele>
        <time>2016-07-20T05:56:06Z</time>
      </trkpt>
      <trkpt lat="42.90803" lon="-8.41335">
        <ele>371.4</ele>
        <time>2016-07-20T05:56:14Z</time>
      </trkpt>
      <trkpt lat="42.90805" lon="-8.41347">
        <ele>371.8</ele>
        <time>2016-07-20T05:56:23Z</time>
      </trkpt>
      <trkpt lat="42.90807" lon="-8.4136">
        <ele>372.2</ele>
        <time>2016-07-20T05:56:33Z</time>
      </trkpt>
      <trkpt lat="42.9081" lon="-8.41373">
        <ele>372.1</ele>
        <time>2016-07-20T05:56:42Z</time>
      </trkpt>
      <trkpt lat="42.90814" lon="-8.41384">
        <ele>372.1</ele>
        <time>2016-07-20T05:56:51Z</time>
      </trkpt>
      <trkpt lat="42.90817" lon="-8.41395">
        <ele>372.5</ele>
        <time>2016-07-20T05:57:01Z</time>
      </trkpt>
      <trkpt lat="42.90819" lon="-8.41408">
        <ele>372.7</ele>
        <time>2016-07-20T05:57:10Z</time>
      </trkpt>
      <trkpt lat="42.90823" lon="-8.4142">
        <ele>372.8</ele>
        <time>2016-07-20T05:57:19Z</time>
      </trkpt>
      <trkpt lat="42.90826" lon="-8.41433">
        <ele>372.9</ele>
        <time>2016-07-20T05:57:28Z</time>
      </trkpt>
      <trkpt lat="42.90829" lon="-8.41444">
        <ele>372.5</ele>
        <time>2016-07-20T05:57:37Z</time>
      </trkpt>
      <trkpt lat="42.90833" lon="-8.41457">
        <ele>372.2</ele>
        <time>2016-07-20T05:57:45Z</time>
      </trkpt>
      <trkpt lat="42.90839" lon="-8.41468">
        <ele>372.2</ele>
        <time>2016-07-20T05:57:54Z</time>
      </trkpt>
      <trkpt lat="42.90847" lon="-8.41476">
        <ele>372.5</ele>
        <time>2016-07-20T05:58:05Z</time>
      </trkpt>
      <trkpt lat="42.90856" lon="-8.41479">
        <ele>372.4</ele>
        <time>2016-07-20T05:58:16Z</time>
      </trkpt>
      <trkpt lat="42.90866" lon="-8.4148">
        <ele>372.4</ele>
        <time>2016-07-20T05:58:29Z</time>
      </trkpt>
      <trkpt lat="42.90875" lon="-8.41481">
        <ele>372.2</ele>
        <time>2016-07-20T05:58:38Z</time>
      </trkpt>
      <trkpt lat="42.90884" lon="-8.41479">
        <ele>372.3</ele>
        <time>2016-07-20T05:58:46Z</time>
      </trkpt>
      <trkpt lat="42.90894" lon="-8.41479">
        <ele>372.5</ele>
        <time>2016-07-20T05:58:55Z</time>
      </trkpt>
      <trkpt lat="42.90903" lon="-8.41476">
        <ele>372.5</ele>
        <time>2016-07-20T05:59:03Z</time>
      </trkpt>
      <trkpt lat="42.90913" lon="-8.41474">
        <ele>372.5</ele>
        <time>2016-07-20T05:59:11Z</time>
      </trkpt>
      <trkpt lat="42.90923" lon="-8.41473">
        <ele>372.4</ele>
        <time>2016-07-20T05:59:20Z</time>
      </trkpt>
      <trkpt lat="42.90932" lon="-8.41472">
        <ele>372.4</ele>
        <time>2016-07-20T05:59:28Z</time>
      </trkpt>
      <trkpt lat="42.90941" lon="-8.41471">
        <ele>372.7</ele>
        <time>2016-07-20T05:59:37Z</time>
      </trkpt>
      <trkpt lat="42.9095" lon="-8.41468">
        <ele>372.8</ele>
        <time>2016-07-20T05:59:45Z</time>
      </trkpt>
      <trkpt lat="42.9096" lon="-8.41464">
        <ele>373</ele>
        <time>2016-07-20T05:59:53Z</time>
      </trkpt>
      <trkpt lat="42.90969" lon="-8.41461">
        <ele>373.1</ele>
        <time>2016-07-20T06:00:01Z</time>
      </trkpt>
      <trkpt lat="42.90978" lon="-8.41459">
        <ele>373.2</ele>
        <time>2016-07-20T06:00:09Z</time>
      </trkpt>
      <trkpt lat="42.90987" lon="-8.41457">
        <ele>373.4</ele>
        <time>2016-07-20T06:00:18Z</time>
      </trkpt>
      <trkpt lat="42.90996" lon="-8.41456">
        <ele>373.5</ele>
        <time>2016-07-20T06:00:26Z</time>
      </trkpt>
      <trkpt lat="42.91005" lon="-8.41455">
        <ele>373.5</ele>
        <time>2016-07-20T06:00:35Z</time>
      </trkpt>
      <trkpt lat="42.91015" lon="-8.41453">
        <ele>373.6</ele>
        <time>2016-07-20T06:00:45Z</time>
      </trkpt>
      <trkpt lat="42.91024" lon="-8.4145">
        <ele>373.7</ele>
        <time>2016-07-20T06:00:53Z</time>
      </trkpt>
      <trkpt lat="42.91034" lon="-8.41449">
        <ele>373.3</ele>
        <time>2016-07-20T06:01:01Z</time>
      </trkpt>
      <trkpt lat="42.91043" lon="-8.41448">
        <ele>373.5</ele>
        <time>2016-07-20T06:01:10Z</time>
      </trkpt>
      <trkpt lat="42.91053" lon="-8.41447">
        <ele>373.5</ele>
        <time>2016-07-20T06:01:17Z</time>
      </trkpt>
      <trkpt lat="42.91062" lon="-8.41447">
        <ele>373.2</ele>
        <time>2016-07-20T06:01:25Z</time>
      </trkpt>
      <trkpt lat="42.91072" lon="-8.41447">
        <ele>373</ele>
        <time>2016-07-20T06:01:34Z</time>
      </trkpt>
      <trkpt lat="42.91081" lon="-8.41445">
        <ele>372.6</ele>
        <time>2016-07-20T06:01:43Z</time>
      </trkpt>
      <trkpt lat="42.9109" lon="-8.41444">
        <ele>372.7</ele>
        <time>2016-07-20T06:01:51Z</time>
      </trkpt>
      <trkpt lat="42.911" lon="-8.41443">
        <ele>372.6</ele>
        <time>2016-07-20T06:01:59Z</time>
      </trkpt>
      <trkpt lat="42.9111" lon="-8.41444">
        <ele>372.3</ele>
        <time>2016-07-20T06:02:08Z</time>
      </trkpt>
      <trkpt lat="42.91119" lon="-8.41443">
        <ele>372.1</ele>
        <time>2016-07-20T06:02:17Z</time>
      </trkpt>
      <trkpt lat="42.91129" lon="-8.41441">
        <ele>372</ele>
        <time>2016-07-20T06:02:26Z</time>
      </trkpt>
      <trkpt lat="42.91139" lon="-8.41438">
        <ele>372.1</ele>
        <time>2016-07-20T06:02:34Z</time>
      </trkpt>
      <trkpt lat="42.91147" lon="-8.41433">
        <ele>372.1</ele>
        <time>2016-07-20T06:02:42Z</time>
      </trkpt>
      <trkpt lat="42.91157" lon="-8.4143">
        <ele>372.2</ele>
        <time>2016-07-20T06:02:50Z</time>
      </trkpt>
      <trkpt lat="42.91166" lon="-8.41428">
        <ele>372.2</ele>
        <time>2016-07-20T06:02:58Z</time>
      </trkpt>
      <trkpt lat="42.91175" lon="-8.41426">
        <ele>372.3</ele>
        <time>2016-07-20T06:03:05Z</time>
      </trkpt>
      <trkpt lat="42.91184" lon="-8.41425">
        <ele>372.3</ele>
        <time>2016-07-20T06:03:13Z</time>
      </trkpt>
      <trkpt lat="42.91195" lon="-8.41423">
        <ele>372.3</ele>
        <time>2016-07-20T06:03:22Z</time>
      </trkpt>
      <trkpt lat="42.91205" lon="-8.41422">
        <ele>372.1</ele>
        <time>2016-07-20T06:03:31Z</time>
      </trkpt>
      <trkpt lat="42.91215" lon="-8.41419">
        <ele>371.4</ele>
        <time>2016-07-20T06:03:39Z</time>
      </trkpt>
      <trkpt lat="42.91224" lon="-8.41417">
        <ele>371.6</ele>
        <time>2016-07-20T06:03:51Z</time>
      </trkpt>
      <trkpt lat="42.91234" lon="-8.41415">
        <ele>371.5</ele>
        <time>2016-07-20T06:04:00Z</time>
      </trkpt>
      <trkpt lat="42.91243" lon="-8.41414">
        <ele>371.5</ele>
        <time>2016-07-20T06:04:07Z</time>
      </trkpt>
      <trkpt lat="42.91253" lon="-8.41413">
        <ele>371.5</ele>
        <time>2016-07-20T06:04:16Z</time>
      </trkpt>
      <trkpt lat="42.91263" lon="-8.41411">
        <ele>371.5</ele>
        <time>2016-07-20T06:04:25Z</time>
      </trkpt>
      <trkpt lat="42.91272" lon="-8.41412">
        <ele>371.6</ele>
        <time>2016-07-20T06:04:35Z</time>
      </trkpt>
      <trkpt lat="42.91282" lon="-8.41412">
        <ele>371.3</ele>
        <time>2016-07-20T06:04:43Z</time>
      </trkpt>
      <trkpt lat="42.91291" lon="-8.41413">
        <ele>371.2</ele>
        <time>2016-07-20T06:04:51Z</time>
      </trkpt>
      <trkpt lat="42.913" lon="-8.41413">
        <ele>370.9</ele>
        <time>2016-07-20T06:04:59Z</time>
      </trkpt>
      <trkpt lat="42.9131" lon="-8.41414">
        <ele>371</ele>
        <time>2016-07-20T06:05:08Z</time>
      </trkpt>
      <trkpt lat="42.9132" lon="-8.41413">
        <ele>371.2</ele>
        <time>2016-07-20T06:05:19Z</time>
      </trkpt>
      <trkpt lat="42.91329" lon="-8.41412">
        <ele>371.2</ele>
        <time>2016-07-20T06:05:29Z</time>
      </trkpt>
      <trkpt lat="42.91338" lon="-8.41412">
        <ele>371.2</ele>
        <time>2016-07-20T06:05:37Z</time>
      </trkpt>
      <trkpt lat="42.91349" lon="-8.41412">
        <ele>371.1</ele>
        <time>2016-07-20T06:05:45Z</time>
      </trkpt>
      <trkpt lat="42.91358" lon="-8.41413">
        <ele>371.4</ele>
        <time>2016-07-20T06:05:53Z</time>
      </trkpt>
      <trkpt lat="42.91366" lon="-8.41419">
        <ele>370.4</ele>
        <time>2016-07-20T06:06:03Z</time>
      </trkpt>
      <trkpt lat="42.9137" lon="-8.41431">
        <ele>370</ele>
        <time>2016-07-20T06:06:12Z</time>
      </trkpt>
      <trkpt lat="42.91373" lon="-8.41442">
        <ele>369.8</ele>
        <time>2016-07-20T06:06:20Z</time>
      </trkpt>
      <trkpt lat="42.91376" lon="-8.41454">
        <ele>369.7</ele>
        <time>2016-07-20T06:06:28Z</time>
      </trkpt>
      <trkpt lat="42.91379" lon="-8.41466">
        <ele>369.7</ele>
        <time>2016-07-20T06:06:35Z</time>
      </trkpt>
      <trkpt lat="42.91381" lon="-8.41478">
        <ele>369.4</ele>
        <time>2016-07-20T06:06:43Z</time>
      </trkpt>
      <trkpt lat="42.91384" lon="-8.4149">
        <ele>369.2</ele>
        <time>2016-07-20T06:06:51Z</time>
      </trkpt>
      <trkpt lat="42.91386" lon="-8.41503">
        <ele>368.5</ele>
        <time>2016-07-20T06:07:06Z</time>
      </trkpt>
      <trkpt lat="42.91387" lon="-8.41516">
        <ele>368.1</ele>
        <time>2016-07-20T06:07:17Z</time>
      </trkpt>
      <trkpt lat="42.91386" lon="-8.41529">
        <ele>367.5</ele>
        <time>2016-07-20T06:08:56Z</time>
      </trkpt>
      <trkpt lat="42.91386" lon="-8.41541">
        <ele>367</ele>
        <time>2016-07-20T06:09:05Z</time>
      </trkpt>
      <trkpt lat="42.91386" lon="-8.41554">
        <ele>366.5</ele>
        <time>2016-07-20T06:09:28Z</time>
      </trkpt>
      <trkpt lat="42.91384" lon="-8.41566">
        <ele>365.9</ele>
        <time>2016-07-20T06:09:40Z</time>
      </trkpt>
      <trkpt lat="42.91381" lon="-8.41577">
        <ele>365</ele>
        <time>2016-07-20T06:10:17Z</time>
      </trkpt>
      <trkpt lat="42.91382" lon="-8.4159">
        <ele>364.8</ele>
        <time>2016-07-20T06:11:20Z</time>
      </trkpt>
      <trkpt lat="42.91382" lon="-8.41603">
        <ele>364.1</ele>
        <time>2016-07-20T06:11:30Z</time>
      </trkpt>
      <trkpt lat="42.91384" lon="-8.41615">
        <ele>363.9</ele>
        <time>2016-07-20T06:11:39Z</time>
      </trkpt>
      <trkpt lat="42.91383" lon="-8.41629">
        <ele>363.3</ele>
        <time>2016-07-20T06:11:50Z</time>
      </trkpt>
      <trkpt lat="42.91383" lon="-8.41641">
        <ele>362.7</ele>
        <time>2016-07-20T06:11:59Z</time>
      </trkpt>
      <trkpt lat="42.91381" lon="-8.41654">
        <ele>361.8</ele>
        <time>2016-07-20T06:12:08Z</time>
      </trkpt>
      <trkpt lat="42.9138" lon="-8.41666">
        <ele>361</ele>
        <time>2016-07-20T06:12:17Z</time>
      </trkpt>
      <trkpt lat="42.91381" lon="-8.41679">
        <ele>360.3</ele>
        <time>2016-07-20T06:12:26Z</time>
      </trkpt>
      <trkpt lat="42.9138" lon="-8.41691">
        <ele>359.6</ele>
        <time>2016-07-20T06:12:37Z</time>
      </trkpt>
      <trkpt lat="42.91381" lon="-8.41705">
        <ele>359.2</ele>
        <time>2016-07-20T06:12:47Z</time>
      </trkpt>
      <trkpt lat="42.91381" lon="-8.41718">
        <ele>358.5</ele>
        <time>2016-07-20T06:12:57Z</time>
      </trkpt>
      <trkpt lat="42.9138" lon="-8.41731">
        <ele>357.9</ele>
        <time>2016-07-20T06:13:05Z</time>
      </trkpt>
      <trkpt lat="42.91379" lon="-8.41744">
        <ele>357.3</ele>
        <time>2016-07-20T06:13:16Z</time>
      </trkpt>
      <trkpt lat="42.91378" lon="-8.41757">
        <ele>356.7</ele>
        <time>2016-07-20T06:13:25Z</time>
      </trkpt>
      <trkpt lat="42.91379" lon="-8.4177">
        <ele>356.2</ele>
        <time>2016-07-20T06:13:34Z</time>
      </trkpt>
      <trkpt lat="42.91376" lon="-8.41783">
        <ele>355.8</ele>
        <time>2016-07-20T06:13:43Z</time>
      </trkpt>
      <trkpt lat="42.91372" lon="-8.41794">
        <ele>355.5</ele>
        <time>2016-07-20T06:13:51Z</time>
      </trkpt>
      <trkpt lat="42.91367" lon="-8.41805">
        <ele>355.2</ele>
        <time>2016-07-20T06:13:57Z</time>
      </trkpt>
      <trkpt lat="42.91362" lon="-8.41816">
        <ele>354.9</ele>
        <time>2016-07-20T06:14:04Z</time>
      </trkpt>
      <trkpt lat="42.91359" lon="-8.41828">
        <ele>354.3</ele>
        <time>2016-07-20T06:14:11Z</time>
      </trkpt>
      <trkpt lat="42.91359" lon="-8.41841">
        <ele>353.9</ele>
        <time>2016-07-20T06:14:19Z</time>
      </trkpt>
      <trkpt lat="42.91363" lon="-8.41852">
        <ele>353.4</ele>
        <time>2016-07-20T06:14:29Z</time>
      </trkpt>
      <trkpt lat="42.91365" lon="-8.41865">
        <ele>352.9</ele>
        <time>2016-07-20T06:14:40Z</time>
      </trkpt>
      <trkpt lat="42.91367" lon="-8.41878">
        <ele>352.6</ele>
        <time>2016-07-20T06:14:49Z</time>
      </trkpt>
      <trkpt lat="42.91367" lon="-8.41892">
        <ele>351.6</ele>
        <time>2016-07-20T06:14:59Z</time>
      </trkpt>
      <trkpt lat="42.91368" lon="-8.41904">
        <ele>351</ele>
        <time>2016-07-20T06:15:09Z</time>
      </trkpt>
      <trkpt lat="42.91368" lon="-8.41917">
        <ele>351.1</ele>
        <time>2016-07-20T06:15:17Z</time>
      </trkpt>
      <trkpt lat="42.91369" lon="-8.41931">
        <ele>351</ele>
        <time>2016-07-20T06:15:25Z</time>
      </trkpt>
      <trkpt lat="42.91369" lon="-8.41944">
        <ele>350.8</ele>
        <time>2016-07-20T06:15:34Z</time>
      </trkpt>
      <trkpt lat="42.91368" lon="-8.41957">
        <ele>350.6</ele>
        <time>2016-07-20T06:15:42Z</time>
      </trkpt>
      <trkpt lat="42.91367" lon="-8.4197">
        <ele>350.5</ele>
        <time>2016-07-20T06:15:50Z</time>
      </trkpt>
      <trkpt lat="42.91366" lon="-8.41983">
        <ele>350.5</ele>
        <time>2016-07-20T06:15:59Z</time>
      </trkpt>
      <trkpt lat="42.91362" lon="-8.41995">
        <ele>350.3</ele>
        <time>2016-07-20T06:16:08Z</time>
      </trkpt>
      <trkpt lat="42.91357" lon="-8.42006">
        <ele>350</ele>
        <time>2016-07-20T06:16:17Z</time>
      </trkpt>
      <trkpt lat="42.91351" lon="-8.42017">
        <ele>349.9</ele>
        <time>2016-07-20T06:16:26Z</time>
      </trkpt>
      <trkpt lat="42.91348" lon="-8.42029">
        <ele>349.4</ele>
        <time>2016-07-20T06:16:36Z</time>
      </trkpt>
      <trkpt lat="42.91347" lon="-8.42041">
        <ele>348.7</ele>
        <time>2016-07-20T06:16:47Z</time>
      </trkpt>
      <trkpt lat="42.91347" lon="-8.42054">
        <ele>347.4</ele>
        <time>2016-07-20T06:16:57Z</time>
      </trkpt>
      <trkpt lat="42.91347" lon="-8.42068">
        <ele>345.3</ele>
        <time>2016-07-20T06:17:10Z</time>
      </trkpt>
      <trkpt lat="42.91347" lon="-8.42081">
        <ele>344.3</ele>
        <time>2016-07-20T06:17:22Z</time>
      </trkpt>
      <trkpt lat="42.91348" lon="-8.42094">
        <ele>343.7</ele>
        <time>2016-07-20T06:17:31Z</time>
      </trkpt>
      <trkpt lat="42.91348" lon="-8.42106">
        <ele>343.1</ele>
        <time>2016-07-20T06:17:41Z</time>
      </trkpt>
      <trkpt lat="42.91348" lon="-8.42119">
        <ele>342.4</ele>
        <time>2016-07-20T06:17:52Z</time>
      </trkpt>
      <trkpt lat="42.91347" lon="-8.42132">
        <ele>341.4</ele>
        <time>2016-07-20T06:18:03Z</time>
      </trkpt>
      <trkpt lat="42.91346" lon="-8.42145">
        <ele>340.9</ele>
        <time>2016-07-20T06:18:13Z</time>
      </trkpt>
      <trkpt lat="42.91346" lon="-8.42158">
        <ele>340.4</ele>
        <time>2016-07-20T06:18:24Z</time>
      </trkpt>
      <trkpt lat="42.91345" lon="-8.42172">
        <ele>339.6</ele>
        <time>2016-07-20T06:18:36Z</time>
      </trkpt>
      <trkpt lat="42.91348" lon="-8.42185">
        <ele>339</ele>
        <time>2016-07-20T06:18:46Z</time>
      </trkpt>
      <trkpt lat="42.91349" lon="-8.42198">
        <ele>338.4</ele>
        <time>2016-07-20T06:18:59Z</time>
      </trkpt>
      <trkpt lat="42.91347" lon="-8.4221">
        <ele>337.6</ele>
        <time>2016-07-20T06:19:10Z</time>
      </trkpt>
      <trkpt lat="42.91346" lon="-8.42222">
        <ele>337.5</ele>
        <time>2016-07-20T06:19:19Z</time>
      </trkpt>
      <trkpt lat="42.91342" lon="-8.42235">
        <ele>337.5</ele>
        <time>2016-07-20T06:19:30Z</time>
      </trkpt>
      <trkpt lat="42.91337" lon="-8.42246">
        <ele>337.5</ele>
        <time>2016-07-20T06:19:39Z</time>
      </trkpt>
      <trkpt lat="42.91332" lon="-8.42257">
        <ele>337.2</ele>
        <time>2016-07-20T06:19:47Z</time>
      </trkpt>
      <trkpt lat="42.91327" lon="-8.42268">
        <ele>336.7</ele>
        <time>2016-07-20T06:19:56Z</time>
      </trkpt>
      <trkpt lat="42.91321" lon="-8.42277">
        <ele>336.3</ele>
        <time>2016-07-20T06:20:05Z</time>
      </trkpt>
      <trkpt lat="42.91315" lon="-8.42288">
        <ele>336.2</ele>
        <time>2016-07-20T06:20:15Z</time>
      </trkpt>
      <trkpt lat="42.91309" lon="-8.42298">
        <ele>335.6</ele>
        <time>2016-07-20T06:20:25Z</time>
      </trkpt>
      <trkpt lat="42.91302" lon="-8.42307">
        <ele>335.3</ele>
        <time>2016-07-20T06:20:33Z</time>
      </trkpt>
      <trkpt lat="42.91296" lon="-8.42316">
        <ele>335.3</ele>
        <time>2016-07-20T06:20:41Z</time>
      </trkpt>
      <trkpt lat="42.91291" lon="-8.42327">
        <ele>335</ele>
        <time>2016-07-20T06:20:50Z</time>
      </trkpt>
      <trkpt lat="42.91285" lon="-8.42336">
        <ele>334.5</ele>
        <time>2016-07-20T06:20:59Z</time>
      </trkpt>
      <trkpt lat="42.91279" lon="-8.42345">
        <ele>333.6</ele>
        <time>2016-07-20T06:21:08Z</time>
      </trkpt>
      <trkpt lat="42.91271" lon="-8.42352">
        <ele>332.7</ele>
        <time>2016-07-20T06:21:18Z</time>
      </trkpt>
      <trkpt lat="42.91262" lon="-8.42358">
        <ele>332.5</ele>
        <time>2016-07-20T06:21:27Z</time>
      </trkpt>
      <trkpt lat="42.91254" lon="-8.42364">
        <ele>332.3</ele>
        <time>2016-07-20T06:21:36Z</time>
      </trkpt>
      <trkpt lat="42.91245" lon="-8.42369">
        <ele>332.1</ele>
        <time>2016-07-20T06:21:48Z</time>
      </trkpt>
      <trkpt lat="42.91237" lon="-8.42375">
        <ele>332.2</ele>
        <time>2016-07-20T06:22:01Z</time>
      </trkpt>
      <trkpt lat="42.91229" lon="-8.42381">
        <ele>331.9</ele>
        <time>2016-07-20T06:22:11Z</time>
      </trkpt>
      <trkpt lat="42.9122" lon="-8.42387">
        <ele>332.1</ele>
        <time>2016-07-20T06:22:20Z</time>
      </trkpt>
      <trkpt lat="42.91212" lon="-8.42393">
        <ele>333.3</ele>
        <time>2016-07-20T06:22:31Z</time>
      </trkpt>
      <trkpt lat="42.91203" lon="-8.42399">
        <ele>334.5</ele>
        <time>2016-07-20T06:22:42Z</time>
      </trkpt>
      <trkpt lat="42.91195" lon="-8.42403">
        <ele>336.2</ele>
        <time>2016-07-20T06:23:01Z</time>
      </trkpt>
      <trkpt lat="42.91187" lon="-8.4241">
        <ele>337.9</ele>
        <time>2016-07-20T06:23:16Z</time>
      </trkpt>
      <trkpt lat="42.91177" lon="-8.42414">
        <ele>339.5</ele>
        <time>2016-07-20T06:23:29Z</time>
      </trkpt>
      <trkpt lat="42.91168" lon="-8.42419">
        <ele>341.2</ele>
        <time>2016-07-20T06:23:41Z</time>
      </trkpt>
      <trkpt lat="42.91159" lon="-8.4242">
        <ele>342.6</ele>
        <time>2016-07-20T06:23:53Z</time>
      </trkpt>
      <trkpt lat="42.91149" lon="-8.4242">
        <ele>343.5</ele>
        <time>2016-07-20T06:24:05Z</time>
      </trkpt>
      <trkpt lat="42.9114" lon="-8.42419">
        <ele>343.9</ele>
        <time>2016-07-20T06:24:14Z</time>
      </trkpt>
      <trkpt lat="42.9113" lon="-8.42418">
        <ele>344.6</ele>
        <time>2016-07-20T06:24:24Z</time>
      </trkpt>
      <trkpt lat="42.91121" lon="-8.42418">
        <ele>345.8</ele>
        <time>2016-07-20T06:24:33Z</time>
      </trkpt>
      <trkpt lat="42.91112" lon="-8.42424">
        <ele>346.2</ele>
        <time>2016-07-20T06:24:42Z</time>
      </trkpt>
      <trkpt lat="42.91107" lon="-8.42434">
        <ele>346.2</ele>
        <time>2016-07-20T06:24:51Z</time>
      </trkpt>
      <trkpt lat="42.91099" lon="-8.42441">
        <ele>346.5</ele>
        <time>2016-07-20T06:25:01Z</time>
      </trkpt>
      <trkpt lat="42.9109" lon="-8.4244">
        <ele>346.4</ele>
        <time>2016-07-20T06:25:13Z</time>
      </trkpt>
      <trkpt lat="42.91081" lon="-8.42436">
        <ele>346.6</ele>
        <time>2016-07-20T06:25:22Z</time>
      </trkpt>
      <trkpt lat="42.91071" lon="-8.42434">
        <ele>346.3</ele>
        <time>2016-07-20T06:25:31Z</time>
      </trkpt>
      <trkpt lat="42.91062" lon="-8.42429">
        <ele>346</ele>
        <time>2016-07-20T06:25:38Z</time>
      </trkpt>
      <trkpt lat="42.91053" lon="-8.42425">
        <ele>346.2</ele>
        <time>2016-07-20T06:25:46Z</time>
      </trkpt>
      <trkpt lat="42.91044" lon="-8.42424">
        <ele>345.7</ele>
        <time>2016-07-20T06:26:00Z</time>
      </trkpt>
      <trkpt lat="42.91035" lon="-8.4242">
        <ele>345.7</ele>
        <time>2016-07-20T06:26:10Z</time>
      </trkpt>
      <trkpt lat="42.91026" lon="-8.42416">
        <ele>345.8</ele>
        <time>2016-07-20T06:26:18Z</time>
      </trkpt>
      <trkpt lat="42.91017" lon="-8.42412">
        <ele>345.9</ele>
        <time>2016-07-20T06:26:27Z</time>
      </trkpt>
      <trkpt lat="42.91008" lon="-8.42409">
        <ele>345.6</ele>
        <time>2016-07-20T06:26:36Z</time>
      </trkpt>
      <trkpt lat="42.90998" lon="-8.42405">
        <ele>345.4</ele>
        <time>2016-07-20T06:26:47Z</time>
      </trkpt>
      <trkpt lat="42.90989" lon="-8.42401">
        <ele>345.2</ele>
        <time>2016-07-20T06:26:55Z</time>
      </trkpt>
      <trkpt lat="42.9098" lon="-8.42398">
        <ele>344.8</ele>
        <time>2016-07-20T06:27:04Z</time>
      </trkpt>
      <trkpt lat="42.9097" lon="-8.42396">
        <ele>344.4</ele>
        <time>2016-07-20T06:27:13Z</time>
      </trkpt>
      <trkpt lat="42.90961" lon="-8.42393">
        <ele>344.2</ele>
        <time>2016-07-20T06:27:23Z</time>
      </trkpt>
      <trkpt lat="42.90951" lon="-8.42391">
        <ele>344.3</ele>
        <time>2016-07-20T06:27:34Z</time>
      </trkpt>
      <trkpt lat="42.90942" lon="-8.42387">
        <ele>344.7</ele>
        <time>2016-07-20T06:27:44Z</time>
      </trkpt>
      <trkpt lat="42.90934" lon="-8.42383">
        <ele>344.5</ele>
        <time>2016-07-20T06:27:51Z</time>
      </trkpt>
      <trkpt lat="42.90925" lon="-8.42378">
        <ele>344.4</ele>
        <time>2016-07-20T06:28:00Z</time>
      </trkpt>
      <trkpt lat="42.90916" lon="-8.42374">
        <ele>344.2</ele>
        <time>2016-07-20T06:28:09Z</time>
      </trkpt>
      <trkpt lat="42.90908" lon="-8.42381">
        <ele>343.9</ele>
        <time>2016-07-20T06:28:20Z</time>
      </trkpt>
      <trkpt lat="42.90901" lon="-8.4239">
        <ele>343.7</ele>
        <time>2016-07-20T06:28:28Z</time>
      </trkpt>
      <trkpt lat="42.90894" lon="-8.42398">
        <ele>343.6</ele>
        <time>2016-07-20T06:28:35Z</time>
      </trkpt>
      <trkpt lat="42.90888" lon="-8.42408">
        <ele>343.6</ele>
        <time>2016-07-20T06:28:43Z</time>
      </trkpt>
      <trkpt lat="42.90881" lon="-8.42417">
        <ele>343.2</ele>
        <time>2016-07-20T06:28:52Z</time>
      </trkpt>
      <trkpt lat="42.90879" lon="-8.42429">
        <ele>342.5</ele>
        <time>2016-07-20T06:29:01Z</time>
      </trkpt>
      <trkpt lat="42.9088" lon="-8.42442">
        <ele>342</ele>
        <time>2016-07-20T06:29:09Z</time>
      </trkpt>
      <trkpt lat="42.90882" lon="-8.42454">
        <ele>341.3</ele>
        <time>2016-07-20T06:29:17Z</time>
      </trkpt>
      <trkpt lat="42.90884" lon="-8.42468">
        <ele>340.8</ele>
        <time>2016-07-20T06:29:27Z</time>
      </trkpt>
      <trkpt lat="42.90886" lon="-8.4248">
        <ele>340.4</ele>
        <time>2016-07-20T06:29:36Z</time>
      </trkpt>
      <trkpt lat="42.9089" lon="-8.42493">
        <ele>340.1</ele>
        <time>2016-07-20T06:29:45Z</time>
      </trkpt>
      <trkpt lat="42.90892" lon="-8.42505">
        <ele>339.6</ele>
        <time>2016-07-20T06:29:52Z</time>
      </trkpt>
      <trkpt lat="42.90895" lon="-8.42517">
        <ele>339.1</ele>
        <time>2016-07-20T06:30:00Z</time>
      </trkpt>
      <trkpt lat="42.90899" lon="-8.42529">
        <ele>338.6</ele>
        <time>2016-07-20T06:30:08Z</time>
      </trkpt>
      <trkpt lat="42.90901" lon="-8.42541">
        <ele>338.3</ele>
        <time>2016-07-20T06:30:16Z</time>
      </trkpt>
      <trkpt lat="42.90903" lon="-8.42554">
        <ele>338</ele>
        <time>2016-07-20T06:30:27Z</time>
      </trkpt>
      <trkpt lat="42.909" lon="-8.42566">
        <ele>337.6</ele>
        <time>2016-07-20T06:30:37Z</time>
      </trkpt>
      <trkpt lat="42.90897" lon="-8.42579">
        <ele>336.3</ele>
        <time>2016-07-20T06:30:48Z</time>
      </trkpt>
      <trkpt lat="42.90893" lon="-8.42591">
        <ele>335.8</ele>
        <time>2016-07-20T06:30:57Z</time>
      </trkpt>
      <trkpt lat="42.90889" lon="-8.42603">
        <ele>335.6</ele>
        <time>2016-07-20T06:31:06Z</time>
      </trkpt>
      <trkpt lat="42.90885" lon="-8.42614">
        <ele>335.4</ele>
        <time>2016-07-20T06:31:14Z</time>
      </trkpt>
      <trkpt lat="42.9089" lon="-8.42626">
        <ele>335.5</ele>
        <time>2016-07-20T06:31:27Z</time>
      </trkpt>
      <trkpt lat="42.90899" lon="-8.42633">
        <ele>336</ele>
        <time>2016-07-20T06:31:44Z</time>
      </trkpt>
      <trkpt lat="42.90909" lon="-8.42637">
        <ele>336</ele>
        <time>2016-07-20T06:31:52Z</time>
      </trkpt>
      <trkpt lat="42.90899" lon="-8.42639">
        <ele>335.6</ele>
        <time>2016-07-20T06:32:28Z</time>
      </trkpt>
      <trkpt lat="42.9089" lon="-8.42647">
        <ele>335.7</ele>
        <time>2016-07-20T06:32:31Z</time>
      </trkpt>
      <trkpt lat="42.90879" lon="-8.4265">
        <ele>335.7</ele>
        <time>2016-07-20T06:32:35Z</time>
      </trkpt>
      <trkpt lat="42.90867" lon="-8.42647">
        <ele>335</ele>
        <time>2016-07-20T06:32:42Z</time>
      </trkpt>
      <trkpt lat="42.90872" lon="-8.42635">
        <ele>336.2</ele>
        <time>2016-07-20T06:32:58Z</time>
      </trkpt>
      <trkpt lat="42.90882" lon="-8.42638">
        <ele>336</ele>
        <time>2016-07-20T06:33:08Z</time>
      </trkpt>
      <trkpt lat="42.9089" lon="-8.42631">
        <ele>336</ele>
        <time>2016-07-20T06:33:22Z</time>
      </trkpt>
      <trkpt lat="42.90898" lon="-8.42627">
        <ele>335.6</ele>
        <time>2016-07-20T06:33:30Z</time>
      </trkpt>
      <trkpt lat="42.90896" lon="-8.42613">
        <ele>335.6</ele>
        <time>2016-07-20T06:34:15Z</time>
      </trkpt>
      <trkpt lat="42.90889" lon="-8.42624">
        <ele>335.6</ele>
        <time>2016-07-20T06:34:17Z</time>
      </trkpt>
      <trkpt lat="42.90887" lon="-8.4264">
        <ele>335</ele>
        <time>2016-07-20T06:34:20Z</time>
      </trkpt>
      <trkpt lat="42.90901" lon="-8.42643">
        <ele>335</ele>
        <time>2016-07-20T06:34:31Z</time>
      </trkpt>
      <trkpt lat="42.90901" lon="-8.42602">
        <ele>335</ele>
        <time>2016-07-20T06:34:40Z</time>
      </trkpt>
      <trkpt lat="42.90908" lon="-8.4262">
        <ele>335</ele>
        <time>2016-07-20T06:34:51Z</time>
      </trkpt>
      <trkpt lat="42.90905" lon="-8.42633">
        <ele>335.5</ele>
        <time>2016-07-20T06:34:56Z</time>
      </trkpt>
      <trkpt lat="42.90896" lon="-8.42635">
        <ele>334.4</ele>
        <time>2016-07-20T06:36:04Z</time>
      </trkpt>
      <trkpt lat="42.90888" lon="-8.42627">
        <ele>333.6</ele>
        <time>2016-07-20T06:36:13Z</time>
      </trkpt>
      <trkpt lat="42.90879" lon="-8.42623">
        <ele>333.8</ele>
        <time>2016-07-20T06:36:26Z</time>
      </trkpt>
      <trkpt lat="42.9087" lon="-8.42619">
        <ele>334</ele>
        <time>2016-07-20T06:36:49Z</time>
      </trkpt>
      <trkpt lat="42.90861" lon="-8.42621">
        <ele>334</ele>
        <time>2016-07-20T06:37:01Z</time>
      </trkpt>
      <trkpt lat="42.90853" lon="-8.42627">
        <ele>334.2</ele>
        <time>2016-07-20T06:37:08Z</time>
      </trkpt>
      <trkpt lat="42.90846" lon="-8.42636">
        <ele>334.5</ele>
        <time>2016-07-20T06:37:17Z</time>
      </trkpt>
      <trkpt lat="42.90841" lon="-8.42649">
        <ele>335.1</ele>
        <time>2016-07-20T06:37:27Z</time>
      </trkpt>
      <trkpt lat="42.90835" lon="-8.42659">
        <ele>335.4</ele>
        <time>2016-07-20T06:37:36Z</time>
      </trkpt>
      <trkpt lat="42.9083" lon="-8.42669">
        <ele>336.3</ele>
        <time>2016-07-20T06:37:45Z</time>
      </trkpt>
      <trkpt lat="42.90823" lon="-8.42679">
        <ele>337.2</ele>
        <time>2016-07-20T06:37:56Z</time>
      </trkpt>
      <trkpt lat="42.90815" lon="-8.42687">
        <ele>339.6</ele>
        <time>2016-07-20T06:38:09Z</time>
      </trkpt>
      <trkpt lat="42.90807" lon="-8.42692">
        <ele>341.8</ele>
        <time>2016-07-20T06:38:21Z</time>
      </trkpt>
      <trkpt lat="42.908" lon="-8.42701">
        <ele>343.4</ele>
        <time>2016-07-20T06:38:32Z</time>
      </trkpt>
      <trkpt lat="42.90794" lon="-8.42711">
        <ele>345</ele>
        <time>2016-07-20T06:38:44Z</time>
      </trkpt>
      <trkpt lat="42.90788" lon="-8.42721">
        <ele>346.9</ele>
        <time>2016-07-20T06:38:58Z</time>
      </trkpt>
      <trkpt lat="42.9078" lon="-8.42727">
        <ele>348.4</ele>
        <time>2016-07-20T06:39:09Z</time>
      </trkpt>
      <trkpt lat="42.90772" lon="-8.42733">
        <ele>349.6</ele>
        <time>2016-07-20T06:39:19Z</time>
      </trkpt>
      <trkpt lat="42.90764" lon="-8.4274">
        <ele>350.9</ele>
        <time>2016-07-20T06:39:30Z</time>
      </trkpt>
      <trkpt lat="42.90756" lon="-8.42746">
        <ele>352</ele>
        <time>2016-07-20T06:39:41Z</time>
      </trkpt>
      <trkpt lat="42.90748" lon="-8.42752">
        <ele>352.8</ele>
        <time>2016-07-20T06:39:53Z</time>
      </trkpt>
      <trkpt lat="42.9074" lon="-8.4276">
        <ele>353.3</ele>
        <time>2016-07-20T06:40:03Z</time>
      </trkpt>
      <trkpt lat="42.90732" lon="-8.42767">
        <ele>353.6</ele>
        <time>2016-07-20T06:40:13Z</time>
      </trkpt>
      <trkpt lat="42.90723" lon="-8.42773">
        <ele>353.9</ele>
        <time>2016-07-20T06:40:21Z</time>
      </trkpt>
      <trkpt lat="42.90718" lon="-8.42784">
        <ele>354</ele>
        <time>2016-07-20T06:40:30Z</time>
      </trkpt>
      <trkpt lat="42.90711" lon="-8.42793">
        <ele>354.2</ele>
        <time>2016-07-20T06:40:40Z</time>
      </trkpt>
      <trkpt lat="42.90706" lon="-8.42804">
        <ele>354.2</ele>
        <time>2016-07-20T06:40:48Z</time>
      </trkpt>
      <trkpt lat="42.907" lon="-8.42814">
        <ele>354.1</ele>
        <time>2016-07-20T06:40:55Z</time>
      </trkpt>
      <trkpt lat="42.90695" lon="-8.42825">
        <ele>354</ele>
        <time>2016-07-20T06:41:02Z</time>
      </trkpt>
      <trkpt lat="42.90689" lon="-8.42835">
        <ele>353.2</ele>
        <time>2016-07-20T06:41:10Z</time>
      </trkpt>
      <trkpt lat="42.90684" lon="-8.42847">
        <ele>352.3</ele>
        <time>2016-07-20T06:41:18Z</time>
      </trkpt>
      <trkpt lat="42.90678" lon="-8.42857">
        <ele>351.1</ele>
        <time>2016-07-20T06:41:26Z</time>
      </trkpt>
      <trkpt lat="42.90671" lon="-8.42866">
        <ele>350.3</ele>
        <time>2016-07-20T06:41:34Z</time>
      </trkpt>
      <trkpt lat="42.90666" lon="-8.42878">
        <ele>349.4</ele>
        <time>2016-07-20T06:41:43Z</time>
      </trkpt>
      <trkpt lat="42.90662" lon="-8.42889">
        <ele>348.8</ele>
        <time>2016-07-20T06:41:51Z</time>
      </trkpt>
      <trkpt lat="42.90658" lon="-8.42901">
        <ele>347.9</ele>
        <time>2016-07-20T06:42:00Z</time>
      </trkpt>
      <trkpt lat="42.90659" lon="-8.42914">
        <ele>345.6</ele>
        <time>2016-07-20T06:42:31Z</time>
      </trkpt>
      <trkpt lat="42.90656" lon="-8.42926">
        <ele>345.2</ele>
        <time>2016-07-20T06:42:41Z</time>
      </trkpt>
      <trkpt lat="42.90651" lon="-8.42938">
        <ele>344.2</ele>
        <time>2016-07-20T06:42:51Z</time>
      </trkpt>
      <trkpt lat="42.90644" lon="-8.42948">
        <ele>343.2</ele>
        <time>2016-07-20T06:43:00Z</time>
      </trkpt>
      <trkpt lat="42.90637" lon="-8.42957">
        <ele>342.6</ele>
        <time>2016-07-20T06:43:09Z</time>
      </trkpt>
      <trkpt lat="42.90631" lon="-8.42966">
        <ele>341.9</ele>
        <time>2016-07-20T06:43:18Z</time>
      </trkpt>
      <trkpt lat="42.90623" lon="-8.42973">
        <ele>340.7</ele>
        <time>2016-07-20T06:43:35Z</time>
      </trkpt>
      <trkpt lat="42.90615" lon="-8.4298">
        <ele>340.6</ele>
        <time>2016-07-20T06:43:45Z</time>
      </trkpt>
      <trkpt lat="42.90608" lon="-8.42986">
        <ele>340.5</ele>
        <time>2016-07-20T06:43:51Z</time>
      </trkpt>
      <trkpt lat="42.906" lon="-8.42993">
        <ele>340.5</ele>
        <time>2016-07-20T06:43:58Z</time>
      </trkpt>
      <trkpt lat="42.90593" lon="-8.43001">
        <ele>340.5</ele>
        <time>2016-07-20T06:44:06Z</time>
      </trkpt>
      <trkpt lat="42.90586" lon="-8.43009">
        <ele>340.5</ele>
        <time>2016-07-20T06:44:13Z</time>
      </trkpt>
      <trkpt lat="42.90579" lon="-8.43018">
        <ele>340.8</ele>
        <time>2016-07-20T06:44:20Z</time>
      </trkpt>
      <trkpt lat="42.90573" lon="-8.43028">
        <ele>341</ele>
        <time>2016-07-20T06:44:28Z</time>
      </trkpt>
      <trkpt lat="42.90566" lon="-8.43038">
        <ele>341</ele>
        <time>2016-07-20T06:44:36Z</time>
      </trkpt>
      <trkpt lat="42.9056" lon="-8.43048">
        <ele>341.1</ele>
        <time>2016-07-20T06:44:44Z</time>
      </trkpt>
      <trkpt lat="42.90554" lon="-8.43059">
        <ele>341.9</ele>
        <time>2016-07-20T06:44:52Z</time>
      </trkpt>
      <trkpt lat="42.90549" lon="-8.43069">
        <ele>342.2</ele>
        <time>2016-07-20T06:45:00Z</time>
      </trkpt>
      <trkpt lat="42.90544" lon="-8.4308">
        <ele>342.8</ele>
        <time>2016-07-20T06:45:08Z</time>
      </trkpt>
      <trkpt lat="42.90541" lon="-8.43092">
        <ele>343</ele>
        <time>2016-07-20T06:45:16Z</time>
      </trkpt>
      <trkpt lat="42.90539" lon="-8.43105">
        <ele>343.3</ele>
        <time>2016-07-20T06:45:26Z</time>
      </trkpt>
      <trkpt lat="42.90539" lon="-8.43119">
        <ele>343.2</ele>
        <time>2016-07-20T06:45:36Z</time>
      </trkpt>
      <trkpt lat="42.90538" lon="-8.43131">
        <ele>343</ele>
        <time>2016-07-20T06:45:44Z</time>
      </trkpt>
      <trkpt lat="42.90538" lon="-8.43145">
        <ele>342.8</ele>
        <time>2016-07-20T06:45:53Z</time>
      </trkpt>
      <trkpt lat="42.90535" lon="-8.43157">
        <ele>342.3</ele>
        <time>2016-07-20T06:46:03Z</time>
      </trkpt>
      <trkpt lat="42.9053" lon="-8.43168">
        <ele>342.1</ele>
        <time>2016-07-20T06:46:10Z</time>
      </trkpt>
      <trkpt lat="42.90526" lon="-8.43179">
        <ele>341.6</ele>
        <time>2016-07-20T06:46:18Z</time>
      </trkpt>
      <trkpt lat="42.90522" lon="-8.43191">
        <ele>340.7</ele>
        <time>2016-07-20T06:46:27Z</time>
      </trkpt>
      <trkpt lat="42.90516" lon="-8.43201">
        <ele>339.3</ele>
        <time>2016-07-20T06:46:37Z</time>
      </trkpt>
      <trkpt lat="42.90511" lon="-8.43212">
        <ele>338.1</ele>
        <time>2016-07-20T06:46:47Z</time>
      </trkpt>
      <trkpt lat="42.90507" lon="-8.43223">
        <ele>336.3</ele>
        <time>2016-07-20T06:47:07Z</time>
      </trkpt>
      <trkpt lat="42.90502" lon="-8.43233">
        <ele>335.3</ele>
        <time>2016-07-20T06:47:15Z</time>
      </trkpt>
      <trkpt lat="42.90496" lon="-8.43243">
        <ele>334.7</ele>
        <time>2016-07-20T06:47:24Z</time>
      </trkpt>
      <trkpt lat="42.90489" lon="-8.43253">
        <ele>334.3</ele>
        <time>2016-07-20T06:47:32Z</time>
      </trkpt>
      <trkpt lat="42.90482" lon="-8.43261">
        <ele>333.8</ele>
        <time>2016-07-20T06:47:40Z</time>
      </trkpt>
      <trkpt lat="42.90474" lon="-8.43271">
        <ele>333.6</ele>
        <time>2016-07-20T06:47:49Z</time>
      </trkpt>
      <trkpt lat="42.90467" lon="-8.43281">
        <ele>333.4</ele>
        <time>2016-07-20T06:47:57Z</time>
      </trkpt>
      <trkpt lat="42.90461" lon="-8.4329">
        <ele>333.2</ele>
        <time>2016-07-20T06:48:06Z</time>
      </trkpt>
      <trkpt lat="42.90455" lon="-8.43301">
        <ele>333</ele>
        <time>2016-07-20T06:48:16Z</time>
      </trkpt>
      <trkpt lat="42.90451" lon="-8.43313">
        <ele>332.7</ele>
        <time>2016-07-20T06:48:26Z</time>
      </trkpt>
      <trkpt lat="42.90447" lon="-8.43324">
        <ele>332.5</ele>
        <time>2016-07-20T06:48:34Z</time>
      </trkpt>
      <trkpt lat="42.90444" lon="-8.43337">
        <ele>332</ele>
        <time>2016-07-20T06:48:43Z</time>
      </trkpt>
      <trkpt lat="42.90439" lon="-8.43349">
        <ele>331.6</ele>
        <time>2016-07-20T06:48:51Z</time>
      </trkpt>
      <trkpt lat="42.90435" lon="-8.4336">
        <ele>331.4</ele>
        <time>2016-07-20T06:48:58Z</time>
      </trkpt>
      <trkpt lat="42.90432" lon="-8.43372">
        <ele>331.2</ele>
        <time>2016-07-20T06:49:06Z</time>
      </trkpt>
      <trkpt lat="42.90429" lon="-8.43384">
        <ele>331.3</ele>
        <time>2016-07-20T06:49:16Z</time>
      </trkpt>
      <trkpt lat="42.90426" lon="-8.43397">
        <ele>331.3</ele>
        <time>2016-07-20T06:49:25Z</time>
      </trkpt>
      <trkpt lat="42.90423" lon="-8.43409">
        <ele>331.2</ele>
        <time>2016-07-20T06:49:33Z</time>
      </trkpt>
      <trkpt lat="42.90421" lon="-8.43421">
        <ele>331.1</ele>
        <time>2016-07-20T06:49:41Z</time>
      </trkpt>
      <trkpt lat="42.90419" lon="-8.43434">
        <ele>331</ele>
        <time>2016-07-20T06:49:50Z</time>
      </trkpt>
      <trkpt lat="42.90414" lon="-8.43445">
        <ele>330.8</ele>
        <time>2016-07-20T06:49:58Z</time>
      </trkpt>
      <trkpt lat="42.90411" lon="-8.43457">
        <ele>330.8</ele>
        <time>2016-07-20T06:50:09Z</time>
      </trkpt>
      <trkpt lat="42.90413" lon="-8.43469">
        <ele>330.6</ele>
        <time>2016-07-20T06:50:19Z</time>
      </trkpt>
      <trkpt lat="42.90413" lon="-8.43482">
        <ele>330.2</ele>
        <time>2016-07-20T06:50:27Z</time>
      </trkpt>
      <trkpt lat="42.90414" lon="-8.43496">
        <ele>329.9</ele>
        <time>2016-07-20T06:50:35Z</time>
      </trkpt>
      <trkpt lat="42.90411" lon="-8.43508">
        <ele>329.9</ele>
        <time>2016-07-20T06:50:43Z</time>
      </trkpt>
      <trkpt lat="42.90405" lon="-8.43519">
        <ele>329.5</ele>
        <time>2016-07-20T06:50:51Z</time>
      </trkpt>
      <trkpt lat="42.90399" lon="-8.43528">
        <ele>329.3</ele>
        <time>2016-07-20T06:51:00Z</time>
      </trkpt>
      <trkpt lat="42.90392" lon="-8.43537">
        <ele>328.9</ele>
        <time>2016-07-20T06:51:14Z</time>
      </trkpt>
      <trkpt lat="42.90386" lon="-8.43546">
        <ele>328.7</ele>
        <time>2016-07-20T06:51:25Z</time>
      </trkpt>
      <trkpt lat="42.90379" lon="-8.43554">
        <ele>327.9</ele>
        <time>2016-07-20T06:51:35Z</time>
      </trkpt>
      <trkpt lat="42.90372" lon="-8.43563">
        <ele>327.6</ele>
        <time>2016-07-20T06:51:44Z</time>
      </trkpt>
      <trkpt lat="42.90366" lon="-8.43572">
        <ele>327.4</ele>
        <time>2016-07-20T06:51:53Z</time>
      </trkpt>
      <trkpt lat="42.90357" lon="-8.43579">
        <ele>326.9</ele>
        <time>2016-07-20T06:52:03Z</time>
      </trkpt>
      <trkpt lat="42.90351" lon="-8.43589">
        <ele>326.5</ele>
        <time>2016-07-20T06:52:11Z</time>
      </trkpt>
      <trkpt lat="42.90344" lon="-8.43599">
        <ele>326.4</ele>
        <time>2016-07-20T06:52:18Z</time>
      </trkpt>
      <trkpt lat="42.90338" lon="-8.43609">
        <ele>326</ele>
        <time>2016-07-20T06:52:27Z</time>
      </trkpt>
      <trkpt lat="42.90331" lon="-8.43619">
        <ele>325.8</ele>
        <time>2016-07-20T06:52:35Z</time>
      </trkpt>
      <trkpt lat="42.90325" lon="-8.43629">
        <ele>325.6</ele>
        <time>2016-07-20T06:52:43Z</time>
      </trkpt>
      <trkpt lat="42.90318" lon="-8.43639">
        <ele>325.4</ele>
        <time>2016-07-20T06:52:52Z</time>
      </trkpt>
      <trkpt lat="42.90313" lon="-8.43649">
        <ele>325</ele>
        <time>2016-07-20T06:53:01Z</time>
      </trkpt>
      <trkpt lat="42.90307" lon="-8.43659">
        <ele>324.6</ele>
        <time>2016-07-20T06:53:10Z</time>
      </trkpt>
      <trkpt lat="42.90301" lon="-8.43669">
        <ele>324.2</ele>
        <time>2016-07-20T06:53:18Z</time>
      </trkpt>
      <trkpt lat="42.90294" lon="-8.43677">
        <ele>323.9</ele>
        <time>2016-07-20T06:53:28Z</time>
      </trkpt>
      <trkpt lat="42.90288" lon="-8.43688">
        <ele>323.8</ele>
        <time>2016-07-20T06:53:37Z</time>
      </trkpt>
      <trkpt lat="42.90282" lon="-8.43698">
        <ele>323.7</ele>
        <time>2016-07-20T06:53:52Z</time>
      </trkpt>
      <trkpt lat="42.90276" lon="-8.43709">
        <ele>323.6</ele>
        <time>2016-07-20T06:54:01Z</time>
      </trkpt>
      <trkpt lat="42.9027" lon="-8.43719">
        <ele>322.7</ele>
        <time>2016-07-20T06:54:11Z</time>
      </trkpt>
      <trkpt lat="42.90264" lon="-8.43729">
        <ele>322</ele>
        <time>2016-07-20T06:54:19Z</time>
      </trkpt>
      <trkpt lat="42.90258" lon="-8.43738">
        <ele>321.4</ele>
        <time>2016-07-20T06:54:26Z</time>
      </trkpt>
      <trkpt lat="42.90251" lon="-8.43747">
        <ele>321.2</ele>
        <time>2016-07-20T06:54:34Z</time>
      </trkpt>
      <trkpt lat="42.90244" lon="-8.43756">
        <ele>320.9</ele>
        <time>2016-07-20T06:54:43Z</time>
      </trkpt>
      <trkpt lat="42.90238" lon="-8.43766">
        <ele>320.8</ele>
        <time>2016-07-20T06:54:53Z</time>
      </trkpt>
      <trkpt lat="42.90232" lon="-8.43776">
        <ele>320.5</ele>
        <time>2016-07-20T06:55:01Z</time>
      </trkpt>
      <trkpt lat="42.90226" lon="-8.43787">
        <ele>320.2</ele>
        <time>2016-07-20T06:55:09Z</time>
      </trkpt>
      <trkpt lat="42.90221" lon="-8.43798">
        <ele>320</ele>
        <time>2016-07-20T06:55:17Z</time>
      </trkpt>
      <trkpt lat="42.90215" lon="-8.43806">
        <ele>319.9</ele>
        <time>2016-07-20T06:55:25Z</time>
      </trkpt>
      <trkpt lat="42.90208" lon="-8.43816">
        <ele>319.8</ele>
        <time>2016-07-20T06:55:33Z</time>
      </trkpt>
      <trkpt lat="42.90202" lon="-8.43825">
        <ele>319.7</ele>
        <time>2016-07-20T06:55:41Z</time>
      </trkpt>
      <trkpt lat="42.90199" lon="-8.43838">
        <ele>319.2</ele>
        <time>2016-07-20T06:55:53Z</time>
      </trkpt>
      <trkpt lat="42.90195" lon="-8.4385">
        <ele>319</ele>
        <time>2016-07-20T06:56:02Z</time>
      </trkpt>
      <trkpt lat="42.90193" lon="-8.43862">
        <ele>318.9</ele>
        <time>2016-07-20T06:56:10Z</time>
      </trkpt>
      <trkpt lat="42.90192" lon="-8.43876">
        <ele>319</ele>
        <time>2016-07-20T06:56:19Z</time>
      </trkpt>
      <trkpt lat="42.90189" lon="-8.43888">
        <ele>318.8</ele>
        <time>2016-07-20T06:56:27Z</time>
      </trkpt>
      <trkpt lat="42.90188" lon="-8.439">
        <ele>318.7</ele>
        <time>2016-07-20T06:56:35Z</time>
      </trkpt>
      <trkpt lat="42.90189" lon="-8.43913">
        <ele>318.9</ele>
        <time>2016-07-20T06:56:45Z</time>
      </trkpt>
      <trkpt lat="42.90189" lon="-8.43926">
        <ele>318.5</ele>
        <time>2016-07-20T06:56:55Z</time>
      </trkpt>
      <trkpt lat="42.90188" lon="-8.43938">
        <ele>318.5</ele>
        <time>2016-07-20T06:57:03Z</time>
      </trkpt>
      <trkpt lat="42.90186" lon="-8.43951">
        <ele>318.3</ele>
        <time>2016-07-20T06:57:11Z</time>
      </trkpt>
      <trkpt lat="42.90185" lon="-8.43964">
        <ele>317.7</ele>
        <time>2016-07-20T06:57:20Z</time>
      </trkpt>
      <trkpt lat="42.90182" lon="-8.43976">
        <ele>317.5</ele>
        <time>2016-07-20T06:57:29Z</time>
      </trkpt>
      <trkpt lat="42.9018" lon="-8.4399">
        <ele>317.7</ele>
        <time>2016-07-20T06:57:38Z</time>
      </trkpt>
      <trkpt lat="42.90178" lon="-8.44002">
        <ele>317.9</ele>
        <time>2016-07-20T06:57:47Z</time>
      </trkpt>
      <trkpt lat="42.90178" lon="-8.44015">
        <ele>317.8</ele>
        <time>2016-07-20T06:57:58Z</time>
      </trkpt>
      <trkpt lat="42.90177" lon="-8.44027">
        <ele>317.7</ele>
        <time>2016-07-20T06:58:07Z</time>
      </trkpt>
      <trkpt lat="42.90176" lon="-8.44041">
        <ele>317.6</ele>
        <time>2016-07-20T06:58:16Z</time>
      </trkpt>
      <trkpt lat="42.90174" lon="-8.44054">
        <ele>317.5</ele>
        <time>2016-07-20T06:58:25Z</time>
      </trkpt>
      <trkpt lat="42.90173" lon="-8.44067">
        <ele>317.4</ele>
        <time>2016-07-20T06:58:34Z</time>
      </trkpt>
      <trkpt lat="42.90172" lon="-8.44081">
        <ele>317.4</ele>
        <time>2016-07-20T06:58:45Z</time>
      </trkpt>
      <trkpt lat="42.90171" lon="-8.44093">
        <ele>316.8</ele>
        <time>2016-07-20T06:58:55Z</time>
      </trkpt>
      <trkpt lat="42.90172" lon="-8.44106">
        <ele>316.5</ele>
        <time>2016-07-20T06:59:05Z</time>
      </trkpt>
      <trkpt lat="42.90171" lon="-8.44119">
        <ele>315.9</ele>
        <time>2016-07-20T06:59:13Z</time>
      </trkpt>
      <trkpt lat="42.90168" lon="-8.44131">
        <ele>315.6</ele>
        <time>2016-07-20T06:59:20Z</time>
      </trkpt>
      <trkpt lat="42.90166" lon="-8.44143">
        <ele>314.8</ele>
        <time>2016-07-20T06:59:27Z</time>
      </trkpt>
      <trkpt lat="42.90163" lon="-8.44156">
        <ele>314.2</ele>
        <time>2016-07-20T06:59:34Z</time>
      </trkpt>
      <trkpt lat="42.90161" lon="-8.44169">
        <ele>313.2</ele>
        <time>2016-07-20T06:59:43Z</time>
      </trkpt>
      <trkpt lat="42.90159" lon="-8.44182">
        <ele>312.7</ele>
        <time>2016-07-20T06:59:51Z</time>
      </trkpt>
      <trkpt lat="42.90158" lon="-8.44196">
        <ele>312</ele>
        <time>2016-07-20T06:59:59Z</time>
      </trkpt>
      <trkpt lat="42.90157" lon="-8.44209">
        <ele>311.2</ele>
        <time>2016-07-20T07:00:08Z</time>
      </trkpt>
      <trkpt lat="42.90155" lon="-8.44222">
        <ele>310.2</ele>
        <time>2016-07-20T07:00:18Z</time>
      </trkpt>
      <trkpt lat="42.90153" lon="-8.44235">
        <ele>309.4</ele>
        <time>2016-07-20T07:00:28Z</time>
      </trkpt>
      <trkpt lat="42.90149" lon="-8.44248">
        <ele>308.7</ele>
        <time>2016-07-20T07:00:37Z</time>
      </trkpt>
      <trkpt lat="42.90152" lon="-8.44261">
        <ele>307.1</ele>
        <time>2016-07-20T07:00:53Z</time>
      </trkpt>
      <trkpt lat="42.90146" lon="-8.44272">
        <ele>306.7</ele>
        <time>2016-07-20T07:01:03Z</time>
      </trkpt>
      <trkpt lat="42.9014" lon="-8.44281">
        <ele>306.3</ele>
        <time>2016-07-20T07:01:13Z</time>
      </trkpt>
      <trkpt lat="42.90133" lon="-8.4429">
        <ele>306</ele>
        <time>2016-07-20T07:01:21Z</time>
      </trkpt>
      <trkpt lat="42.90127" lon="-8.443">
        <ele>305.8</ele>
        <time>2016-07-20T07:01:30Z</time>
      </trkpt>
      <trkpt lat="42.90122" lon="-8.44312">
        <ele>305.6</ele>
        <time>2016-07-20T07:01:41Z</time>
      </trkpt>
      <trkpt lat="42.90117" lon="-8.44322">
        <ele>305.4</ele>
        <time>2016-07-20T07:01:50Z</time>
      </trkpt>
      <trkpt lat="42.90113" lon="-8.44333">
        <ele>305.5</ele>
        <time>2016-07-20T07:01:59Z</time>
      </trkpt>
      <trkpt lat="42.90108" lon="-8.44345">
        <ele>305.6</ele>
        <time>2016-07-20T07:02:08Z</time>
      </trkpt>
      <trkpt lat="42.90103" lon="-8.44356">
        <ele>305.6</ele>
        <time>2016-07-20T07:02:17Z</time>
      </trkpt>
      <trkpt lat="42.90098" lon="-8.44368">
        <ele>305.9</ele>
        <time>2016-07-20T07:02:26Z</time>
      </trkpt>
      <trkpt lat="42.90094" lon="-8.44381">
        <ele>305.9</ele>
        <time>2016-07-20T07:02:35Z</time>
      </trkpt>
      <trkpt lat="42.90091" lon="-8.44393">
        <ele>305.7</ele>
        <time>2016-07-20T07:02:45Z</time>
      </trkpt>
      <trkpt lat="42.90087" lon="-8.44406">
        <ele>305.2</ele>
        <time>2016-07-20T07:02:55Z</time>
      </trkpt>
      <trkpt lat="42.90084" lon="-8.44419">
        <ele>305.2</ele>
        <time>2016-07-20T07:03:04Z</time>
      </trkpt>
      <trkpt lat="42.90081" lon="-8.44431">
        <ele>305.2</ele>
        <time>2016-07-20T07:03:13Z</time>
      </trkpt>
      <trkpt lat="42.90078" lon="-8.44443">
        <ele>305.3</ele>
        <time>2016-07-20T07:03:22Z</time>
      </trkpt>
      <trkpt lat="42.90077" lon="-8.44457">
        <ele>305.1</ele>
        <time>2016-07-20T07:03:32Z</time>
      </trkpt>
      <trkpt lat="42.90074" lon="-8.44469">
        <ele>305.2</ele>
        <time>2016-07-20T07:03:40Z</time>
      </trkpt>
      <trkpt lat="42.90072" lon="-8.44482">
        <ele>305.4</ele>
        <time>2016-07-20T07:03:49Z</time>
      </trkpt>
      <trkpt lat="42.9007" lon="-8.44495">
        <ele>304.9</ele>
        <time>2016-07-20T07:03:58Z</time>
      </trkpt>
      <trkpt lat="42.90066" lon="-8.44507">
        <ele>304.6</ele>
        <time>2016-07-20T07:04:06Z</time>
      </trkpt>
      <trkpt lat="42.90063" lon="-8.4452">
        <ele>304.5</ele>
        <time>2016-07-20T07:04:14Z</time>
      </trkpt>
      <trkpt lat="42.90062" lon="-8.44532">
        <ele>304.6</ele>
        <time>2016-07-20T07:04:22Z</time>
      </trkpt>
      <trkpt lat="42.9006" lon="-8.44545">
        <ele>304.7</ele>
        <time>2016-07-20T07:04:30Z</time>
      </trkpt>
      <trkpt lat="42.90059" lon="-8.44557">
        <ele>304.9</ele>
        <time>2016-07-20T07:04:38Z</time>
      </trkpt>
      <trkpt lat="42.90057" lon="-8.4457">
        <ele>305</ele>
        <time>2016-07-20T07:04:46Z</time>
      </trkpt>
      <trkpt lat="42.90054" lon="-8.44582">
        <ele>305.1</ele>
        <time>2016-07-20T07:04:54Z</time>
      </trkpt>
      <trkpt lat="42.90051" lon="-8.44593">
        <ele>305.3</ele>
        <time>2016-07-20T07:05:02Z</time>
      </trkpt>
      <trkpt lat="42.90049" lon="-8.44605">
        <ele>305.3</ele>
        <time>2016-07-20T07:05:10Z</time>
      </trkpt>
      <trkpt lat="42.90046" lon="-8.44618">
        <ele>305.1</ele>
        <time>2016-07-20T07:05:19Z</time>
      </trkpt>
      <trkpt lat="42.90043" lon="-8.4463">
        <ele>305</ele>
        <time>2016-07-20T07:05:31Z</time>
      </trkpt>
      <trkpt lat="42.9004" lon="-8.44641">
        <ele>304.4</ele>
        <time>2016-07-20T07:05:40Z</time>
      </trkpt>
      <trkpt lat="42.90038" lon="-8.44653">
        <ele>303.4</ele>
        <time>2016-07-20T07:05:52Z</time>
      </trkpt>
      <trkpt lat="42.90033" lon="-8.44664">
        <ele>302.7</ele>
        <time>2016-07-20T07:06:01Z</time>
      </trkpt>
      <trkpt lat="42.90027" lon="-8.44673">
        <ele>302.5</ele>
        <time>2016-07-20T07:06:09Z</time>
      </trkpt>
      <trkpt lat="42.90019" lon="-8.44681">
        <ele>302.1</ele>
        <time>2016-07-20T07:06:17Z</time>
      </trkpt>
      <trkpt lat="42.9001" lon="-8.44686">
        <ele>301.3</ele>
        <time>2016-07-20T07:06:27Z</time>
      </trkpt>
      <trkpt lat="42.90001" lon="-8.44685">
        <ele>300.4</ele>
        <time>2016-07-20T07:06:38Z</time>
      </trkpt>
      <trkpt lat="42.89992" lon="-8.4468">
        <ele>300</ele>
        <time>2016-07-20T07:06:47Z</time>
      </trkpt>
      <trkpt lat="42.89985" lon="-8.44671">
        <ele>299.7</ele>
        <time>2016-07-20T07:06:55Z</time>
      </trkpt>
      <trkpt lat="42.89983" lon="-8.44659">
        <ele>300</ele>
        <time>2016-07-20T07:07:13Z</time>
      </trkpt>
      <trkpt lat="42.89982" lon="-8.44646">
        <ele>303.3</ele>
        <time>2016-07-20T07:08:25Z</time>
      </trkpt>
      <trkpt lat="42.89976" lon="-8.44655">
        <ele>303.6</ele>
        <time>2016-07-20T07:09:14Z</time>
      </trkpt>
      <trkpt lat="42.89967" lon="-8.4466">
        <ele>301.9</ele>
        <time>2016-07-20T07:10:25Z</time>
      </trkpt>
      <trkpt lat="42.89958" lon="-8.44655">
        <ele>301.5</ele>
        <time>2016-07-20T07:10:39Z</time>
      </trkpt>
      <trkpt lat="42.89952" lon="-8.44646">
        <ele>301.3</ele>
        <time>2016-07-20T07:10:49Z</time>
      </trkpt>
      <trkpt lat="42.89951" lon="-8.44633">
        <ele>301.4</ele>
        <time>2016-07-20T07:10:58Z</time>
      </trkpt>
      <trkpt lat="42.89949" lon="-8.44621">
        <ele>301.4</ele>
        <time>2016-07-20T07:11:06Z</time>
      </trkpt>
      <trkpt lat="42.89946" lon="-8.44609">
        <ele>301.6</ele>
        <time>2016-07-20T07:11:15Z</time>
      </trkpt>
      <trkpt lat="42.89943" lon="-8.44597">
        <ele>302.1</ele>
        <time>2016-07-20T07:11:24Z</time>
      </trkpt>
      <trkpt lat="42.89941" lon="-8.44583">
        <ele>302.3</ele>
        <time>2016-07-20T07:11:33Z</time>
      </trkpt>
      <trkpt lat="42.89939" lon="-8.4457">
        <ele>302.7</ele>
        <time>2016-07-20T07:11:42Z</time>
      </trkpt>
      <trkpt lat="42.8994" lon="-8.44557">
        <ele>302.9</ele>
        <time>2016-07-20T07:11:50Z</time>
      </trkpt>
      <trkpt lat="42.89939" lon="-8.44544">
        <ele>303.1</ele>
        <time>2016-07-20T07:11:58Z</time>
      </trkpt>
      <trkpt lat="42.89937" lon="-8.44531">
        <ele>303.3</ele>
        <time>2016-07-20T07:12:07Z</time>
      </trkpt>
      <trkpt lat="42.89934" lon="-8.44518">
        <ele>303.1</ele>
        <time>2016-07-20T07:12:18Z</time>
      </trkpt>
      <trkpt lat="42.8993" lon="-8.44507">
        <ele>302.6</ele>
        <time>2016-07-20T07:12:27Z</time>
      </trkpt>
      <trkpt lat="42.89928" lon="-8.44493">
        <ele>302.6</ele>
        <time>2016-07-20T07:12:37Z</time>
      </trkpt>
      <trkpt lat="42.89926" lon="-8.44481">
        <ele>302.4</ele>
        <time>2016-07-20T07:12:45Z</time>
      </trkpt>
      <trkpt lat="42.8992" lon="-8.44471">
        <ele>302.5</ele>
        <time>2016-07-20T07:12:55Z</time>
      </trkpt>
      <trkpt lat="42.89911" lon="-8.4447">
        <ele>302.9</ele>
        <time>2016-07-20T07:13:03Z</time>
      </trkpt>
      <trkpt lat="42.89901" lon="-8.44467">
        <ele>302.6</ele>
        <time>2016-07-20T07:13:12Z</time>
      </trkpt>
      <trkpt lat="42.89892" lon="-8.44463">
        <ele>302.2</ele>
        <time>2016-07-20T07:13:20Z</time>
      </trkpt>
      <trkpt lat="42.89883" lon="-8.44462">
        <ele>300.9</ele>
        <time>2016-07-20T07:13:40Z</time>
      </trkpt>
      <trkpt lat="42.89875" lon="-8.44456">
        <ele>300.5</ele>
        <time>2016-07-20T07:13:51Z</time>
      </trkpt>
      <trkpt lat="42.89865" lon="-8.44452">
        <ele>299.6</ele>
        <time>2016-07-20T07:13:59Z</time>
      </trkpt>
      <trkpt lat="42.89857" lon="-8.44447">
        <ele>299.2</ele>
        <time>2016-07-20T07:14:08Z</time>
      </trkpt>
      <trkpt lat="42.89851" lon="-8.44437">
        <ele>298.8</ele>
        <time>2016-07-20T07:14:17Z</time>
      </trkpt>
      <trkpt lat="42.89844" lon="-8.44428">
        <ele>298.5</ele>
        <time>2016-07-20T07:14:24Z</time>
      </trkpt>
      <trkpt lat="42.89836" lon="-8.44434">
        <ele>296.8</ele>
        <time>2016-07-20T07:14:46Z</time>
      </trkpt>
      <trkpt lat="42.89829" lon="-8.44443">
        <ele>296.8</ele>
        <time>2016-07-20T07:14:58Z</time>
      </trkpt>
      <trkpt lat="42.89822" lon="-8.44451">
        <ele>296.8</ele>
        <time>2016-07-20T07:15:06Z</time>
      </trkpt>
      <trkpt lat="42.89819" lon="-8.44463">
        <ele>296.8</ele>
        <time>2016-07-20T07:15:13Z</time>
      </trkpt>
      <trkpt lat="42.89817" lon="-8.44477">
        <ele>296.7</ele>
        <time>2016-07-20T07:15:21Z</time>
      </trkpt>
      <trkpt lat="42.89813" lon="-8.4449">
        <ele>296.4</ele>
        <time>2016-07-20T07:15:29Z</time>
      </trkpt>
      <trkpt lat="42.89809" lon="-8.44502">
        <ele>296.2</ele>
        <time>2016-07-20T07:15:38Z</time>
      </trkpt>
      <trkpt lat="42.89802" lon="-8.44511">
        <ele>296.3</ele>
        <time>2016-07-20T07:15:48Z</time>
      </trkpt>
      <trkpt lat="42.89796" lon="-8.4452">
        <ele>297</ele>
        <time>2016-07-20T07:15:59Z</time>
      </trkpt>
      <trkpt lat="42.8979" lon="-8.4453">
        <ele>297.4</ele>
        <time>2016-07-20T07:16:10Z</time>
      </trkpt>
      <trkpt lat="42.89785" lon="-8.44541">
        <ele>298</ele>
        <time>2016-07-20T07:16:20Z</time>
      </trkpt>
      <trkpt lat="42.89779" lon="-8.44551">
        <ele>298.6</ele>
        <time>2016-07-20T07:16:30Z</time>
      </trkpt>
      <trkpt lat="42.89775" lon="-8.44562">
        <ele>299</ele>
        <time>2016-07-20T07:16:41Z</time>
      </trkpt>
      <trkpt lat="42.89769" lon="-8.44571">
        <ele>299.7</ele>
        <time>2016-07-20T07:16:50Z</time>
      </trkpt>
      <trkpt lat="42.89763" lon="-8.44581">
        <ele>301.2</ele>
        <time>2016-07-20T07:17:00Z</time>
      </trkpt>
      <trkpt lat="42.89757" lon="-8.44591">
        <ele>302.5</ele>
        <time>2016-07-20T07:17:13Z</time>
      </trkpt>
      <trkpt lat="42.89753" lon="-8.44603">
        <ele>303.6</ele>
        <time>2016-07-20T07:17:25Z</time>
      </trkpt>
      <trkpt lat="42.89749" lon="-8.44615">
        <ele>304.5</ele>
        <time>2016-07-20T07:17:34Z</time>
      </trkpt>
      <trkpt lat="42.89745" lon="-8.44626">
        <ele>305.6</ele>
        <time>2016-07-20T07:17:43Z</time>
      </trkpt>
      <trkpt lat="42.89741" lon="-8.44638">
        <ele>306.7</ele>
        <time>2016-07-20T07:17:52Z</time>
      </trkpt>
      <trkpt lat="42.89737" lon="-8.4465">
        <ele>307.6</ele>
        <time>2016-07-20T07:18:01Z</time>
      </trkpt>
      <trkpt lat="42.89733" lon="-8.44662">
        <ele>308.5</ele>
        <time>2016-07-20T07:18:12Z</time>
      </trkpt>
      <trkpt lat="42.89729" lon="-8.44673">
        <ele>309.2</ele>
        <time>2016-07-20T07:18:22Z</time>
      </trkpt>
      <trkpt lat="42.89728" lon="-8.44686">
        <ele>310.7</ele>
        <time>2016-07-20T07:18:36Z</time>
      </trkpt>
      <trkpt lat="42.89727" lon="-8.44698">
        <ele>311.8</ele>
        <time>2016-07-20T07:18:46Z</time>
      </trkpt>
      <trkpt lat="42.89725" lon="-8.44712">
        <ele>312.8</ele>
        <time>2016-07-20T07:18:56Z</time>
      </trkpt>
      <trkpt lat="42.89725" lon="-8.44724">
        <ele>314.4</ele>
        <time>2016-07-20T07:19:06Z</time>
      </trkpt>
      <trkpt lat="42.89719" lon="-8.44734">
        <ele>316</ele>
        <time>2016-07-20T07:19:16Z</time>
      </trkpt>
      <trkpt lat="42.89714" lon="-8.44744">
        <ele>318.1</ele>
        <time>2016-07-20T07:19:28Z</time>
      </trkpt>
      <trkpt lat="42.89705" lon="-8.44749">
        <ele>320.2</ele>
        <time>2016-07-20T07:19:42Z</time>
      </trkpt>
      <trkpt lat="42.89696" lon="-8.4475">
        <ele>321.5</ele>
        <time>2016-07-20T07:19:55Z</time>
      </trkpt>
      <trkpt lat="42.89687" lon="-8.44752">
        <ele>322.8</ele>
        <time>2016-07-20T07:20:07Z</time>
      </trkpt>
      <trkpt lat="42.89678" lon="-8.44753">
        <ele>323.8</ele>
        <time>2016-07-20T07:20:17Z</time>
      </trkpt>
      <trkpt lat="42.89668" lon="-8.44752">
        <ele>324.9</ele>
        <time>2016-07-20T07:20:26Z</time>
      </trkpt>
      <trkpt lat="42.89658" lon="-8.44752">
        <ele>325.4</ele>
        <time>2016-07-20T07:20:34Z</time>
      </trkpt>
      <trkpt lat="42.89648" lon="-8.4475">
        <ele>326</ele>
        <time>2016-07-20T07:20:42Z</time>
      </trkpt>
      <trkpt lat="42.89639" lon="-8.44748">
        <ele>326.3</ele>
        <time>2016-07-20T07:20:50Z</time>
      </trkpt>
      <trkpt lat="42.89629" lon="-8.44747">
        <ele>326.5</ele>
        <time>2016-07-20T07:21:03Z</time>
      </trkpt>
      <trkpt lat="42.8962" lon="-8.44748">
        <ele>325.9</ele>
        <time>2016-07-20T07:21:14Z</time>
      </trkpt>
      <trkpt lat="42.8961" lon="-8.4475">
        <ele>325.7</ele>
        <time>2016-07-20T07:21:24Z</time>
      </trkpt>
      <trkpt lat="42.89601" lon="-8.44753">
        <ele>325.7</ele>
        <time>2016-07-20T07:21:31Z</time>
      </trkpt>
      <trkpt lat="42.89591" lon="-8.44757">
        <ele>325.6</ele>
        <time>2016-07-20T07:21:40Z</time>
      </trkpt>
      <trkpt lat="42.89582" lon="-8.44762">
        <ele>325.2</ele>
        <time>2016-07-20T07:21:49Z</time>
      </trkpt>
      <trkpt lat="42.89574" lon="-8.44769">
        <ele>325.1</ele>
        <time>2016-07-20T07:21:59Z</time>
      </trkpt>
      <trkpt lat="42.89565" lon="-8.44772">
        <ele>324.8</ele>
        <time>2016-07-20T07:22:10Z</time>
      </trkpt>
      <trkpt lat="42.89555" lon="-8.44772">
        <ele>324.7</ele>
        <time>2016-07-20T07:22:20Z</time>
      </trkpt>
      <trkpt lat="42.89546" lon="-8.44774">
        <ele>325</ele>
        <time>2016-07-20T07:22:30Z</time>
      </trkpt>
      <trkpt lat="42.89537" lon="-8.44774">
        <ele>325</ele>
        <time>2016-07-20T07:22:38Z</time>
      </trkpt>
      <trkpt lat="42.89527" lon="-8.44771">
        <ele>325.5</ele>
        <time>2016-07-20T07:22:48Z</time>
      </trkpt>
      <trkpt lat="42.89518" lon="-8.44768">
        <ele>326.1</ele>
        <time>2016-07-20T07:22:58Z</time>
      </trkpt>
      <trkpt lat="42.89511" lon="-8.4476">
        <ele>326.7</ele>
        <time>2016-07-20T07:23:09Z</time>
      </trkpt>
      <trkpt lat="42.89503" lon="-8.44751">
        <ele>327.5</ele>
        <time>2016-07-20T07:23:21Z</time>
      </trkpt>
      <trkpt lat="42.89497" lon="-8.44742">
        <ele>328.2</ele>
        <time>2016-07-20T07:23:32Z</time>
      </trkpt>
      <trkpt lat="42.89491" lon="-8.44732">
        <ele>329.4</ele>
        <time>2016-07-20T07:23:42Z</time>
      </trkpt>
      <trkpt lat="42.89485" lon="-8.44722">
        <ele>330.9</ele>
        <time>2016-07-20T07:23:53Z</time>
      </trkpt>
      <trkpt lat="42.89478" lon="-8.44714">
        <ele>332.5</ele>
        <time>2016-07-20T07:24:08Z</time>
      </trkpt>
      <trkpt lat="42.89468" lon="-8.44713">
        <ele>333.1</ele>
        <time>2016-07-20T07:24:18Z</time>
      </trkpt>
      <trkpt lat="42.89459" lon="-8.44715">
        <ele>333.6</ele>
        <time>2016-07-20T07:24:28Z</time>
      </trkpt>
      <trkpt lat="42.8945" lon="-8.44717">
        <ele>333.9</ele>
        <time>2016-07-20T07:24:36Z</time>
      </trkpt>
      <trkpt lat="42.8944" lon="-8.4472">
        <ele>334.6</ele>
        <time>2016-07-20T07:24:46Z</time>
      </trkpt>
      <trkpt lat="42.89432" lon="-8.44725">
        <ele>335.9</ele>
        <time>2016-07-20T07:24:57Z</time>
      </trkpt>
      <trkpt lat="42.89425" lon="-8.44733">
        <ele>336.4</ele>
        <time>2016-07-20T07:25:06Z</time>
      </trkpt>
      <trkpt lat="42.89418" lon="-8.44742">
        <ele>337.8</ele>
        <time>2016-07-20T07:25:16Z</time>
      </trkpt>
      <trkpt lat="42.89413" lon="-8.44753">
        <ele>339.3</ele>
        <time>2016-07-20T07:25:26Z</time>
      </trkpt>
      <trkpt lat="42.89406" lon="-8.44762">
        <ele>340.6</ele>
        <time>2016-07-20T07:25:36Z</time>
      </trkpt>
      <trkpt lat="42.89399" lon="-8.4477">
        <ele>341.6</ele>
        <time>2016-07-20T07:25:46Z</time>
      </trkpt>
      <trkpt lat="42.8939" lon="-8.44776">
        <ele>342.9</ele>
        <time>2016-07-20T07:25:56Z</time>
      </trkpt>
      <trkpt lat="42.89383" lon="-8.44783">
        <ele>344.1</ele>
        <time>2016-07-20T07:26:08Z</time>
      </trkpt>
      <trkpt lat="42.89374" lon="-8.44787">
        <ele>345.3</ele>
        <time>2016-07-20T07:26:18Z</time>
      </trkpt>
      <trkpt lat="42.89365" lon="-8.44792">
        <ele>346.6</ele>
        <time>2016-07-20T07:26:27Z</time>
      </trkpt>
      <trkpt lat="42.89357" lon="-8.44799">
        <ele>347.6</ele>
        <time>2016-07-20T07:26:39Z</time>
      </trkpt>
      <trkpt lat="42.89348" lon="-8.44804">
        <ele>348.2</ele>
        <time>2016-07-20T07:26:48Z</time>
      </trkpt>
      <trkpt lat="42.8934" lon="-8.4481">
        <ele>349.1</ele>
        <time>2016-07-20T07:26:58Z</time>
      </trkpt>
      <trkpt lat="42.89332" lon="-8.44818">
        <ele>349.7</ele>
        <time>2016-07-20T07:27:10Z</time>
      </trkpt>
      <trkpt lat="42.89325" lon="-8.44824">
        <ele>349.8</ele>
        <time>2016-07-20T07:27:18Z</time>
      </trkpt>
      <trkpt lat="42.89317" lon="-8.44833">
        <ele>350.2</ele>
        <time>2016-07-20T07:27:27Z</time>
      </trkpt>
      <trkpt lat="42.8931" lon="-8.44842">
        <ele>350.3</ele>
        <time>2016-07-20T07:27:37Z</time>
      </trkpt>
      <trkpt lat="42.89302" lon="-8.44849">
        <ele>350.5</ele>
        <time>2016-07-20T07:27:46Z</time>
      </trkpt>
      <trkpt lat="42.89296" lon="-8.44858">
        <ele>350.1</ele>
        <time>2016-07-20T07:27:55Z</time>
      </trkpt>
      <trkpt lat="42.89289" lon="-8.44867">
        <ele>350</ele>
        <time>2016-07-20T07:28:04Z</time>
      </trkpt>
      <trkpt lat="42.89282" lon="-8.44877">
        <ele>350.1</ele>
        <time>2016-07-20T07:28:14Z</time>
      </trkpt>
      <trkpt lat="42.89276" lon="-8.44887">
        <ele>350.2</ele>
        <time>2016-07-20T07:28:24Z</time>
      </trkpt>
      <trkpt lat="42.89269" lon="-8.44896">
        <ele>350.3</ele>
        <time>2016-07-20T07:28:33Z</time>
      </trkpt>
      <trkpt lat="42.89261" lon="-8.44905">
        <ele>350.7</ele>
        <time>2016-07-20T07:28:43Z</time>
      </trkpt>
      <trkpt lat="42.89256" lon="-8.44915">
        <ele>350.8</ele>
        <time>2016-07-20T07:28:52Z</time>
      </trkpt>
      <trkpt lat="42.8925" lon="-8.44925">
        <ele>350.6</ele>
        <time>2016-07-20T07:29:01Z</time>
      </trkpt>
      <trkpt lat="42.89246" lon="-8.44937">
        <ele>350.5</ele>
        <time>2016-07-20T07:29:10Z</time>
      </trkpt>
      <trkpt lat="42.89239" lon="-8.44947">
        <ele>350.3</ele>
        <time>2016-07-20T07:29:22Z</time>
      </trkpt>
      <trkpt lat="42.89233" lon="-8.44957">
        <ele>350.1</ele>
        <time>2016-07-20T07:29:31Z</time>
      </trkpt>
      <trkpt lat="42.89226" lon="-8.44966">
        <ele>350</ele>
        <time>2016-07-20T07:29:40Z</time>
      </trkpt>
      <trkpt lat="42.89219" lon="-8.44975">
        <ele>349.8</ele>
        <time>2016-07-20T07:29:49Z</time>
      </trkpt>
      <trkpt lat="42.89212" lon="-8.44983">
        <ele>350.2</ele>
        <time>2016-07-20T07:30:07Z</time>
      </trkpt>
      <trkpt lat="42.89203" lon="-8.4498">
        <ele>350.7</ele>
        <time>2016-07-20T07:30:18Z</time>
      </trkpt>
      <trkpt lat="42.89194" lon="-8.44977">
        <ele>351.4</ele>
        <time>2016-07-20T07:30:26Z</time>
      </trkpt>
      <trkpt lat="42.89185" lon="-8.44972">
        <ele>352.6</ele>
        <time>2016-07-20T07:30:34Z</time>
      </trkpt>
      <trkpt lat="42.89176" lon="-8.44968">
        <ele>353.3</ele>
        <time>2016-07-20T07:30:41Z</time>
      </trkpt>
      <trkpt lat="42.89166" lon="-8.44969">
        <ele>353.8</ele>
        <time>2016-07-20T07:30:51Z</time>
      </trkpt>
      <trkpt lat="42.89161" lon="-8.4498">
        <ele>353.8</ele>
        <time>2016-07-20T07:31:00Z</time>
      </trkpt>
      <trkpt lat="42.89157" lon="-8.44992">
        <ele>354</ele>
        <time>2016-07-20T07:31:08Z</time>
      </trkpt>
      <trkpt lat="42.89153" lon="-8.45003">
        <ele>354.1</ele>
        <time>2016-07-20T07:31:16Z</time>
      </trkpt>
      <trkpt lat="42.89149" lon="-8.45014">
        <ele>354.1</ele>
        <time>2016-07-20T07:31:25Z</time>
      </trkpt>
      <trkpt lat="42.89146" lon="-8.45026">
        <ele>354.3</ele>
        <time>2016-07-20T07:31:34Z</time>
      </trkpt>
      <trkpt lat="42.89143" lon="-8.45039">
        <ele>354.2</ele>
        <time>2016-07-20T07:31:42Z</time>
      </trkpt>
      <trkpt lat="42.89142" lon="-8.45051">
        <ele>354.2</ele>
        <time>2016-07-20T07:31:51Z</time>
      </trkpt>
      <trkpt lat="42.8914" lon="-8.45065">
        <ele>354.3</ele>
        <time>2016-07-20T07:31:59Z</time>
      </trkpt>
      <trkpt lat="42.8914" lon="-8.45078">
        <ele>354.3</ele>
        <time>2016-07-20T07:32:08Z</time>
      </trkpt>
      <trkpt lat="42.89141" lon="-8.45092">
        <ele>353.7</ele>
        <time>2016-07-20T07:32:17Z</time>
      </trkpt>
      <trkpt lat="42.89142" lon="-8.45104">
        <ele>353.2</ele>
        <time>2016-07-20T07:32:28Z</time>
      </trkpt>
      <trkpt lat="42.89139" lon="-8.45117">
        <ele>352.3</ele>
        <time>2016-07-20T07:32:38Z</time>
      </trkpt>
      <trkpt lat="42.89137" lon="-8.4513">
        <ele>351.1</ele>
        <time>2016-07-20T07:32:47Z</time>
      </trkpt>
      <trkpt lat="42.89134" lon="-8.45142">
        <ele>350.8</ele>
        <time>2016-07-20T07:32:56Z</time>
      </trkpt>
      <trkpt lat="42.89133" lon="-8.45154">
        <ele>350.7</ele>
        <time>2016-07-20T07:33:05Z</time>
      </trkpt>
      <trkpt lat="42.89132" lon="-8.45166">
        <ele>350.7</ele>
        <time>2016-07-20T07:33:15Z</time>
      </trkpt>
      <trkpt lat="42.89132" lon="-8.45179">
        <ele>351.3</ele>
        <time>2016-07-20T07:33:25Z</time>
      </trkpt>
      <trkpt lat="42.89132" lon="-8.45192">
        <ele>352</ele>
        <time>2016-07-20T07:33:34Z</time>
      </trkpt>
      <trkpt lat="42.89132" lon="-8.45205">
        <ele>352.9</ele>
        <time>2016-07-20T07:33:45Z</time>
      </trkpt>
      <trkpt lat="42.89132" lon="-8.45218">
        <ele>353.4</ele>
        <time>2016-07-20T07:33:54Z</time>
      </trkpt>
      <trkpt lat="42.89132" lon="-8.45231">
        <ele>354.9</ele>
        <time>2016-07-20T07:34:04Z</time>
      </trkpt>
      <trkpt lat="42.89132" lon="-8.45244">
        <ele>355.7</ele>
        <time>2016-07-20T07:34:14Z</time>
      </trkpt>
      <trkpt lat="42.89129" lon="-8.45256">
        <ele>357</ele>
        <time>2016-07-20T07:34:24Z</time>
      </trkpt>
      <trkpt lat="42.89123" lon="-8.45266">
        <ele>357.8</ele>
        <time>2016-07-20T07:34:34Z</time>
      </trkpt>
      <trkpt lat="42.89117" lon="-8.45275">
        <ele>358.1</ele>
        <time>2016-07-20T07:34:44Z</time>
      </trkpt>
      <trkpt lat="42.8911" lon="-8.45284">
        <ele>358.9</ele>
        <time>2016-07-20T07:34:54Z</time>
      </trkpt>
      <trkpt lat="42.89104" lon="-8.45294">
        <ele>359.6</ele>
        <time>2016-07-20T07:35:03Z</time>
      </trkpt>
      <trkpt lat="42.89098" lon="-8.45304">
        <ele>360.3</ele>
        <time>2016-07-20T07:35:12Z</time>
      </trkpt>
      <trkpt lat="42.89094" lon="-8.45317">
        <ele>360.7</ele>
        <time>2016-07-20T07:35:21Z</time>
      </trkpt>
      <trkpt lat="42.89093" lon="-8.4533">
        <ele>361.6</ele>
        <time>2016-07-20T07:35:30Z</time>
      </trkpt>
      <trkpt lat="42.89093" lon="-8.45343">
        <ele>362.4</ele>
        <time>2016-07-20T07:35:39Z</time>
      </trkpt>
      <trkpt lat="42.89092" lon="-8.45355">
        <ele>363.1</ele>
        <time>2016-07-20T07:35:48Z</time>
      </trkpt>
      <trkpt lat="42.89091" lon="-8.45368">
        <ele>363.1</ele>
        <time>2016-07-20T07:35:58Z</time>
      </trkpt>
      <trkpt lat="42.89089" lon="-8.45381">
        <ele>363.9</ele>
        <time>2016-07-20T07:36:07Z</time>
      </trkpt>
      <trkpt lat="42.89088" lon="-8.45395">
        <ele>364.5</ele>
        <time>2016-07-20T07:36:16Z</time>
      </trkpt>
      <trkpt lat="42.89088" lon="-8.45408">
        <ele>365.4</ele>
        <time>2016-07-20T07:36:28Z</time>
      </trkpt>
      <trkpt lat="42.89087" lon="-8.45421">
        <ele>365.5</ele>
        <time>2016-07-20T07:36:37Z</time>
      </trkpt>
      <trkpt lat="42.89086" lon="-8.45435">
        <ele>365.6</ele>
        <time>2016-07-20T07:36:46Z</time>
      </trkpt>
      <trkpt lat="42.89085" lon="-8.45448">
        <ele>366.1</ele>
        <time>2016-07-20T07:36:54Z</time>
      </trkpt>
      <trkpt lat="42.89084" lon="-8.45461">
        <ele>366.3</ele>
        <time>2016-07-20T07:37:02Z</time>
      </trkpt>
      <trkpt lat="42.8908" lon="-8.45473">
        <ele>366.7</ele>
        <time>2016-07-20T07:37:11Z</time>
      </trkpt>
      <trkpt lat="42.89074" lon="-8.45482">
        <ele>367.2</ele>
        <time>2016-07-20T07:37:20Z</time>
      </trkpt>
      <trkpt lat="42.89068" lon="-8.45492">
        <ele>367.4</ele>
        <time>2016-07-20T07:37:30Z</time>
      </trkpt>
      <trkpt lat="42.89062" lon="-8.45503">
        <ele>367.5</ele>
        <time>2016-07-20T07:37:40Z</time>
      </trkpt>
      <trkpt lat="42.89056" lon="-8.45513">
        <ele>367.6</ele>
        <time>2016-07-20T07:37:48Z</time>
      </trkpt>
      <trkpt lat="42.89051" lon="-8.45525">
        <ele>367.7</ele>
        <time>2016-07-20T07:37:57Z</time>
      </trkpt>
      <trkpt lat="42.89047" lon="-8.45537">
        <ele>368.2</ele>
        <time>2016-07-20T07:38:13Z</time>
      </trkpt>
      <trkpt lat="42.89041" lon="-8.45549">
        <ele>368.4</ele>
        <time>2016-07-20T07:38:23Z</time>
      </trkpt>
      <trkpt lat="42.89037" lon="-8.4556">
        <ele>368.5</ele>
        <time>2016-07-20T07:38:32Z</time>
      </trkpt>
      <trkpt lat="42.89032" lon="-8.45572">
        <ele>368.8</ele>
        <time>2016-07-20T07:38:41Z</time>
      </trkpt>
      <trkpt lat="42.89028" lon="-8.45583">
        <ele>368.9</ele>
        <time>2016-07-20T07:38:49Z</time>
      </trkpt>
      <trkpt lat="42.89024" lon="-8.45595">
        <ele>369.1</ele>
        <time>2016-07-20T07:38:58Z</time>
      </trkpt>
      <trkpt lat="42.89019" lon="-8.45607">
        <ele>369.5</ele>
        <time>2016-07-20T07:39:08Z</time>
      </trkpt>
      <trkpt lat="42.89017" lon="-8.45619">
        <ele>370.1</ele>
        <time>2016-07-20T07:39:18Z</time>
      </trkpt>
      <trkpt lat="42.89015" lon="-8.45631">
        <ele>370.2</ele>
        <time>2016-07-20T07:39:27Z</time>
      </trkpt>
      <trkpt lat="42.89013" lon="-8.45644">
        <ele>370.3</ele>
        <time>2016-07-20T07:39:36Z</time>
      </trkpt>
      <trkpt lat="42.89013" lon="-8.45657">
        <ele>370.7</ele>
        <time>2016-07-20T07:39:45Z</time>
      </trkpt>
      <trkpt lat="42.89013" lon="-8.45671">
        <ele>371.3</ele>
        <time>2016-07-20T07:39:53Z</time>
      </trkpt>
      <trkpt lat="42.89013" lon="-8.45684">
        <ele>371.6</ele>
        <time>2016-07-20T07:40:02Z</time>
      </trkpt>
      <trkpt lat="42.89011" lon="-8.45697">
        <ele>371.8</ele>
        <time>2016-07-20T07:40:11Z</time>
      </trkpt>
      <trkpt lat="42.89011" lon="-8.4571">
        <ele>371.9</ele>
        <time>2016-07-20T07:40:20Z</time>
      </trkpt>
      <trkpt lat="42.8901" lon="-8.45723">
        <ele>372.2</ele>
        <time>2016-07-20T07:40:28Z</time>
      </trkpt>
      <trkpt lat="42.89011" lon="-8.45736">
        <ele>372.7</ele>
        <time>2016-07-20T07:40:37Z</time>
      </trkpt>
      <trkpt lat="42.89012" lon="-8.45749">
        <ele>373.1</ele>
        <time>2016-07-20T07:40:46Z</time>
      </trkpt>
      <trkpt lat="42.89014" lon="-8.45762">
        <ele>373.1</ele>
        <time>2016-07-20T07:40:54Z</time>
      </trkpt>
      <trkpt lat="42.89016" lon="-8.45774">
        <ele>373.4</ele>
        <time>2016-07-20T07:41:04Z</time>
      </trkpt>
      <trkpt lat="42.89019" lon="-8.45787">
        <ele>374.2</ele>
        <time>2016-07-20T07:41:15Z</time>
      </trkpt>
      <trkpt lat="42.89022" lon="-8.45799">
        <ele>375</ele>
        <time>2016-07-20T07:41:25Z</time>
      </trkpt>
      <trkpt lat="42.89027" lon="-8.4581">
        <ele>375.6</ele>
        <time>2016-07-20T07:41:35Z</time>
      </trkpt>
      <trkpt lat="42.89031" lon="-8.45821">
        <ele>376.1</ele>
        <time>2016-07-20T07:41:47Z</time>
      </trkpt>
      <trkpt lat="42.89034" lon="-8.45833">
        <ele>376.7</ele>
        <time>2016-07-20T07:41:55Z</time>
      </trkpt>
      <trkpt lat="42.89035" lon="-8.45847">
        <ele>377.2</ele>
        <time>2016-07-20T07:42:03Z</time>
      </trkpt>
      <trkpt lat="42.89036" lon="-8.45859">
        <ele>377.7</ele>
        <time>2016-07-20T07:42:12Z</time>
      </trkpt>
      <trkpt lat="42.89038" lon="-8.45872">
        <ele>378.2</ele>
        <time>2016-07-20T07:42:20Z</time>
      </trkpt>
      <trkpt lat="42.8904" lon="-8.45885">
        <ele>378.6</ele>
        <time>2016-07-20T07:42:28Z</time>
      </trkpt>
      <trkpt lat="42.89042" lon="-8.45898">
        <ele>379.2</ele>
        <time>2016-07-20T07:42:38Z</time>
      </trkpt>
      <trkpt lat="42.89043" lon="-8.4591">
        <ele>379.7</ele>
        <time>2016-07-20T07:42:50Z</time>
      </trkpt>
      <trkpt lat="42.89046" lon="-8.45923">
        <ele>380.3</ele>
        <time>2016-07-20T07:42:59Z</time>
      </trkpt>
      <trkpt lat="42.89048" lon="-8.45935">
        <ele>380.8</ele>
        <time>2016-07-20T07:43:07Z</time>
      </trkpt>
      <trkpt lat="42.89051" lon="-8.45948">
        <ele>381</ele>
        <time>2016-07-20T07:43:15Z</time>
      </trkpt>
      <trkpt lat="42.89053" lon="-8.45961">
        <ele>381.1</ele>
        <time>2016-07-20T07:43:24Z</time>
      </trkpt>
      <trkpt lat="42.89054" lon="-8.45974">
        <ele>381.2</ele>
        <time>2016-07-20T07:43:34Z</time>
      </trkpt>
      <trkpt lat="42.89054" lon="-8.45987">
        <ele>381.1</ele>
        <time>2016-07-20T07:43:44Z</time>
      </trkpt>
      <trkpt lat="42.89054" lon="-8.46">
        <ele>381.2</ele>
        <time>2016-07-20T07:43:53Z</time>
      </trkpt>
      <trkpt lat="42.89052" lon="-8.46012">
        <ele>381.4</ele>
        <time>2016-07-20T07:44:02Z</time>
      </trkpt>
      <trkpt lat="42.89052" lon="-8.46025">
        <ele>381.5</ele>
        <time>2016-07-20T07:44:11Z</time>
      </trkpt>
      <trkpt lat="42.8905" lon="-8.46038">
        <ele>381.2</ele>
        <time>2016-07-20T07:44:19Z</time>
      </trkpt>
      <trkpt lat="42.89051" lon="-8.46051">
        <ele>381.1</ele>
        <time>2016-07-20T07:44:31Z</time>
      </trkpt>
      <trkpt lat="42.89049" lon="-8.46063">
        <ele>381.2</ele>
        <time>2016-07-20T07:44:40Z</time>
      </trkpt>
      <trkpt lat="42.89048" lon="-8.46077">
        <ele>381.3</ele>
        <time>2016-07-20T07:44:49Z</time>
      </trkpt>
      <trkpt lat="42.89046" lon="-8.46089">
        <ele>381.6</ele>
        <time>2016-07-20T07:44:57Z</time>
      </trkpt>
      <trkpt lat="42.89044" lon="-8.46102">
        <ele>381.6</ele>
        <time>2016-07-20T07:45:06Z</time>
      </trkpt>
      <trkpt lat="42.89042" lon="-8.46114">
        <ele>381.5</ele>
        <time>2016-07-20T07:45:13Z</time>
      </trkpt>
      <trkpt lat="42.89041" lon="-8.46128">
        <ele>381.2</ele>
        <time>2016-07-20T07:45:26Z</time>
      </trkpt>
      <trkpt lat="42.8904" lon="-8.46142">
        <ele>381.1</ele>
        <time>2016-07-20T07:45:36Z</time>
      </trkpt>
      <trkpt lat="42.8904" lon="-8.46154">
        <ele>381</ele>
        <time>2016-07-20T07:45:45Z</time>
      </trkpt>
      <trkpt lat="42.89038" lon="-8.46167">
        <ele>380.9</ele>
        <time>2016-07-20T07:45:55Z</time>
      </trkpt>
      <trkpt lat="42.89037" lon="-8.4618">
        <ele>380.9</ele>
        <time>2016-07-20T07:46:04Z</time>
      </trkpt>
      <trkpt lat="42.89038" lon="-8.46194">
        <ele>380.9</ele>
        <time>2016-07-20T07:46:14Z</time>
      </trkpt>
      <trkpt lat="42.89039" lon="-8.46208">
        <ele>380.9</ele>
        <time>2016-07-20T07:46:23Z</time>
      </trkpt>
      <trkpt lat="42.89039" lon="-8.46222">
        <ele>381</ele>
        <time>2016-07-20T07:46:32Z</time>
      </trkpt>
      <trkpt lat="42.89039" lon="-8.46236">
        <ele>381.2</ele>
        <time>2016-07-20T07:46:41Z</time>
      </trkpt>
      <trkpt lat="42.8904" lon="-8.46248">
        <ele>381.2</ele>
        <time>2016-07-20T07:46:48Z</time>
      </trkpt>
      <trkpt lat="42.89042" lon="-8.46261">
        <ele>381.1</ele>
        <time>2016-07-20T07:46:56Z</time>
      </trkpt>
      <trkpt lat="42.89042" lon="-8.46274">
        <ele>381.2</ele>
        <time>2016-07-20T07:47:05Z</time>
      </trkpt>
      <trkpt lat="42.89042" lon="-8.46287">
        <ele>381.4</ele>
        <time>2016-07-20T07:47:14Z</time>
      </trkpt>
      <trkpt lat="42.89042" lon="-8.46299">
        <ele>381.5</ele>
        <time>2016-07-20T07:47:23Z</time>
      </trkpt>
      <trkpt lat="42.89042" lon="-8.46312">
        <ele>381.6</ele>
        <time>2016-07-20T07:47:32Z</time>
      </trkpt>
      <trkpt lat="42.89047" lon="-8.46322">
        <ele>381.7</ele>
        <time>2016-07-20T07:48:00Z</time>
      </trkpt>
      <trkpt lat="42.89055" lon="-8.4633">
        <ele>381.4</ele>
        <time>2016-07-20T07:49:17Z</time>
      </trkpt>
      <trkpt lat="42.89046" lon="-8.46335">
        <ele>381.7</ele>
        <time>2016-07-20T07:50:27Z</time>
      </trkpt>
      <trkpt lat="42.89056" lon="-8.46331">
        <ele>381.5</ele>
        <time>2016-07-20T07:51:35Z</time>
      </trkpt>
      <trkpt lat="42.89066" lon="-8.46328">
        <ele>381.4</ele>
        <time>2016-07-20T07:51:42Z</time>
      </trkpt>
      <trkpt lat="42.89057" lon="-8.46328">
        <ele>381.3</ele>
        <time>2016-07-20T07:52:31Z</time>
      </trkpt>
      <trkpt lat="42.89048" lon="-8.46332">
        <ele>380.9</ele>
        <time>2016-07-20T07:53:43Z</time>
      </trkpt>
      <trkpt lat="42.89038" lon="-8.46331">
        <ele>380.6</ele>
        <time>2016-07-20T07:54:05Z</time>
      </trkpt>
      <trkpt lat="42.89031" lon="-8.46324">
        <ele>381.4</ele>
        <time>2016-07-20T07:54:35Z</time>
      </trkpt>
      <trkpt lat="42.8904" lon="-8.46327">
        <ele>381.4</ele>
        <time>2016-07-20T07:55:11Z</time>
      </trkpt>
      <trkpt lat="42.89042" lon="-8.4634">
        <ele>381.5</ele>
        <time>2016-07-20T07:55:20Z</time>
      </trkpt>
      <trkpt lat="42.89043" lon="-8.46354">
        <ele>381.5</ele>
        <time>2016-07-20T07:55:28Z</time>
      </trkpt>
      <trkpt lat="42.89044" lon="-8.46367">
        <ele>381.4</ele>
        <time>2016-07-20T07:55:36Z</time>
      </trkpt>
      <trkpt lat="42.89046" lon="-8.4638">
        <ele>381.2</ele>
        <time>2016-07-20T07:55:44Z</time>
      </trkpt>
      <trkpt lat="42.89047" lon="-8.46393">
        <ele>381.1</ele>
        <time>2016-07-20T07:55:51Z</time>
      </trkpt>
      <trkpt lat="42.89048" lon="-8.46406">
        <ele>381.2</ele>
        <time>2016-07-20T07:55:58Z</time>
      </trkpt>
      <trkpt lat="42.8905" lon="-8.46419">
        <ele>381.3</ele>
        <time>2016-07-20T07:56:05Z</time>
      </trkpt>
      <trkpt lat="42.89052" lon="-8.46432">
        <ele>381.4</ele>
        <time>2016-07-20T07:56:12Z</time>
      </trkpt>
      <trkpt lat="42.89055" lon="-8.46444">
        <ele>381.8</ele>
        <time>2016-07-20T07:56:19Z</time>
      </trkpt>
      <trkpt lat="42.89056" lon="-8.46456">
        <ele>381.9</ele>
        <time>2016-07-20T07:56:26Z</time>
      </trkpt>
      <trkpt lat="42.89058" lon="-8.46469">
        <ele>382.1</ele>
        <time>2016-07-20T07:56:35Z</time>
      </trkpt>
      <trkpt lat="42.8906" lon="-8.46483">
        <ele>382.6</ele>
        <time>2016-07-20T07:56:43Z</time>
      </trkpt>
      <trkpt lat="42.89062" lon="-8.46496">
        <ele>382.6</ele>
        <time>2016-07-20T07:56:50Z</time>
      </trkpt>
      <trkpt lat="42.89062" lon="-8.46509">
        <ele>382.5</ele>
        <time>2016-07-20T07:56:57Z</time>
      </trkpt>
      <trkpt lat="42.89065" lon="-8.46522">
        <ele>382.5</ele>
        <time>2016-07-20T07:57:04Z</time>
      </trkpt>
      <trkpt lat="42.89067" lon="-8.46535">
        <ele>382.5</ele>
        <time>2016-07-20T07:57:11Z</time>
      </trkpt>
      <trkpt lat="42.89069" lon="-8.46548">
        <ele>382.7</ele>
        <time>2016-07-20T07:57:18Z</time>
      </trkpt>
      <trkpt lat="42.8907" lon="-8.46561">
        <ele>383</ele>
        <time>2016-07-20T07:57:25Z</time>
      </trkpt>
      <trkpt lat="42.89071" lon="-8.46573">
        <ele>383.1</ele>
        <time>2016-07-20T07:57:31Z</time>
      </trkpt>
      <trkpt lat="42.89074" lon="-8.46585">
        <ele>383.5</ele>
        <time>2016-07-20T07:57:38Z</time>
      </trkpt>
      <trkpt lat="42.89075" lon="-8.46598">
        <ele>383.6</ele>
        <time>2016-07-20T07:57:45Z</time>
      </trkpt>
      <trkpt lat="42.89077" lon="-8.46611">
        <ele>383.4</ele>
        <time>2016-07-20T07:57:52Z</time>
      </trkpt>
      <trkpt lat="42.89078" lon="-8.46624">
        <ele>383.3</ele>
        <time>2016-07-20T07:57:59Z</time>
      </trkpt>
      <trkpt lat="42.8908" lon="-8.46636">
        <ele>383.3</ele>
        <time>2016-07-20T07:58:06Z</time>
      </trkpt>
      <trkpt lat="42.89081" lon="-8.46649">
        <ele>383.5</ele>
        <time>2016-07-20T07:58:13Z</time>
      </trkpt>
      <trkpt lat="42.89083" lon="-8.46663">
        <ele>383.8</ele>
        <time>2016-07-20T07:58:20Z</time>
      </trkpt>
      <trkpt lat="42.89085" lon="-8.46676">
        <ele>384.1</ele>
        <time>2016-07-20T07:58:27Z</time>
      </trkpt>
      <trkpt lat="42.89086" lon="-8.46689">
        <ele>384.3</ele>
        <time>2016-07-20T07:58:34Z</time>
      </trkpt>
      <trkpt lat="42.89089" lon="-8.46702">
        <ele>384.5</ele>
        <time>2016-07-20T07:58:42Z</time>
      </trkpt>
      <trkpt lat="42.89091" lon="-8.46715">
        <ele>384.7</ele>
        <time>2016-07-20T07:58:49Z</time>
      </trkpt>
      <trkpt lat="42.89092" lon="-8.46728">
        <ele>385</ele>
        <time>2016-07-20T07:58:57Z</time>
      </trkpt>
      <trkpt lat="42.89094" lon="-8.46741">
        <ele>385.4</ele>
        <time>2016-07-20T07:59:04Z</time>
      </trkpt>
      <trkpt lat="42.89095" lon="-8.46755">
        <ele>385.9</ele>
        <time>2016-07-20T07:59:12Z</time>
      </trkpt>
      <trkpt lat="42.89096" lon="-8.46769">
        <ele>386.2</ele>
        <time>2016-07-20T07:59:19Z</time>
      </trkpt>
      <trkpt lat="42.89099" lon="-8.46781">
        <ele>386.4</ele>
        <time>2016-07-20T07:59:26Z</time>
      </trkpt>
      <trkpt lat="42.89102" lon="-8.46794">
        <ele>387</ele>
        <time>2016-07-20T07:59:35Z</time>
      </trkpt>
      <trkpt lat="42.89104" lon="-8.46806">
        <ele>386.8</ele>
        <time>2016-07-20T07:59:43Z</time>
      </trkpt>
      <trkpt lat="42.89105" lon="-8.46819">
        <ele>387.1</ele>
        <time>2016-07-20T07:59:52Z</time>
      </trkpt>
      <trkpt lat="42.89108" lon="-8.46832">
        <ele>387.4</ele>
        <time>2016-07-20T08:00:00Z</time>
      </trkpt>
      <trkpt lat="42.89111" lon="-8.46844">
        <ele>387.8</ele>
        <time>2016-07-20T08:00:08Z</time>
      </trkpt>
      <trkpt lat="42.89111" lon="-8.46856">
        <ele>388.2</ele>
        <time>2016-07-20T08:00:16Z</time>
      </trkpt>
      <trkpt lat="42.89114" lon="-8.46869">
        <ele>388.6</ele>
        <time>2016-07-20T08:00:25Z</time>
      </trkpt>
      <trkpt lat="42.89116" lon="-8.46881">
        <ele>388.8</ele>
        <time>2016-07-20T08:00:33Z</time>
      </trkpt>
      <trkpt lat="42.89119" lon="-8.46893">
        <ele>388.6</ele>
        <time>2016-07-20T08:00:41Z</time>
      </trkpt>
      <trkpt lat="42.8912" lon="-8.46907">
        <ele>388.6</ele>
        <time>2016-07-20T08:00:49Z</time>
      </trkpt>
      <trkpt lat="42.89122" lon="-8.46919">
        <ele>388.4</ele>
        <time>2016-07-20T08:00:57Z</time>
      </trkpt>
      <trkpt lat="42.89125" lon="-8.46931">
        <ele>388.8</ele>
        <time>2016-07-20T08:01:05Z</time>
      </trkpt>
      <trkpt lat="42.89127" lon="-8.46944">
        <ele>389.2</ele>
        <time>2016-07-20T08:01:13Z</time>
      </trkpt>
      <trkpt lat="42.89129" lon="-8.46956">
        <ele>389.7</ele>
        <time>2016-07-20T08:01:22Z</time>
      </trkpt>
      <trkpt lat="42.89131" lon="-8.46969">
        <ele>389.9</ele>
        <time>2016-07-20T08:01:33Z</time>
      </trkpt>
      <trkpt lat="42.89134" lon="-8.46981">
        <ele>390.4</ele>
        <time>2016-07-20T08:01:41Z</time>
      </trkpt>
      <trkpt lat="42.89138" lon="-8.46992">
        <ele>390.7</ele>
        <time>2016-07-20T08:01:49Z</time>
      </trkpt>
      <trkpt lat="42.8914" lon="-8.47004">
        <ele>390.9</ele>
        <time>2016-07-20T08:01:56Z</time>
      </trkpt>
      <trkpt lat="42.89141" lon="-8.47018">
        <ele>390.7</ele>
        <time>2016-07-20T08:02:04Z</time>
      </trkpt>
      <trkpt lat="42.89142" lon="-8.47031">
        <ele>390.3</ele>
        <time>2016-07-20T08:02:12Z</time>
      </trkpt>
      <trkpt lat="42.89145" lon="-8.47043">
        <ele>390.1</ele>
        <time>2016-07-20T08:02:20Z</time>
      </trkpt>
      <trkpt lat="42.89145" lon="-8.47056">
        <ele>389.7</ele>
        <time>2016-07-20T08:02:30Z</time>
      </trkpt>
      <trkpt lat="42.89145" lon="-8.4707">
        <ele>389.5</ele>
        <time>2016-07-20T08:02:38Z</time>
      </trkpt>
      <trkpt lat="42.89146" lon="-8.47082">
        <ele>389.3</ele>
        <time>2016-07-20T08:02:46Z</time>
      </trkpt>
      <trkpt lat="42.89147" lon="-8.47096">
        <ele>389.5</ele>
        <time>2016-07-20T08:02:55Z</time>
      </trkpt>
      <trkpt lat="42.89148" lon="-8.47109">
        <ele>389</ele>
        <time>2016-07-20T08:03:04Z</time>
      </trkpt>
      <trkpt lat="42.89147" lon="-8.47122">
        <ele>388.4</ele>
        <time>2016-07-20T08:03:12Z</time>
      </trkpt>
      <trkpt lat="42.89149" lon="-8.47135">
        <ele>388</ele>
        <time>2016-07-20T08:03:21Z</time>
      </trkpt>
      <trkpt lat="42.89151" lon="-8.47148">
        <ele>387.5</ele>
        <time>2016-07-20T08:03:30Z</time>
      </trkpt>
      <trkpt lat="42.89152" lon="-8.47161">
        <ele>387.1</ele>
        <time>2016-07-20T08:03:38Z</time>
      </trkpt>
      <trkpt lat="42.89153" lon="-8.47174">
        <ele>386.7</ele>
        <time>2016-07-20T08:03:48Z</time>
      </trkpt>
      <trkpt lat="42.89156" lon="-8.47185">
        <ele>385.8</ele>
        <time>2016-07-20T08:03:57Z</time>
      </trkpt>
      <trkpt lat="42.89158" lon="-8.47198">
        <ele>384.9</ele>
        <time>2016-07-20T08:04:11Z</time>
      </trkpt>
      <trkpt lat="42.89161" lon="-8.47211">
        <ele>384.8</ele>
        <time>2016-07-20T08:04:20Z</time>
      </trkpt>
      <trkpt lat="42.89162" lon="-8.47223">
        <ele>385</ele>
        <time>2016-07-20T08:04:29Z</time>
      </trkpt>
      <trkpt lat="42.89163" lon="-8.47236">
        <ele>384.8</ele>
        <time>2016-07-20T08:04:38Z</time>
      </trkpt>
      <trkpt lat="42.89166" lon="-8.47249">
        <ele>384.6</ele>
        <time>2016-07-20T08:04:45Z</time>
      </trkpt>
      <trkpt lat="42.89169" lon="-8.47261">
        <ele>384.3</ele>
        <time>2016-07-20T08:04:53Z</time>
      </trkpt>
      <trkpt lat="42.8917" lon="-8.47274">
        <ele>384</ele>
        <time>2016-07-20T08:05:00Z</time>
      </trkpt>
      <trkpt lat="42.8917" lon="-8.47288">
        <ele>383.9</ele>
        <time>2016-07-20T08:05:08Z</time>
      </trkpt>
      <trkpt lat="42.89171" lon="-8.473">
        <ele>383.9</ele>
        <time>2016-07-20T08:05:16Z</time>
      </trkpt>
      <trkpt lat="42.89173" lon="-8.47313">
        <ele>383.8</ele>
        <time>2016-07-20T08:05:24Z</time>
      </trkpt>
      <trkpt lat="42.89175" lon="-8.47327">
        <ele>383.7</ele>
        <time>2016-07-20T08:05:33Z</time>
      </trkpt>
      <trkpt lat="42.89177" lon="-8.47339">
        <ele>383.6</ele>
        <time>2016-07-20T08:05:42Z</time>
      </trkpt>
      <trkpt lat="42.89179" lon="-8.47352">
        <ele>383.6</ele>
        <time>2016-07-20T08:05:51Z</time>
      </trkpt>
      <trkpt lat="42.89181" lon="-8.47365">
        <ele>383.4</ele>
        <time>2016-07-20T08:06:00Z</time>
      </trkpt>
      <trkpt lat="42.89182" lon="-8.47378">
        <ele>382.8</ele>
        <time>2016-07-20T08:06:10Z</time>
      </trkpt>
      <trkpt lat="42.89184" lon="-8.47391">
        <ele>382.7</ele>
        <time>2016-07-20T08:06:22Z</time>
      </trkpt>
      <trkpt lat="42.89186" lon="-8.47404">
        <ele>382.8</ele>
        <time>2016-07-20T08:06:33Z</time>
      </trkpt>
      <trkpt lat="42.89187" lon="-8.47417">
        <ele>382.8</ele>
        <time>2016-07-20T08:06:42Z</time>
      </trkpt>
      <trkpt lat="42.89191" lon="-8.4743">
        <ele>382.8</ele>
        <time>2016-07-20T08:06:51Z</time>
      </trkpt>
      <trkpt lat="42.89195" lon="-8.47441">
        <ele>383</ele>
        <time>2016-07-20T08:06:59Z</time>
      </trkpt>
      <trkpt lat="42.892" lon="-8.47453">
        <ele>382.6</ele>
        <time>2016-07-20T08:07:07Z</time>
      </trkpt>
      <trkpt lat="42.89202" lon="-8.47466">
        <ele>382.9</ele>
        <time>2016-07-20T08:07:18Z</time>
      </trkpt>
      <trkpt lat="42.89201" lon="-8.47479">
        <ele>383</ele>
        <time>2016-07-20T08:07:27Z</time>
      </trkpt>
      <trkpt lat="42.89202" lon="-8.47491">
        <ele>382.8</ele>
        <time>2016-07-20T08:07:36Z</time>
      </trkpt>
      <trkpt lat="42.89203" lon="-8.47505">
        <ele>382.6</ele>
        <time>2016-07-20T08:07:45Z</time>
      </trkpt>
      <trkpt lat="42.89205" lon="-8.47518">
        <ele>382.9</ele>
        <time>2016-07-20T08:07:55Z</time>
      </trkpt>
      <trkpt lat="42.89206" lon="-8.47532">
        <ele>383.1</ele>
        <time>2016-07-20T08:08:04Z</time>
      </trkpt>
      <trkpt lat="42.89207" lon="-8.47545">
        <ele>382.5</ele>
        <time>2016-07-20T08:08:13Z</time>
      </trkpt>
      <trkpt lat="42.89207" lon="-8.47559">
        <ele>382.2</ele>
        <time>2016-07-20T08:08:21Z</time>
      </trkpt>
      <trkpt lat="42.89211" lon="-8.4757">
        <ele>382.1</ele>
        <time>2016-07-20T08:08:28Z</time>
      </trkpt>
      <trkpt lat="42.89217" lon="-8.47582">
        <ele>382.2</ele>
        <time>2016-07-20T08:08:36Z</time>
      </trkpt>
      <trkpt lat="42.8922" lon="-8.47594">
        <ele>382.3</ele>
        <time>2016-07-20T08:08:45Z</time>
      </trkpt>
      <trkpt lat="42.89222" lon="-8.47607">
        <ele>382.3</ele>
        <time>2016-07-20T08:08:53Z</time>
      </trkpt>
      <trkpt lat="42.89226" lon="-8.4762">
        <ele>382.2</ele>
        <time>2016-07-20T08:09:01Z</time>
      </trkpt>
      <trkpt lat="42.8923" lon="-8.47633">
        <ele>382.7</ele>
        <time>2016-07-20T08:09:10Z</time>
      </trkpt>
      <trkpt lat="42.89226" lon="-8.47644">
        <ele>382.9</ele>
        <time>2016-07-20T08:09:23Z</time>
      </trkpt>
      <trkpt lat="42.89217" lon="-8.47646">
        <ele>383</ele>
        <time>2016-07-20T08:09:31Z</time>
      </trkpt>
      <trkpt lat="42.89208" lon="-8.47646">
        <ele>383.2</ele>
        <time>2016-07-20T08:09:38Z</time>
      </trkpt>
      <trkpt lat="42.89199" lon="-8.47646">
        <ele>383.2</ele>
        <time>2016-07-20T08:09:46Z</time>
      </trkpt>
      <trkpt lat="42.89189" lon="-8.47645">
        <ele>383.2</ele>
        <time>2016-07-20T08:09:54Z</time>
      </trkpt>
      <trkpt lat="42.8918" lon="-8.47646">
        <ele>383.3</ele>
        <time>2016-07-20T08:10:05Z</time>
      </trkpt>
      <trkpt lat="42.8917" lon="-8.47646">
        <ele>383.3</ele>
        <time>2016-07-20T08:10:15Z</time>
      </trkpt>
      <trkpt lat="42.89161" lon="-8.47644">
        <ele>383.4</ele>
        <time>2016-07-20T08:10:28Z</time>
      </trkpt>
      <trkpt lat="42.89152" lon="-8.47642">
        <ele>383.8</ele>
        <time>2016-07-20T08:10:37Z</time>
      </trkpt>
      <trkpt lat="42.89143" lon="-8.47637">
        <ele>384.1</ele>
        <time>2016-07-20T08:10:45Z</time>
      </trkpt>
      <trkpt lat="42.89134" lon="-8.47634">
        <ele>384.3</ele>
        <time>2016-07-20T08:10:53Z</time>
      </trkpt>
      <trkpt lat="42.89125" lon="-8.47632">
        <ele>384.4</ele>
        <time>2016-07-20T08:11:02Z</time>
      </trkpt>
      <trkpt lat="42.89116" lon="-8.47629">
        <ele>384.5</ele>
        <time>2016-07-20T08:11:11Z</time>
      </trkpt>
      <trkpt lat="42.89107" lon="-8.47625">
        <ele>384.5</ele>
        <time>2016-07-20T08:11:19Z</time>
      </trkpt>
      <trkpt lat="42.89098" lon="-8.47622">
        <ele>384.6</ele>
        <time>2016-07-20T08:11:26Z</time>
      </trkpt>
      <trkpt lat="42.89089" lon="-8.47621">
        <ele>384.5</ele>
        <time>2016-07-20T08:11:34Z</time>
      </trkpt>
      <trkpt lat="42.89079" lon="-8.4762">
        <ele>384.6</ele>
        <time>2016-07-20T08:11:42Z</time>
      </trkpt>
      <trkpt lat="42.8907" lon="-8.47617">
        <ele>384.9</ele>
        <time>2016-07-20T08:11:50Z</time>
      </trkpt>
      <trkpt lat="42.89061" lon="-8.47617">
        <ele>385.1</ele>
        <time>2016-07-20T08:11:58Z</time>
      </trkpt>
      <trkpt lat="42.89055" lon="-8.47627">
        <ele>385.2</ele>
        <time>2016-07-20T08:12:08Z</time>
      </trkpt>
      <trkpt lat="42.89051" lon="-8.47639">
        <ele>385.2</ele>
        <time>2016-07-20T08:12:18Z</time>
      </trkpt>
      <trkpt lat="42.89052" lon="-8.47652">
        <ele>384.3</ele>
        <time>2016-07-20T08:12:29Z</time>
      </trkpt>
      <trkpt lat="42.89051" lon="-8.47665">
        <ele>384.2</ele>
        <time>2016-07-20T08:12:37Z</time>
      </trkpt>
      <trkpt lat="42.89051" lon="-8.47678">
        <ele>384</ele>
        <time>2016-07-20T08:12:45Z</time>
      </trkpt>
      <trkpt lat="42.89052" lon="-8.47692">
        <ele>383.7</ele>
        <time>2016-07-20T08:12:53Z</time>
      </trkpt>
      <trkpt lat="42.89052" lon="-8.47705">
        <ele>383.4</ele>
        <time>2016-07-20T08:13:01Z</time>
      </trkpt>
      <trkpt lat="42.89051" lon="-8.47719">
        <ele>382.9</ele>
        <time>2016-07-20T08:13:10Z</time>
      </trkpt>
      <trkpt lat="42.89051" lon="-8.47732">
        <ele>382.5</ele>
        <time>2016-07-20T08:13:19Z</time>
      </trkpt>
      <trkpt lat="42.89051" lon="-8.47746">
        <ele>381.8</ele>
        <time>2016-07-20T08:13:27Z</time>
      </trkpt>
      <trkpt lat="42.89051" lon="-8.47759">
        <ele>381.5</ele>
        <time>2016-07-20T08:13:35Z</time>
      </trkpt>
      <trkpt lat="42.89051" lon="-8.47773">
        <ele>381.3</ele>
        <time>2016-07-20T08:13:43Z</time>
      </trkpt>
      <trkpt lat="42.89051" lon="-8.47787">
        <ele>381.2</ele>
        <time>2016-07-20T08:13:52Z</time>
      </trkpt>
      <trkpt lat="42.89052" lon="-8.47801">
        <ele>380.7</ele>
        <time>2016-07-20T08:14:01Z</time>
      </trkpt>
      <trkpt lat="42.89053" lon="-8.47813">
        <ele>380.3</ele>
        <time>2016-07-20T08:14:10Z</time>
      </trkpt>
      <trkpt lat="42.89054" lon="-8.47826">
        <ele>380</ele>
        <time>2016-07-20T08:14:19Z</time>
      </trkpt>
      <trkpt lat="42.89054" lon="-8.4784">
        <ele>379.9</ele>
        <time>2016-07-20T08:14:27Z</time>
      </trkpt>
      <trkpt lat="42.89055" lon="-8.47854">
        <ele>379.7</ele>
        <time>2016-07-20T08:14:36Z</time>
      </trkpt>
      <trkpt lat="42.89056" lon="-8.47867">
        <ele>379.5</ele>
        <time>2016-07-20T08:14:45Z</time>
      </trkpt>
      <trkpt lat="42.89056" lon="-8.4788">
        <ele>379.3</ele>
        <time>2016-07-20T08:14:55Z</time>
      </trkpt>
      <trkpt lat="42.89057" lon="-8.47894">
        <ele>378.9</ele>
        <time>2016-07-20T08:15:04Z</time>
      </trkpt>
      <trkpt lat="42.89057" lon="-8.47906">
        <ele>378.6</ele>
        <time>2016-07-20T08:15:12Z</time>
      </trkpt>
      <trkpt lat="42.89058" lon="-8.47919">
        <ele>378.1</ele>
        <time>2016-07-20T08:15:21Z</time>
      </trkpt>
      <trkpt lat="42.89058" lon="-8.47932">
        <ele>378.5</ele>
        <time>2016-07-20T08:15:30Z</time>
      </trkpt>
      <trkpt lat="42.89058" lon="-8.47944">
        <ele>378.7</ele>
        <time>2016-07-20T08:15:38Z</time>
      </trkpt>
      <trkpt lat="42.89059" lon="-8.47957">
        <ele>378.7</ele>
        <time>2016-07-20T08:15:46Z</time>
      </trkpt>
      <trkpt lat="42.89059" lon="-8.4797">
        <ele>378.7</ele>
        <time>2016-07-20T08:15:54Z</time>
      </trkpt>
      <trkpt lat="42.8906" lon="-8.47983">
        <ele>378.9</ele>
        <time>2016-07-20T08:16:03Z</time>
      </trkpt>
      <trkpt lat="42.89061" lon="-8.47996">
        <ele>379.4</ele>
        <time>2016-07-20T08:16:12Z</time>
      </trkpt>
      <trkpt lat="42.89062" lon="-8.48009">
        <ele>380.4</ele>
        <time>2016-07-20T08:16:22Z</time>
      </trkpt>
      <trkpt lat="42.89062" lon="-8.48023">
        <ele>381.3</ele>
        <time>2016-07-20T08:16:32Z</time>
      </trkpt>
      <trkpt lat="42.89063" lon="-8.48035">
        <ele>381.9</ele>
        <time>2016-07-20T08:16:41Z</time>
      </trkpt>
      <trkpt lat="42.89062" lon="-8.48048">
        <ele>382.5</ele>
        <time>2016-07-20T08:16:50Z</time>
      </trkpt>
      <trkpt lat="42.89062" lon="-8.48061">
        <ele>383.5</ele>
        <time>2016-07-20T08:16:59Z</time>
      </trkpt>
      <trkpt lat="42.89062" lon="-8.48074">
        <ele>384.5</ele>
        <time>2016-07-20T08:17:08Z</time>
      </trkpt>
      <trkpt lat="42.89062" lon="-8.48087">
        <ele>385.1</ele>
        <time>2016-07-20T08:17:17Z</time>
      </trkpt>
      <trkpt lat="42.89062" lon="-8.481">
        <ele>385.8</ele>
        <time>2016-07-20T08:17:26Z</time>
      </trkpt>
      <trkpt lat="42.89062" lon="-8.48113">
        <ele>386.6</ele>
        <time>2016-07-20T08:17:35Z</time>
      </trkpt>
      <trkpt lat="42.89062" lon="-8.48125">
        <ele>387.2</ele>
        <time>2016-07-20T08:17:44Z</time>
      </trkpt>
      <trkpt lat="42.89062" lon="-8.48138">
        <ele>387.9</ele>
        <time>2016-07-20T08:17:53Z</time>
      </trkpt>
      <trkpt lat="42.89062" lon="-8.4815">
        <ele>388.5</ele>
        <time>2016-07-20T08:18:02Z</time>
      </trkpt>
      <trkpt lat="42.89063" lon="-8.48164">
        <ele>389.4</ele>
        <time>2016-07-20T08:18:12Z</time>
      </trkpt>
      <trkpt lat="42.89063" lon="-8.4818">
        <ele>389</ele>
        <time>2016-07-20T08:18:25Z</time>
      </trkpt>
      <trkpt lat="42.89062" lon="-8.48198">
        <ele>390</ele>
        <time>2016-07-20T08:18:37Z</time>
      </trkpt>
      <trkpt lat="42.89062" lon="-8.4821">
        <ele>390.4</ele>
        <time>2016-07-20T08:18:46Z</time>
      </trkpt>
      <trkpt lat="42.89063" lon="-8.48223">
        <ele>390.3</ele>
        <time>2016-07-20T08:18:55Z</time>
      </trkpt>
      <trkpt lat="42.89063" lon="-8.48237">
        <ele>390.3</ele>
        <time>2016-07-20T08:19:04Z</time>
      </trkpt>
      <trkpt lat="42.89063" lon="-8.4825">
        <ele>390.1</ele>
        <time>2016-07-20T08:19:13Z</time>
      </trkpt>
      <trkpt lat="42.89065" lon="-8.48262">
        <ele>390.1</ele>
        <time>2016-07-20T08:19:21Z</time>
      </trkpt>
      <trkpt lat="42.89065" lon="-8.48275">
        <ele>389.7</ele>
        <time>2016-07-20T08:19:30Z</time>
      </trkpt>
      <trkpt lat="42.89066" lon="-8.48289">
        <ele>389.2</ele>
        <time>2016-07-20T08:19:39Z</time>
      </trkpt>
      <trkpt lat="42.89065" lon="-8.48302">
        <ele>389.7</ele>
        <time>2016-07-20T08:19:48Z</time>
      </trkpt>
      <trkpt lat="42.89065" lon="-8.48314">
        <ele>389.3</ele>
        <time>2016-07-20T08:19:57Z</time>
      </trkpt>
      <trkpt lat="42.89065" lon="-8.48327">
        <ele>389.1</ele>
        <time>2016-07-20T08:20:06Z</time>
      </trkpt>
      <trkpt lat="42.89066" lon="-8.48341">
        <ele>389.3</ele>
        <time>2016-07-20T08:20:15Z</time>
      </trkpt>
      <trkpt lat="42.89068" lon="-8.48354">
        <ele>389.3</ele>
        <time>2016-07-20T08:20:24Z</time>
      </trkpt>
      <trkpt lat="42.8907" lon="-8.48366">
        <ele>389.3</ele>
        <time>2016-07-20T08:20:33Z</time>
      </trkpt>
      <trkpt lat="42.89071" lon="-8.48379">
        <ele>389.3</ele>
        <time>2016-07-20T08:20:42Z</time>
      </trkpt>
      <trkpt lat="42.89072" lon="-8.48392">
        <ele>389.2</ele>
        <time>2016-07-20T08:20:51Z</time>
      </trkpt>
      <trkpt lat="42.89073" lon="-8.48405">
        <ele>389</ele>
        <time>2016-07-20T08:20:59Z</time>
      </trkpt>
      <trkpt lat="42.89073" lon="-8.48418">
        <ele>388.4</ele>
        <time>2016-07-20T08:21:07Z</time>
      </trkpt>
      <trkpt lat="42.89073" lon="-8.48431">
        <ele>387.2</ele>
        <time>2016-07-20T08:21:15Z</time>
      </trkpt>
      <trkpt lat="42.89072" lon="-8.48444">
        <ele>386.2</ele>
        <time>2016-07-20T08:21:23Z</time>
      </trkpt>
      <trkpt lat="42.89072" lon="-8.48457">
        <ele>385.6</ele>
        <time>2016-07-20T08:21:31Z</time>
      </trkpt>
      <trkpt lat="42.89071" lon="-8.4847">
        <ele>385.1</ele>
        <time>2016-07-20T08:21:39Z</time>
      </trkpt>
      <trkpt lat="42.89071" lon="-8.48484">
        <ele>384.4</ele>
        <time>2016-07-20T08:21:48Z</time>
      </trkpt>
      <trkpt lat="42.89071" lon="-8.48497">
        <ele>384.1</ele>
        <time>2016-07-20T08:21:56Z</time>
      </trkpt>
      <trkpt lat="42.89071" lon="-8.4851">
        <ele>383.8</ele>
        <time>2016-07-20T08:22:05Z</time>
      </trkpt>
      <trkpt lat="42.89072" lon="-8.48524">
        <ele>383.7</ele>
        <time>2016-07-20T08:22:14Z</time>
      </trkpt>
      <trkpt lat="42.89072" lon="-8.48537">
        <ele>383.5</ele>
        <time>2016-07-20T08:22:22Z</time>
      </trkpt>
      <trkpt lat="42.89073" lon="-8.4855">
        <ele>383.1</ele>
        <time>2016-07-20T08:22:30Z</time>
      </trkpt>
      <trkpt lat="42.89073" lon="-8.48564">
        <ele>382.7</ele>
        <time>2016-07-20T08:22:38Z</time>
      </trkpt>
      <trkpt lat="42.89074" lon="-8.48577">
        <ele>382.5</ele>
        <time>2016-07-20T08:22:46Z</time>
      </trkpt>
      <trkpt lat="42.89071" lon="-8.48589">
        <ele>381.9</ele>
        <time>2016-07-20T08:22:55Z</time>
      </trkpt>
      <trkpt lat="42.89064" lon="-8.48599">
        <ele>381.4</ele>
        <time>2016-07-20T08:23:05Z</time>
      </trkpt>
      <trkpt lat="42.89061" lon="-8.48612">
        <ele>381.2</ele>
        <time>2016-07-20T08:23:14Z</time>
      </trkpt>
      <trkpt lat="42.8906" lon="-8.48624">
        <ele>379.7</ele>
        <time>2016-07-20T08:23:29Z</time>
      </trkpt>
      <trkpt lat="42.89062" lon="-8.48637">
        <ele>378.8</ele>
        <time>2016-07-20T08:23:38Z</time>
      </trkpt>
      <trkpt lat="42.89063" lon="-8.4865">
        <ele>378.1</ele>
        <time>2016-07-20T08:23:46Z</time>
      </trkpt>
      <trkpt lat="42.89064" lon="-8.48662">
        <ele>377.4</ele>
        <time>2016-07-20T08:23:53Z</time>
      </trkpt>
      <trkpt lat="42.89064" lon="-8.48675">
        <ele>376.4</ele>
        <time>2016-07-20T08:24:00Z</time>
      </trkpt>
      <trkpt lat="42.89065" lon="-8.48688">
        <ele>375.3</ele>
        <time>2016-07-20T08:24:08Z</time>
      </trkpt>
      <trkpt lat="42.89068" lon="-8.48701">
        <ele>374.5</ele>
        <time>2016-07-20T08:24:16Z</time>
      </trkpt>
      <trkpt lat="42.8907" lon="-8.48713">
        <ele>373.8</ele>
        <time>2016-07-20T08:24:23Z</time>
      </trkpt>
      <trkpt lat="42.89072" lon="-8.48726">
        <ele>373.1</ele>
        <time>2016-07-20T08:24:31Z</time>
      </trkpt>
      <trkpt lat="42.89077" lon="-8.48738">
        <ele>371.7</ele>
        <time>2016-07-20T08:24:39Z</time>
      </trkpt>
      <trkpt lat="42.89085" lon="-8.4874">
        <ele>370.9</ele>
        <time>2016-07-20T08:24:48Z</time>
      </trkpt>
      <trkpt lat="42.89095" lon="-8.4874">
        <ele>370.8</ele>
        <time>2016-07-20T08:24:58Z</time>
      </trkpt>
      <trkpt lat="42.89104" lon="-8.48742">
        <ele>370.4</ele>
        <time>2016-07-20T08:25:07Z</time>
      </trkpt>
      <trkpt lat="42.89113" lon="-8.48743">
        <ele>370.3</ele>
        <time>2016-07-20T08:25:16Z</time>
      </trkpt>
      <trkpt lat="42.89121" lon="-8.48748">
        <ele>370</ele>
        <time>2016-07-20T08:25:24Z</time>
      </trkpt>
      <trkpt lat="42.89129" lon="-8.48754">
        <ele>369.6</ele>
        <time>2016-07-20T08:25:32Z</time>
      </trkpt>
      <trkpt lat="42.89137" lon="-8.48763">
        <ele>369.5</ele>
        <time>2016-07-20T08:25:40Z</time>
      </trkpt>
      <trkpt lat="42.89143" lon="-8.48773">
        <ele>369.5</ele>
        <time>2016-07-20T08:25:49Z</time>
      </trkpt>
      <trkpt lat="42.89146" lon="-8.48784">
        <ele>369.7</ele>
        <time>2016-07-20T08:25:58Z</time>
      </trkpt>
      <trkpt lat="42.89144" lon="-8.48797">
        <ele>369.4</ele>
        <time>2016-07-20T08:26:07Z</time>
      </trkpt>
      <trkpt lat="42.89144" lon="-8.4881">
        <ele>369.1</ele>
        <time>2016-07-20T08:26:16Z</time>
      </trkpt>
      <trkpt lat="42.89144" lon="-8.48822">
        <ele>369</ele>
        <time>2016-07-20T08:26:24Z</time>
      </trkpt>
      <trkpt lat="42.89143" lon="-8.48835">
        <ele>369</ele>
        <time>2016-07-20T08:26:33Z</time>
      </trkpt>
      <trkpt lat="42.89142" lon="-8.48848">
        <ele>368.9</ele>
        <time>2016-07-20T08:26:41Z</time>
      </trkpt>
      <trkpt lat="42.8914" lon="-8.4886">
        <ele>368.7</ele>
        <time>2016-07-20T08:26:49Z</time>
      </trkpt>
      <trkpt lat="42.89139" lon="-8.48873">
        <ele>368.4</ele>
        <time>2016-07-20T08:26:57Z</time>
      </trkpt>
      <trkpt lat="42.89137" lon="-8.48886">
        <ele>368.7</ele>
        <time>2016-07-20T08:27:05Z</time>
      </trkpt>
      <trkpt lat="42.89133" lon="-8.48897">
        <ele>368.9</ele>
        <time>2016-07-20T08:27:12Z</time>
      </trkpt>
      <trkpt lat="42.89128" lon="-8.48908">
        <ele>368.9</ele>
        <time>2016-07-20T08:27:19Z</time>
      </trkpt>
      <trkpt lat="42.89124" lon="-8.4892">
        <ele>368.9</ele>
        <time>2016-07-20T08:27:27Z</time>
      </trkpt>
      <trkpt lat="42.89119" lon="-8.48933">
        <ele>368.9</ele>
        <time>2016-07-20T08:27:36Z</time>
      </trkpt>
      <trkpt lat="42.89115" lon="-8.48945">
        <ele>368.9</ele>
        <time>2016-07-20T08:27:46Z</time>
      </trkpt>
      <trkpt lat="42.8911" lon="-8.48956">
        <ele>369.2</ele>
        <time>2016-07-20T08:28:09Z</time>
      </trkpt>
      <trkpt lat="42.89109" lon="-8.48969">
        <ele>369.3</ele>
        <time>2016-07-20T08:28:18Z</time>
      </trkpt>
      <trkpt lat="42.89108" lon="-8.48983">
        <ele>369.7</ele>
        <time>2016-07-20T08:28:27Z</time>
      </trkpt>
      <trkpt lat="42.89105" lon="-8.48996">
        <ele>370</ele>
        <time>2016-07-20T08:28:36Z</time>
      </trkpt>
      <trkpt lat="42.89102" lon="-8.49008">
        <ele>370.2</ele>
        <time>2016-07-20T08:28:44Z</time>
      </trkpt>
      <trkpt lat="42.891" lon="-8.49021">
        <ele>370.6</ele>
        <time>2016-07-20T08:28:55Z</time>
      </trkpt>
      <trkpt lat="42.89097" lon="-8.49032">
        <ele>371</ele>
        <time>2016-07-20T08:29:03Z</time>
      </trkpt>
      <trkpt lat="42.89093" lon="-8.49045">
        <ele>371.2</ele>
        <time>2016-07-20T08:29:11Z</time>
      </trkpt>
      <trkpt lat="42.8909" lon="-8.49057">
        <ele>371.8</ele>
        <time>2016-07-20T08:29:19Z</time>
      </trkpt>
      <trkpt lat="42.89089" lon="-8.49071">
        <ele>372.7</ele>
        <time>2016-07-20T08:29:29Z</time>
      </trkpt>
      <trkpt lat="42.89086" lon="-8.49084">
        <ele>373.7</ele>
        <time>2016-07-20T08:29:39Z</time>
      </trkpt>
      <trkpt lat="42.89085" lon="-8.49098">
        <ele>374.2</ele>
        <time>2016-07-20T08:29:48Z</time>
      </trkpt>
      <trkpt lat="42.89084" lon="-8.49111">
        <ele>374.2</ele>
        <time>2016-07-20T08:29:58Z</time>
      </trkpt>
      <trkpt lat="42.89079" lon="-8.49122">
        <ele>374.2</ele>
        <time>2016-07-20T08:30:07Z</time>
      </trkpt>
      <trkpt lat="42.89074" lon="-8.49134">
        <ele>374.5</ele>
        <time>2016-07-20T08:30:15Z</time>
      </trkpt>
      <trkpt lat="42.89069" lon="-8.49145">
        <ele>374.5</ele>
        <time>2016-07-20T08:30:22Z</time>
      </trkpt>
      <trkpt lat="42.89064" lon="-8.49157">
        <ele>373.9</ele>
        <time>2016-07-20T08:30:30Z</time>
      </trkpt>
      <trkpt lat="42.8906" lon="-8.49168">
        <ele>373.8</ele>
        <time>2016-07-20T08:30:39Z</time>
      </trkpt>
      <trkpt lat="42.89054" lon="-8.4918">
        <ele>374</ele>
        <time>2016-07-20T08:30:50Z</time>
      </trkpt>
      <trkpt lat="42.8905" lon="-8.4919">
        <ele>374.4</ele>
        <time>2016-07-20T08:30:58Z</time>
      </trkpt>
      <trkpt lat="42.89045" lon="-8.49201">
        <ele>374.4</ele>
        <time>2016-07-20T08:31:05Z</time>
      </trkpt>
      <trkpt lat="42.89042" lon="-8.49213">
        <ele>374.5</ele>
        <time>2016-07-20T08:31:13Z</time>
      </trkpt>
      <trkpt lat="42.89037" lon="-8.49225">
        <ele>374.7</ele>
        <time>2016-07-20T08:31:23Z</time>
      </trkpt>
      <trkpt lat="42.89035" lon="-8.49237">
        <ele>375</ele>
        <time>2016-07-20T08:31:39Z</time>
      </trkpt>
      <trkpt lat="42.8903" lon="-8.49248">
        <ele>375</ele>
        <time>2016-07-20T08:31:49Z</time>
      </trkpt>
      <trkpt lat="42.89025" lon="-8.49259">
        <ele>375.6</ele>
        <time>2016-07-20T08:32:00Z</time>
      </trkpt>
      <trkpt lat="42.89019" lon="-8.4927">
        <ele>375.7</ele>
        <time>2016-07-20T08:32:09Z</time>
      </trkpt>
      <trkpt lat="42.89012" lon="-8.4928">
        <ele>375.8</ele>
        <time>2016-07-20T08:32:18Z</time>
      </trkpt>
      <trkpt lat="42.89008" lon="-8.49291">
        <ele>376.1</ele>
        <time>2016-07-20T08:32:26Z</time>
      </trkpt>
      <trkpt lat="42.89003" lon="-8.49303">
        <ele>376.2</ele>
        <time>2016-07-20T08:32:35Z</time>
      </trkpt>
      <trkpt lat="42.88999" lon="-8.49315">
        <ele>376.7</ele>
        <time>2016-07-20T08:32:44Z</time>
      </trkpt>
      <trkpt lat="42.88995" lon="-8.49327">
        <ele>377.2</ele>
        <time>2016-07-20T08:32:53Z</time>
      </trkpt>
      <trkpt lat="42.8899" lon="-8.49339">
        <ele>377.6</ele>
        <time>2016-07-20T08:33:02Z</time>
      </trkpt>
      <trkpt lat="42.88986" lon="-8.4935">
        <ele>378.2</ele>
        <time>2016-07-20T08:33:10Z</time>
      </trkpt>
      <trkpt lat="42.88982" lon="-8.49362">
        <ele>378.4</ele>
        <time>2016-07-20T08:33:19Z</time>
      </trkpt>
      <trkpt lat="42.88979" lon="-8.49374">
        <ele>378.7</ele>
        <time>2016-07-20T08:33:36Z</time>
      </trkpt>
      <trkpt lat="42.88974" lon="-8.49386">
        <ele>378.9</ele>
        <time>2016-07-20T08:33:46Z</time>
      </trkpt>
      <trkpt lat="42.88969" lon="-8.49397">
        <ele>379.6</ele>
        <time>2016-07-20T08:33:56Z</time>
      </trkpt>
      <trkpt lat="42.88968" lon="-8.4941">
        <ele>379.4</ele>
        <time>2016-07-20T08:34:22Z</time>
      </trkpt>
      <trkpt lat="42.88959" lon="-8.49417">
        <ele>379.2</ele>
        <time>2016-07-20T08:34:32Z</time>
      </trkpt>
      <trkpt lat="42.8895" lon="-8.4942">
        <ele>379.2</ele>
        <time>2016-07-20T08:34:43Z</time>
      </trkpt>
      <trkpt lat="42.8894" lon="-8.49421">
        <ele>379.8</ele>
        <time>2016-07-20T08:34:53Z</time>
      </trkpt>
      <trkpt lat="42.8893" lon="-8.49423">
        <ele>380.1</ele>
        <time>2016-07-20T08:35:03Z</time>
      </trkpt>
      <trkpt lat="42.88939" lon="-8.49424">
        <ele>381.2</ele>
        <time>2016-07-20T08:38:39Z</time>
      </trkpt>
      <trkpt lat="42.88949" lon="-8.49423">
        <ele>380.9</ele>
        <time>2016-07-20T08:38:51Z</time>
      </trkpt>
      <trkpt lat="42.88958" lon="-8.49424">
        <ele>380.7</ele>
        <time>2016-07-20T08:39:02Z</time>
      </trkpt>
      <trkpt lat="42.88965" lon="-8.49432">
        <ele>380.5</ele>
        <time>2016-07-20T08:39:19Z</time>
      </trkpt>
      <trkpt lat="42.88961" lon="-8.49444">
        <ele>380.2</ele>
        <time>2016-07-20T08:39:32Z</time>
      </trkpt>
      <trkpt lat="42.88956" lon="-8.49455">
        <ele>379.4</ele>
        <time>2016-07-20T08:39:44Z</time>
      </trkpt>
      <trkpt lat="42.88952" lon="-8.49467">
        <ele>379</ele>
        <time>2016-07-20T08:39:55Z</time>
      </trkpt>
      <trkpt lat="42.88947" lon="-8.49477">
        <ele>378.7</ele>
        <time>2016-07-20T08:40:04Z</time>
      </trkpt>
      <trkpt lat="42.88941" lon="-8.49488">
        <ele>378.5</ele>
        <time>2016-07-20T08:40:16Z</time>
      </trkpt>
      <trkpt lat="42.88936" lon="-8.49498">
        <ele>378.2</ele>
        <time>2016-07-20T08:40:26Z</time>
      </trkpt>
      <trkpt lat="42.88933" lon="-8.49511">
        <ele>377.5</ele>
        <time>2016-07-20T08:40:37Z</time>
      </trkpt>
      <trkpt lat="42.88929" lon="-8.49523">
        <ele>377.1</ele>
        <time>2016-07-20T08:40:46Z</time>
      </trkpt>
      <trkpt lat="42.88925" lon="-8.49534">
        <ele>376.8</ele>
        <time>2016-07-20T08:40:54Z</time>
      </trkpt>
      <trkpt lat="42.88923" lon="-8.49547">
        <ele>376.3</ele>
        <time>2016-07-20T08:41:02Z</time>
      </trkpt>
      <trkpt lat="42.88918" lon="-8.49559">
        <ele>375.8</ele>
        <time>2016-07-20T08:41:10Z</time>
      </trkpt>
      <trkpt lat="42.88914" lon="-8.49571">
        <ele>375.4</ele>
        <time>2016-07-20T08:41:18Z</time>
      </trkpt>
      <trkpt lat="42.88909" lon="-8.49582">
        <ele>375.1</ele>
        <time>2016-07-20T08:41:25Z</time>
      </trkpt>
      <trkpt lat="42.88905" lon="-8.49593">
        <ele>374.8</ele>
        <time>2016-07-20T08:41:33Z</time>
      </trkpt>
      <trkpt lat="42.88901" lon="-8.49605">
        <ele>373.9</ele>
        <time>2016-07-20T08:41:42Z</time>
      </trkpt>
      <trkpt lat="42.88896" lon="-8.49617">
        <ele>373.1</ele>
        <time>2016-07-20T08:41:52Z</time>
      </trkpt>
      <trkpt lat="42.88893" lon="-8.49629">
        <ele>372.4</ele>
        <time>2016-07-20T08:42:00Z</time>
      </trkpt>
      <trkpt lat="42.88887" lon="-8.49639">
        <ele>371.7</ele>
        <time>2016-07-20T08:42:09Z</time>
      </trkpt>
      <trkpt lat="42.88884" lon="-8.49652">
        <ele>370.8</ele>
        <time>2016-07-20T08:42:20Z</time>
      </trkpt>
      <trkpt lat="42.88882" lon="-8.49664">
        <ele>369.3</ele>
        <time>2016-07-20T08:42:30Z</time>
      </trkpt>
      <trkpt lat="42.88877" lon="-8.49676">
        <ele>368.1</ele>
        <time>2016-07-20T08:42:39Z</time>
      </trkpt>
      <trkpt lat="42.88872" lon="-8.49688">
        <ele>367.2</ele>
        <time>2016-07-20T08:42:49Z</time>
      </trkpt>
      <trkpt lat="42.88867" lon="-8.49699">
        <ele>366.3</ele>
        <time>2016-07-20T08:42:57Z</time>
      </trkpt>
      <trkpt lat="42.88863" lon="-8.4971">
        <ele>365.4</ele>
        <time>2016-07-20T08:43:05Z</time>
      </trkpt>
      <trkpt lat="42.88859" lon="-8.49722">
        <ele>364.1</ele>
        <time>2016-07-20T08:43:15Z</time>
      </trkpt>
      <trkpt lat="42.88855" lon="-8.49734">
        <ele>362.8</ele>
        <time>2016-07-20T08:43:24Z</time>
      </trkpt>
      <trkpt lat="42.8885" lon="-8.49746">
        <ele>361.5</ele>
        <time>2016-07-20T08:43:33Z</time>
      </trkpt>
      <trkpt lat="42.88847" lon="-8.49759">
        <ele>360.3</ele>
        <time>2016-07-20T08:43:42Z</time>
      </trkpt>
      <trkpt lat="42.88842" lon="-8.4977">
        <ele>359</ele>
        <time>2016-07-20T08:43:52Z</time>
      </trkpt>
      <trkpt lat="42.8884" lon="-8.49782">
        <ele>357.8</ele>
        <time>2016-07-20T08:44:01Z</time>
      </trkpt>
      <trkpt lat="42.88837" lon="-8.49794">
        <ele>357</ele>
        <time>2016-07-20T08:44:09Z</time>
      </trkpt>
      <trkpt lat="42.88835" lon="-8.49807">
        <ele>355.8</ele>
        <time>2016-07-20T08:44:18Z</time>
      </trkpt>
      <trkpt lat="42.88833" lon="-8.49819">
        <ele>354.5</ele>
        <time>2016-07-20T08:44:30Z</time>
      </trkpt>
      <trkpt lat="42.88829" lon="-8.49832">
        <ele>353.2</ele>
        <time>2016-07-20T08:44:40Z</time>
      </trkpt>
      <trkpt lat="42.88826" lon="-8.49844">
        <ele>352.4</ele>
        <time>2016-07-20T08:44:49Z</time>
      </trkpt>
      <trkpt lat="42.88821" lon="-8.49857">
        <ele>351.3</ele>
        <time>2016-07-20T08:44:58Z</time>
      </trkpt>
      <trkpt lat="42.88817" lon="-8.49869">
        <ele>349.7</ele>
        <time>2016-07-20T08:45:08Z</time>
      </trkpt>
      <trkpt lat="42.88813" lon="-8.49882">
        <ele>348.8</ele>
        <time>2016-07-20T08:45:16Z</time>
      </trkpt>
      <trkpt lat="42.8881" lon="-8.49895">
        <ele>347.5</ele>
        <time>2016-07-20T08:45:25Z</time>
      </trkpt>
      <trkpt lat="42.88807" lon="-8.49908">
        <ele>346.6</ele>
        <time>2016-07-20T08:45:32Z</time>
      </trkpt>
      <trkpt lat="42.88803" lon="-8.49919">
        <ele>345.7</ele>
        <time>2016-07-20T08:45:39Z</time>
      </trkpt>
      <trkpt lat="42.88798" lon="-8.49931">
        <ele>344.9</ele>
        <time>2016-07-20T08:45:47Z</time>
      </trkpt>
      <trkpt lat="42.88793" lon="-8.49943">
        <ele>344.2</ele>
        <time>2016-07-20T08:45:55Z</time>
      </trkpt>
      <trkpt lat="42.88788" lon="-8.49953">
        <ele>343.4</ele>
        <time>2016-07-20T08:46:03Z</time>
      </trkpt>
      <trkpt lat="42.88785" lon="-8.49967">
        <ele>342.4</ele>
        <time>2016-07-20T08:46:12Z</time>
      </trkpt>
      <trkpt lat="42.88781" lon="-8.49979">
        <ele>341.3</ele>
        <time>2016-07-20T08:46:21Z</time>
      </trkpt>
      <trkpt lat="42.88777" lon="-8.49991">
        <ele>340.1</ele>
        <time>2016-07-20T08:46:30Z</time>
      </trkpt>
      <trkpt lat="42.88777" lon="-8.50004">
        <ele>339.5</ele>
        <time>2016-07-20T08:46:38Z</time>
      </trkpt>
      <trkpt lat="42.88777" lon="-8.50018">
        <ele>338.7</ele>
        <time>2016-07-20T08:46:47Z</time>
      </trkpt>
      <trkpt lat="42.88777" lon="-8.50031">
        <ele>338</ele>
        <time>2016-07-20T08:46:56Z</time>
      </trkpt>
      <trkpt lat="42.88777" lon="-8.50044">
        <ele>337.1</ele>
        <time>2016-07-20T08:47:04Z</time>
      </trkpt>
      <trkpt lat="42.88778" lon="-8.50056">
        <ele>335.3</ele>
        <time>2016-07-20T08:47:13Z</time>
      </trkpt>
      <trkpt lat="42.88779" lon="-8.50068">
        <ele>333.8</ele>
        <time>2016-07-20T08:47:23Z</time>
      </trkpt>
      <trkpt lat="42.88783" lon="-8.5008">
        <ele>332.3</ele>
        <time>2016-07-20T08:47:33Z</time>
      </trkpt>
      <trkpt lat="42.88785" lon="-8.50092">
        <ele>331.1</ele>
        <time>2016-07-20T08:47:42Z</time>
      </trkpt>
      <trkpt lat="42.88789" lon="-8.50104">
        <ele>329.6</ele>
        <time>2016-07-20T08:47:50Z</time>
      </trkpt>
      <trkpt lat="42.88792" lon="-8.50115">
        <ele>328.1</ele>
        <time>2016-07-20T08:47:59Z</time>
      </trkpt>
      <trkpt lat="42.88793" lon="-8.50128">
        <ele>326.4</ele>
        <time>2016-07-20T08:48:07Z</time>
      </trkpt>
      <trkpt lat="42.88794" lon="-8.50141">
        <ele>324.9</ele>
        <time>2016-07-20T08:48:17Z</time>
      </trkpt>
      <trkpt lat="42.88796" lon="-8.50154">
        <ele>324</ele>
        <time>2016-07-20T08:48:26Z</time>
      </trkpt>
      <trkpt lat="42.88797" lon="-8.50167">
        <ele>323.3</ele>
        <time>2016-07-20T08:48:34Z</time>
      </trkpt>
      <trkpt lat="42.88794" lon="-8.50179">
        <ele>321.3</ele>
        <time>2016-07-20T08:48:42Z</time>
      </trkpt>
      <trkpt lat="42.8879" lon="-8.50189">
        <ele>320</ele>
        <time>2016-07-20T08:48:50Z</time>
      </trkpt>
      <trkpt lat="42.88785" lon="-8.50201">
        <ele>318.9</ele>
        <time>2016-07-20T08:48:58Z</time>
      </trkpt>
      <trkpt lat="42.88782" lon="-8.50214">
        <ele>318</ele>
        <time>2016-07-20T08:49:07Z</time>
      </trkpt>
      <trkpt lat="42.88778" lon="-8.50225">
        <ele>317.6</ele>
        <time>2016-07-20T08:49:15Z</time>
      </trkpt>
      <trkpt lat="42.88773" lon="-8.50237">
        <ele>317.4</ele>
        <time>2016-07-20T08:49:24Z</time>
      </trkpt>
      <trkpt lat="42.88774" lon="-8.50249">
        <ele>317.4</ele>
        <time>2016-07-20T08:49:45Z</time>
      </trkpt>
      <trkpt lat="42.88771" lon="-8.50262">
        <ele>317.2</ele>
        <time>2016-07-20T08:49:56Z</time>
      </trkpt>
      <trkpt lat="42.88768" lon="-8.50274">
        <ele>316.3</ele>
        <time>2016-07-20T08:50:06Z</time>
      </trkpt>
      <trkpt lat="42.88766" lon="-8.50286">
        <ele>314.8</ele>
        <time>2016-07-20T08:50:17Z</time>
      </trkpt>
      <trkpt lat="42.88762" lon="-8.50297">
        <ele>314.4</ele>
        <time>2016-07-20T08:50:26Z</time>
      </trkpt>
      <trkpt lat="42.88757" lon="-8.50309">
        <ele>314.1</ele>
        <time>2016-07-20T08:50:35Z</time>
      </trkpt>
      <trkpt lat="42.88754" lon="-8.50321">
        <ele>313.7</ele>
        <time>2016-07-20T08:50:45Z</time>
      </trkpt>
      <trkpt lat="42.88752" lon="-8.50335">
        <ele>313.4</ele>
        <time>2016-07-20T08:51:06Z</time>
      </trkpt>
      <trkpt lat="42.88751" lon="-8.50347">
        <ele>313.1</ele>
        <time>2016-07-20T08:51:17Z</time>
      </trkpt>
      <trkpt lat="42.88749" lon="-8.50359">
        <ele>312.4</ele>
        <time>2016-07-20T08:51:25Z</time>
      </trkpt>
      <trkpt lat="42.88747" lon="-8.50371">
        <ele>311.4</ele>
        <time>2016-07-20T08:51:33Z</time>
      </trkpt>
      <trkpt lat="42.88745" lon="-8.50383">
        <ele>310.4</ele>
        <time>2016-07-20T08:51:42Z</time>
      </trkpt>
      <trkpt lat="42.88741" lon="-8.50396">
        <ele>309.6</ele>
        <time>2016-07-20T08:51:51Z</time>
      </trkpt>
      <trkpt lat="42.88735" lon="-8.50406">
        <ele>308.9</ele>
        <time>2016-07-20T08:52:00Z</time>
      </trkpt>
      <trkpt lat="42.88732" lon="-8.50419">
        <ele>308.2</ele>
        <time>2016-07-20T08:52:10Z</time>
      </trkpt>
      <trkpt lat="42.88729" lon="-8.50431">
        <ele>307.6</ele>
        <time>2016-07-20T08:52:18Z</time>
      </trkpt>
      <trkpt lat="42.88724" lon="-8.50441">
        <ele>306</ele>
        <time>2016-07-20T08:52:37Z</time>
      </trkpt>
      <trkpt lat="42.88718" lon="-8.5045">
        <ele>304.8</ele>
        <time>2016-07-20T08:52:50Z</time>
      </trkpt>
      <trkpt lat="42.88712" lon="-8.50459">
        <ele>302.8</ele>
        <time>2016-07-20T08:53:13Z</time>
      </trkpt>
      <trkpt lat="42.88705" lon="-8.50469">
        <ele>299.8</ele>
        <time>2016-07-20T08:53:37Z</time>
      </trkpt>
      <trkpt lat="42.88699" lon="-8.50479">
        <ele>298.6</ele>
        <time>2016-07-20T08:53:49Z</time>
      </trkpt>
      <trkpt lat="42.88694" lon="-8.50489">
        <ele>298</ele>
        <time>2016-07-20T08:54:01Z</time>
      </trkpt>
      <trkpt lat="42.88689" lon="-8.505">
        <ele>297.2</ele>
        <time>2016-07-20T08:54:15Z</time>
      </trkpt>
      <trkpt lat="42.88684" lon="-8.50512">
        <ele>297</ele>
        <time>2016-07-20T08:54:25Z</time>
      </trkpt>
      <trkpt lat="42.88679" lon="-8.50523">
        <ele>296.2</ele>
        <time>2016-07-20T08:54:34Z</time>
      </trkpt>
      <trkpt lat="42.88675" lon="-8.50535">
        <ele>295.4</ele>
        <time>2016-07-20T08:54:44Z</time>
      </trkpt>
      <trkpt lat="42.88675" lon="-8.50547">
        <ele>294.7</ele>
        <time>2016-07-20T08:54:53Z</time>
      </trkpt>
      <trkpt lat="42.88673" lon="-8.5056">
        <ele>294.3</ele>
        <time>2016-07-20T08:55:02Z</time>
      </trkpt>
      <trkpt lat="42.8867" lon="-8.50573">
        <ele>293.7</ele>
        <time>2016-07-20T08:55:10Z</time>
      </trkpt>
      <trkpt lat="42.88667" lon="-8.50586">
        <ele>293</ele>
        <time>2016-07-20T08:55:19Z</time>
      </trkpt>
      <trkpt lat="42.88666" lon="-8.506">
        <ele>292.3</ele>
        <time>2016-07-20T08:55:29Z</time>
      </trkpt>
      <trkpt lat="42.88666" lon="-8.50612">
        <ele>291.8</ele>
        <time>2016-07-20T08:55:38Z</time>
      </trkpt>
      <trkpt lat="42.88664" lon="-8.50625">
        <ele>290.9</ele>
        <time>2016-07-20T08:55:47Z</time>
      </trkpt>
      <trkpt lat="42.88664" lon="-8.50637">
        <ele>289.8</ele>
        <time>2016-07-20T08:56:03Z</time>
      </trkpt>
      <trkpt lat="42.88661" lon="-8.50649">
        <ele>289.5</ele>
        <time>2016-07-20T08:56:15Z</time>
      </trkpt>
      <trkpt lat="42.8866" lon="-8.50661">
        <ele>288.6</ele>
        <time>2016-07-20T08:56:23Z</time>
      </trkpt>
      <trkpt lat="42.88658" lon="-8.50675">
        <ele>288</ele>
        <time>2016-07-20T08:56:31Z</time>
      </trkpt>
      <trkpt lat="42.88657" lon="-8.50687">
        <ele>287.6</ele>
        <time>2016-07-20T08:56:40Z</time>
      </trkpt>
      <trkpt lat="42.88657" lon="-8.507">
        <ele>287.1</ele>
        <time>2016-07-20T08:56:49Z</time>
      </trkpt>
      <trkpt lat="42.88658" lon="-8.50713">
        <ele>286.7</ele>
        <time>2016-07-20T08:56:59Z</time>
      </trkpt>
      <trkpt lat="42.88658" lon="-8.50726">
        <ele>286.2</ele>
        <time>2016-07-20T08:57:10Z</time>
      </trkpt>
      <trkpt lat="42.88656" lon="-8.50738">
        <ele>285.3</ele>
        <time>2016-07-20T08:57:26Z</time>
      </trkpt>
      <trkpt lat="42.88655" lon="-8.50751">
        <ele>284.9</ele>
        <time>2016-07-20T08:57:38Z</time>
      </trkpt>
      <trkpt lat="42.88654" lon="-8.50763">
        <ele>284.4</ele>
        <time>2016-07-20T08:57:47Z</time>
      </trkpt>
      <trkpt lat="42.88654" lon="-8.50776">
        <ele>283.9</ele>
        <time>2016-07-20T08:57:57Z</time>
      </trkpt>
      <trkpt lat="42.88653" lon="-8.50789">
        <ele>283.6</ele>
        <time>2016-07-20T08:58:08Z</time>
      </trkpt>
      <trkpt lat="42.88655" lon="-8.50802">
        <ele>283.2</ele>
        <time>2016-07-20T08:58:17Z</time>
      </trkpt>
      <trkpt lat="42.88656" lon="-8.50815">
        <ele>282.6</ele>
        <time>2016-07-20T08:58:27Z</time>
      </trkpt>
      <trkpt lat="42.88654" lon="-8.50828">
        <ele>282.5</ele>
        <time>2016-07-20T08:58:35Z</time>
      </trkpt>
      <trkpt lat="42.88652" lon="-8.50841">
        <ele>282.2</ele>
        <time>2016-07-20T08:58:44Z</time>
      </trkpt>
      <trkpt lat="42.88657" lon="-8.50853">
        <ele>282.2</ele>
        <time>2016-07-20T08:59:03Z</time>
      </trkpt>
      <trkpt lat="42.88656" lon="-8.50865">
        <ele>282.1</ele>
        <time>2016-07-20T08:59:11Z</time>
      </trkpt>
      <trkpt lat="42.88654" lon="-8.50878">
        <ele>282.3</ele>
        <time>2016-07-20T08:59:20Z</time>
      </trkpt>
      <trkpt lat="42.88652" lon="-8.5089">
        <ele>282.5</ele>
        <time>2016-07-20T08:59:29Z</time>
      </trkpt>
      <trkpt lat="42.88653" lon="-8.50903">
        <ele>282.6</ele>
        <time>2016-07-20T08:59:38Z</time>
      </trkpt>
      <trkpt lat="42.88652" lon="-8.50916">
        <ele>282.4</ele>
        <time>2016-07-20T08:59:55Z</time>
      </trkpt>
      <trkpt lat="42.8865" lon="-8.50928">
        <ele>282.3</ele>
        <time>2016-07-20T09:00:04Z</time>
      </trkpt>
      <trkpt lat="42.88648" lon="-8.5094">
        <ele>282.7</ele>
        <time>2016-07-20T09:00:17Z</time>
      </trkpt>
      <trkpt lat="42.88647" lon="-8.50953">
        <ele>283</ele>
        <time>2016-07-20T09:00:25Z</time>
      </trkpt>
      <trkpt lat="42.88646" lon="-8.50965">
        <ele>283</ele>
        <time>2016-07-20T09:00:33Z</time>
      </trkpt>
      <trkpt lat="42.88646" lon="-8.50979">
        <ele>282.8</ele>
        <time>2016-07-20T09:00:43Z</time>
      </trkpt>
      <trkpt lat="42.88643" lon="-8.50992">
        <ele>282.6</ele>
        <time>2016-07-20T09:00:52Z</time>
      </trkpt>
      <trkpt lat="42.88641" lon="-8.51004">
        <ele>282.9</ele>
        <time>2016-07-20T09:01:02Z</time>
      </trkpt>
      <trkpt lat="42.88636" lon="-8.51015">
        <ele>283.3</ele>
        <time>2016-07-20T09:01:13Z</time>
      </trkpt>
      <trkpt lat="42.88629" lon="-8.51025">
        <ele>283.9</ele>
        <time>2016-07-20T09:01:24Z</time>
      </trkpt>
      <trkpt lat="42.88623" lon="-8.51034">
        <ele>284.1</ele>
        <time>2016-07-20T09:01:33Z</time>
      </trkpt>
      <trkpt lat="42.88619" lon="-8.51046">
        <ele>284.3</ele>
        <time>2016-07-20T09:01:41Z</time>
      </trkpt>
      <trkpt lat="42.88618" lon="-8.51058">
        <ele>284.4</ele>
        <time>2016-07-20T09:01:49Z</time>
      </trkpt>
      <trkpt lat="42.88618" lon="-8.51071">
        <ele>284.6</ele>
        <time>2016-07-20T09:01:57Z</time>
      </trkpt>
      <trkpt lat="42.88617" lon="-8.51084">
        <ele>284.9</ele>
        <time>2016-07-20T09:02:08Z</time>
      </trkpt>
      <trkpt lat="42.88621" lon="-8.51096">
        <ele>285</ele>
        <time>2016-07-20T09:02:17Z</time>
      </trkpt>
      <trkpt lat="42.88627" lon="-8.51106">
        <ele>285</ele>
        <time>2016-07-20T09:02:29Z</time>
      </trkpt>
      <trkpt lat="42.88633" lon="-8.51116">
        <ele>284.6</ele>
        <time>2016-07-20T09:02:38Z</time>
      </trkpt>
      <trkpt lat="42.88639" lon="-8.51127">
        <ele>284.6</ele>
        <time>2016-07-20T09:02:47Z</time>
      </trkpt>
      <trkpt lat="42.88641" lon="-8.51139">
        <ele>284.5</ele>
        <time>2016-07-20T09:02:56Z</time>
      </trkpt>
      <trkpt lat="42.88643" lon="-8.51152">
        <ele>284.3</ele>
        <time>2016-07-20T09:03:06Z</time>
      </trkpt>
      <trkpt lat="42.88634" lon="-8.51147">
        <ele>284.7</ele>
        <time>2016-07-20T09:03:35Z</time>
      </trkpt>
      <trkpt lat="42.88625" lon="-8.5115">
        <ele>284.6</ele>
        <time>2016-07-20T09:03:47Z</time>
      </trkpt>
      <trkpt lat="42.88616" lon="-8.51148">
        <ele>284.5</ele>
        <time>2016-07-20T09:04:06Z</time>
      </trkpt>
      <trkpt lat="42.88624" lon="-8.51153">
        <ele>284.7</ele>
        <time>2016-07-20T09:04:36Z</time>
      </trkpt>
      <trkpt lat="42.88632" lon="-8.5116">
        <ele>284.6</ele>
        <time>2016-07-20T09:05:17Z</time>
      </trkpt>
      <trkpt lat="42.88635" lon="-8.51172">
        <ele>284.7</ele>
        <time>2016-07-20T09:05:30Z</time>
      </trkpt>
      <trkpt lat="42.88638" lon="-8.51184">
        <ele>284.6</ele>
        <time>2016-07-20T09:05:41Z</time>
      </trkpt>
      <trkpt lat="42.88637" lon="-8.51197">
        <ele>284.5</ele>
        <time>2016-07-20T09:05:51Z</time>
      </trkpt>
      <trkpt lat="42.88639" lon="-8.5121">
        <ele>284.4</ele>
        <time>2016-07-20T09:06:01Z</time>
      </trkpt>
      <trkpt lat="42.88639" lon="-8.51222">
        <ele>284.6</ele>
        <time>2016-07-20T09:06:10Z</time>
      </trkpt>
      <trkpt lat="42.88639" lon="-8.51235">
        <ele>285</ele>
        <time>2016-07-20T09:06:18Z</time>
      </trkpt>
      <trkpt lat="42.88641" lon="-8.51248">
        <ele>285.4</ele>
        <time>2016-07-20T09:06:28Z</time>
      </trkpt>
      <trkpt lat="42.88641" lon="-8.5126">
        <ele>285.6</ele>
        <time>2016-07-20T09:06:38Z</time>
      </trkpt>
      <trkpt lat="42.88641" lon="-8.51273">
        <ele>286.1</ele>
        <time>2016-07-20T09:06:47Z</time>
      </trkpt>
      <trkpt lat="42.88638" lon="-8.51286">
        <ele>286.2</ele>
        <time>2016-07-20T09:06:58Z</time>
      </trkpt>
      <trkpt lat="42.88636" lon="-8.51299">
        <ele>286.1</ele>
        <time>2016-07-20T09:07:08Z</time>
      </trkpt>
      <trkpt lat="42.88635" lon="-8.51312">
        <ele>286.5</ele>
        <time>2016-07-20T09:07:17Z</time>
      </trkpt>
      <trkpt lat="42.88635" lon="-8.51325">
        <ele>286.8</ele>
        <time>2016-07-20T09:07:26Z</time>
      </trkpt>
      <trkpt lat="42.88635" lon="-8.51338">
        <ele>287.1</ele>
        <time>2016-07-20T09:07:36Z</time>
      </trkpt>
      <trkpt lat="42.88634" lon="-8.5135">
        <ele>287.5</ele>
        <time>2016-07-20T09:07:45Z</time>
      </trkpt>
      <trkpt lat="42.88633" lon="-8.51363">
        <ele>288.1</ele>
        <time>2016-07-20T09:07:54Z</time>
      </trkpt>
      <trkpt lat="42.88632" lon="-8.51376">
        <ele>288.1</ele>
        <time>2016-07-20T09:08:04Z</time>
      </trkpt>
      <trkpt lat="42.88631" lon="-8.51389">
        <ele>288.2</ele>
        <time>2016-07-20T09:08:15Z</time>
      </trkpt>
      <trkpt lat="42.8863" lon="-8.51401">
        <ele>288.4</ele>
        <time>2016-07-20T09:08:25Z</time>
      </trkpt>
      <trkpt lat="42.88631" lon="-8.51414">
        <ele>288.6</ele>
        <time>2016-07-20T09:08:35Z</time>
      </trkpt>
      <trkpt lat="42.88633" lon="-8.51426">
        <ele>288.9</ele>
        <time>2016-07-20T09:08:48Z</time>
      </trkpt>
      <trkpt lat="42.88633" lon="-8.51439">
        <ele>289.7</ele>
        <time>2016-07-20T09:08:59Z</time>
      </trkpt>
      <trkpt lat="42.88631" lon="-8.51451">
        <ele>290.1</ele>
        <time>2016-07-20T09:09:08Z</time>
      </trkpt>
      <trkpt lat="42.88628" lon="-8.51464">
        <ele>290.4</ele>
        <time>2016-07-20T09:09:17Z</time>
      </trkpt>
      <trkpt lat="42.88629" lon="-8.51477">
        <ele>290.5</ele>
        <time>2016-07-20T09:09:27Z</time>
      </trkpt>
      <trkpt lat="42.88631" lon="-8.51489">
        <ele>290.6</ele>
        <time>2016-07-20T09:09:36Z</time>
      </trkpt>
      <trkpt lat="42.88633" lon="-8.51501">
        <ele>290.8</ele>
        <time>2016-07-20T09:09:44Z</time>
      </trkpt>
      <trkpt lat="42.88635" lon="-8.51513">
        <ele>291.1</ele>
        <time>2016-07-20T09:09:52Z</time>
      </trkpt>
      <trkpt lat="42.88635" lon="-8.51527">
        <ele>291.6</ele>
        <time>2016-07-20T09:10:00Z</time>
      </trkpt>
      <trkpt lat="42.88633" lon="-8.5154">
        <ele>292</ele>
        <time>2016-07-20T09:10:09Z</time>
      </trkpt>
      <trkpt lat="42.8863" lon="-8.51551">
        <ele>292.1</ele>
        <time>2016-07-20T09:10:17Z</time>
      </trkpt>
      <trkpt lat="42.88628" lon="-8.51565">
        <ele>292.6</ele>
        <time>2016-07-20T09:10:27Z</time>
      </trkpt>
      <trkpt lat="42.88629" lon="-8.51577">
        <ele>293.4</ele>
        <time>2016-07-20T09:10:38Z</time>
      </trkpt>
      <trkpt lat="42.8863" lon="-8.51589">
        <ele>293.8</ele>
        <time>2016-07-20T09:10:52Z</time>
      </trkpt>
      <trkpt lat="42.88631" lon="-8.51602">
        <ele>294.1</ele>
        <time>2016-07-20T09:11:03Z</time>
      </trkpt>
      <trkpt lat="42.8863" lon="-8.51615">
        <ele>294.1</ele>
        <time>2016-07-20T09:11:13Z</time>
      </trkpt>
      <trkpt lat="42.88627" lon="-8.51627">
        <ele>294</ele>
        <time>2016-07-20T09:11:23Z</time>
      </trkpt>
      <trkpt lat="42.88626" lon="-8.51639">
        <ele>294.4</ele>
        <time>2016-07-20T09:11:32Z</time>
      </trkpt>
      <trkpt lat="42.88626" lon="-8.51653">
        <ele>294.3</ele>
        <time>2016-07-20T09:11:41Z</time>
      </trkpt>
      <trkpt lat="42.88625" lon="-8.51666">
        <ele>294.8</ele>
        <time>2016-07-20T09:11:50Z</time>
      </trkpt>
      <trkpt lat="42.88624" lon="-8.51679">
        <ele>295.4</ele>
        <time>2016-07-20T09:11:59Z</time>
      </trkpt>
      <trkpt lat="42.8862" lon="-8.5169">
        <ele>295.5</ele>
        <time>2016-07-20T09:12:08Z</time>
      </trkpt>
      <trkpt lat="42.88621" lon="-8.51704">
        <ele>295.8</ele>
        <time>2016-07-20T09:12:18Z</time>
      </trkpt>
      <trkpt lat="42.88622" lon="-8.51716">
        <ele>295.9</ele>
        <time>2016-07-20T09:12:26Z</time>
      </trkpt>
      <trkpt lat="42.8863" lon="-8.51724">
        <ele>296.1</ele>
        <time>2016-07-20T09:12:36Z</time>
      </trkpt>
      <trkpt lat="42.88635" lon="-8.51735">
        <ele>296.5</ele>
        <time>2016-07-20T09:12:46Z</time>
      </trkpt>
      <trkpt lat="42.88637" lon="-8.51748">
        <ele>296.7</ele>
        <time>2016-07-20T09:12:55Z</time>
      </trkpt>
      <trkpt lat="42.88637" lon="-8.51761">
        <ele>296.6</ele>
        <time>2016-07-20T09:13:04Z</time>
      </trkpt>
      <trkpt lat="42.88639" lon="-8.51774">
        <ele>296.7</ele>
        <time>2016-07-20T09:13:13Z</time>
      </trkpt>
      <trkpt lat="42.88641" lon="-8.51785">
        <ele>296.8</ele>
        <time>2016-07-20T09:13:22Z</time>
      </trkpt>
      <trkpt lat="42.88643" lon="-8.51797">
        <ele>296.9</ele>
        <time>2016-07-20T09:13:31Z</time>
      </trkpt>
      <trkpt lat="42.88645" lon="-8.5181">
        <ele>296.9</ele>
        <time>2016-07-20T09:13:41Z</time>
      </trkpt>
      <trkpt lat="42.88647" lon="-8.51823">
        <ele>297</ele>
        <time>2016-07-20T09:13:52Z</time>
      </trkpt>
      <trkpt lat="42.8865" lon="-8.51836">
        <ele>297.1</ele>
        <time>2016-07-20T09:14:03Z</time>
      </trkpt>
      <trkpt lat="42.88655" lon="-8.51847">
        <ele>297.6</ele>
        <time>2016-07-20T09:14:13Z</time>
      </trkpt>
      <trkpt lat="42.88657" lon="-8.5186">
        <ele>298</ele>
        <time>2016-07-20T09:14:22Z</time>
      </trkpt>
      <trkpt lat="42.88661" lon="-8.51872">
        <ele>298.4</ele>
        <time>2016-07-20T09:14:33Z</time>
      </trkpt>
      <trkpt lat="42.88661" lon="-8.51884">
        <ele>298.6</ele>
        <time>2016-07-20T09:14:42Z</time>
      </trkpt>
      <trkpt lat="42.88661" lon="-8.51897">
        <ele>298.9</ele>
        <time>2016-07-20T09:14:51Z</time>
      </trkpt>
      <trkpt lat="42.88659" lon="-8.5191">
        <ele>299</ele>
        <time>2016-07-20T09:15:00Z</time>
      </trkpt>
      <trkpt lat="42.88662" lon="-8.51923">
        <ele>299.3</ele>
        <time>2016-07-20T09:15:09Z</time>
      </trkpt>
      <trkpt lat="42.88667" lon="-8.51935">
        <ele>299.5</ele>
        <time>2016-07-20T09:15:19Z</time>
      </trkpt>
      <trkpt lat="42.88668" lon="-8.51948">
        <ele>299.2</ele>
        <time>2016-07-20T09:15:28Z</time>
      </trkpt>
      <trkpt lat="42.88668" lon="-8.51961">
        <ele>299.2</ele>
        <time>2016-07-20T09:15:37Z</time>
      </trkpt>
      <trkpt lat="42.88671" lon="-8.51974">
        <ele>299.2</ele>
        <time>2016-07-20T09:15:46Z</time>
      </trkpt>
      <trkpt lat="42.88672" lon="-8.51986">
        <ele>299.1</ele>
        <time>2016-07-20T09:15:54Z</time>
      </trkpt>
      <trkpt lat="42.88669" lon="-8.51998">
        <ele>299.1</ele>
        <time>2016-07-20T09:16:05Z</time>
      </trkpt>
      <trkpt lat="42.88671" lon="-8.52011">
        <ele>299</ele>
        <time>2016-07-20T09:16:15Z</time>
      </trkpt>
      <trkpt lat="42.88672" lon="-8.52024">
        <ele>299</ele>
        <time>2016-07-20T09:16:24Z</time>
      </trkpt>
      <trkpt lat="42.88674" lon="-8.52036">
        <ele>298.9</ele>
        <time>2016-07-20T09:16:35Z</time>
      </trkpt>
      <trkpt lat="42.88675" lon="-8.5205">
        <ele>298.6</ele>
        <time>2016-07-20T09:16:47Z</time>
      </trkpt>
      <trkpt lat="42.88677" lon="-8.52062">
        <ele>297.8</ele>
        <time>2016-07-20T09:16:57Z</time>
      </trkpt>
      <trkpt lat="42.88678" lon="-8.52075">
        <ele>297.5</ele>
        <time>2016-07-20T09:17:06Z</time>
      </trkpt>
      <trkpt lat="42.88683" lon="-8.52085">
        <ele>297.5</ele>
        <time>2016-07-20T09:17:14Z</time>
      </trkpt>
      <trkpt lat="42.88689" lon="-8.52094">
        <ele>297.4</ele>
        <time>2016-07-20T09:17:21Z</time>
      </trkpt>
      <trkpt lat="42.88693" lon="-8.52106">
        <ele>297.1</ele>
        <time>2016-07-20T09:17:31Z</time>
      </trkpt>
      <trkpt lat="42.88692" lon="-8.52118">
        <ele>296.6</ele>
        <time>2016-07-20T09:17:47Z</time>
      </trkpt>
      <trkpt lat="42.88694" lon="-8.5213">
        <ele>296.3</ele>
        <time>2016-07-20T09:17:55Z</time>
      </trkpt>
      <trkpt lat="42.88696" lon="-8.52143">
        <ele>295.8</ele>
        <time>2016-07-20T09:18:04Z</time>
      </trkpt>
      <trkpt lat="42.88702" lon="-8.52153">
        <ele>295.7</ele>
        <time>2016-07-20T09:18:14Z</time>
      </trkpt>
      <trkpt lat="42.88703" lon="-8.52166">
        <ele>295.7</ele>
        <time>2016-07-20T09:18:26Z</time>
      </trkpt>
      <trkpt lat="42.88704" lon="-8.52179">
        <ele>295.5</ele>
        <time>2016-07-20T09:18:35Z</time>
      </trkpt>
      <trkpt lat="42.88707" lon="-8.52191">
        <ele>295.3</ele>
        <time>2016-07-20T09:18:45Z</time>
      </trkpt>
      <trkpt lat="42.88708" lon="-8.52204">
        <ele>295.1</ele>
        <time>2016-07-20T09:18:54Z</time>
      </trkpt>
      <trkpt lat="42.8871" lon="-8.52218">
        <ele>294.7</ele>
        <time>2016-07-20T09:19:06Z</time>
      </trkpt>
      <trkpt lat="42.88711" lon="-8.5223">
        <ele>294.6</ele>
        <time>2016-07-20T09:19:14Z</time>
      </trkpt>
      <trkpt lat="42.88713" lon="-8.52244">
        <ele>294</ele>
        <time>2016-07-20T09:19:23Z</time>
      </trkpt>
      <trkpt lat="42.88719" lon="-8.52255">
        <ele>293.8</ele>
        <time>2016-07-20T09:19:32Z</time>
      </trkpt>
      <trkpt lat="42.88724" lon="-8.52265">
        <ele>293.7</ele>
        <time>2016-07-20T09:19:39Z</time>
      </trkpt>
      <trkpt lat="42.88731" lon="-8.52275">
        <ele>293.7</ele>
        <time>2016-07-20T09:19:46Z</time>
      </trkpt>
      <trkpt lat="42.88736" lon="-8.52287">
        <ele>293.6</ele>
        <time>2016-07-20T09:19:54Z</time>
      </trkpt>
      <trkpt lat="42.88739" lon="-8.52298">
        <ele>293.6</ele>
        <time>2016-07-20T09:20:03Z</time>
      </trkpt>
      <trkpt lat="42.88737" lon="-8.52311">
        <ele>293.4</ele>
        <time>2016-07-20T09:20:14Z</time>
      </trkpt>
      <trkpt lat="42.88739" lon="-8.52324">
        <ele>293.1</ele>
        <time>2016-07-20T09:20:23Z</time>
      </trkpt>
      <trkpt lat="42.88736" lon="-8.52337">
        <ele>292.7</ele>
        <time>2016-07-20T09:20:33Z</time>
      </trkpt>
      <trkpt lat="42.88731" lon="-8.52348">
        <ele>292.1</ele>
        <time>2016-07-20T09:20:42Z</time>
      </trkpt>
      <trkpt lat="42.88728" lon="-8.52359">
        <ele>291.6</ele>
        <time>2016-07-20T09:20:51Z</time>
      </trkpt>
      <trkpt lat="42.88729" lon="-8.52372">
        <ele>291</ele>
        <time>2016-07-20T09:21:02Z</time>
      </trkpt>
      <trkpt lat="42.88726" lon="-8.52385">
        <ele>290.9</ele>
        <time>2016-07-20T09:21:12Z</time>
      </trkpt>
      <trkpt lat="42.88725" lon="-8.52398">
        <ele>291.1</ele>
        <time>2016-07-20T09:21:21Z</time>
      </trkpt>
      <trkpt lat="42.88725" lon="-8.52411">
        <ele>291.3</ele>
        <time>2016-07-20T09:21:30Z</time>
      </trkpt>
      <trkpt lat="42.88723" lon="-8.52424">
        <ele>291.4</ele>
        <time>2016-07-20T09:21:38Z</time>
      </trkpt>
      <trkpt lat="42.88721" lon="-8.52437">
        <ele>291.3</ele>
        <time>2016-07-20T09:21:47Z</time>
      </trkpt>
      <trkpt lat="42.88722" lon="-8.52451">
        <ele>291.3</ele>
        <time>2016-07-20T09:21:56Z</time>
      </trkpt>
      <trkpt lat="42.88722" lon="-8.52464">
        <ele>291.2</ele>
        <time>2016-07-20T09:22:04Z</time>
      </trkpt>
      <trkpt lat="42.88722" lon="-8.52477">
        <ele>290.8</ele>
        <time>2016-07-20T09:22:12Z</time>
      </trkpt>
      <trkpt lat="42.8872" lon="-8.5249">
        <ele>290.6</ele>
        <time>2016-07-20T09:22:21Z</time>
      </trkpt>
      <trkpt lat="42.88719" lon="-8.52503">
        <ele>290.6</ele>
        <time>2016-07-20T09:22:30Z</time>
      </trkpt>
      <trkpt lat="42.88718" lon="-8.52515">
        <ele>290.5</ele>
        <time>2016-07-20T09:22:40Z</time>
      </trkpt>
      <trkpt lat="42.88716" lon="-8.52528">
        <ele>290.6</ele>
        <time>2016-07-20T09:22:51Z</time>
      </trkpt>
      <trkpt lat="42.88714" lon="-8.52541">
        <ele>290.6</ele>
        <time>2016-07-20T09:23:01Z</time>
      </trkpt>
      <trkpt lat="42.88711" lon="-8.52553">
        <ele>290.3</ele>
        <time>2016-07-20T09:23:10Z</time>
      </trkpt>
      <trkpt lat="42.88705" lon="-8.52562">
        <ele>290.1</ele>
        <time>2016-07-20T09:23:20Z</time>
      </trkpt>
      <trkpt lat="42.887" lon="-8.52573">
        <ele>290</ele>
        <time>2016-07-20T09:23:29Z</time>
      </trkpt>
      <trkpt lat="42.88695" lon="-8.52584">
        <ele>289.7</ele>
        <time>2016-07-20T09:23:37Z</time>
      </trkpt>
      <trkpt lat="42.88692" lon="-8.52597">
        <ele>289.5</ele>
        <time>2016-07-20T09:23:45Z</time>
      </trkpt>
      <trkpt lat="42.88689" lon="-8.52609">
        <ele>290.1</ele>
        <time>2016-07-20T09:23:53Z</time>
      </trkpt>
      <trkpt lat="42.88683" lon="-8.5262">
        <ele>290.6</ele>
        <time>2016-07-20T09:24:02Z</time>
      </trkpt>
      <trkpt lat="42.88681" lon="-8.52632">
        <ele>290.5</ele>
        <time>2016-07-20T09:24:11Z</time>
      </trkpt>
      <trkpt lat="42.88675" lon="-8.52642">
        <ele>290.4</ele>
        <time>2016-07-20T09:24:21Z</time>
      </trkpt>
      <trkpt lat="42.88669" lon="-8.52653">
        <ele>290.3</ele>
        <time>2016-07-20T09:24:30Z</time>
      </trkpt>
      <trkpt lat="42.88665" lon="-8.52665">
        <ele>290</ele>
        <time>2016-07-20T09:24:40Z</time>
      </trkpt>
      <trkpt lat="42.8866" lon="-8.52675">
        <ele>290.3</ele>
        <time>2016-07-20T09:24:50Z</time>
      </trkpt>
      <trkpt lat="42.88654" lon="-8.52686">
        <ele>290.5</ele>
        <time>2016-07-20T09:24:59Z</time>
      </trkpt>
      <trkpt lat="42.8865" lon="-8.52697">
        <ele>289.9</ele>
        <time>2016-07-20T09:25:09Z</time>
      </trkpt>
      <trkpt lat="42.88645" lon="-8.52709">
        <ele>290.1</ele>
        <time>2016-07-20T09:25:17Z</time>
      </trkpt>
      <trkpt lat="42.88643" lon="-8.52721">
        <ele>290</ele>
        <time>2016-07-20T09:25:38Z</time>
      </trkpt>
      <trkpt lat="42.88637" lon="-8.52731">
        <ele>290</ele>
        <time>2016-07-20T09:25:48Z</time>
      </trkpt>
      <trkpt lat="42.88631" lon="-8.52742">
        <ele>290</ele>
        <time>2016-07-20T09:25:57Z</time>
      </trkpt>
      <trkpt lat="42.88625" lon="-8.52751">
        <ele>290.1</ele>
        <time>2016-07-20T09:26:08Z</time>
      </trkpt>
      <trkpt lat="42.88621" lon="-8.52762">
        <ele>290.1</ele>
        <time>2016-07-20T09:26:17Z</time>
      </trkpt>
      <trkpt lat="42.88618" lon="-8.52774">
        <ele>289.7</ele>
        <time>2016-07-20T09:26:34Z</time>
      </trkpt>
      <trkpt lat="42.88614" lon="-8.52786">
        <ele>289.3</ele>
        <time>2016-07-20T09:26:44Z</time>
      </trkpt>
      <trkpt lat="42.88611" lon="-8.52798">
        <ele>289.1</ele>
        <time>2016-07-20T09:26:54Z</time>
      </trkpt>
      <trkpt lat="42.8861" lon="-8.52811">
        <ele>289</ele>
        <time>2016-07-20T09:27:04Z</time>
      </trkpt>
      <trkpt lat="42.88609" lon="-8.52824">
        <ele>288.7</ele>
        <time>2016-07-20T09:27:13Z</time>
      </trkpt>
      <trkpt lat="42.88609" lon="-8.52836">
        <ele>288.1</ele>
        <time>2016-07-20T09:27:23Z</time>
      </trkpt>
      <trkpt lat="42.88611" lon="-8.5285">
        <ele>287.5</ele>
        <time>2016-07-20T09:27:33Z</time>
      </trkpt>
      <trkpt lat="42.88612" lon="-8.52863">
        <ele>287.1</ele>
        <time>2016-07-20T09:27:42Z</time>
      </trkpt>
      <trkpt lat="42.88613" lon="-8.52875">
        <ele>286.7</ele>
        <time>2016-07-20T09:27:51Z</time>
      </trkpt>
      <trkpt lat="42.88614" lon="-8.52888">
        <ele>286.2</ele>
        <time>2016-07-20T09:28:01Z</time>
      </trkpt>
      <trkpt lat="42.88613" lon="-8.52901">
        <ele>285.3</ele>
        <time>2016-07-20T09:28:12Z</time>
      </trkpt>
      <trkpt lat="42.88611" lon="-8.52914">
        <ele>284.9</ele>
        <time>2016-07-20T09:28:22Z</time>
      </trkpt>
      <trkpt lat="42.8861" lon="-8.52927">
        <ele>284.7</ele>
        <time>2016-07-20T09:28:31Z</time>
      </trkpt>
      <trkpt lat="42.88608" lon="-8.5294">
        <ele>284.4</ele>
        <time>2016-07-20T09:28:41Z</time>
      </trkpt>
      <trkpt lat="42.88606" lon="-8.52953">
        <ele>284</ele>
        <time>2016-07-20T09:28:54Z</time>
      </trkpt>
      <trkpt lat="42.88605" lon="-8.52965">
        <ele>283.7</ele>
        <time>2016-07-20T09:29:03Z</time>
      </trkpt>
      <trkpt lat="42.88601" lon="-8.52977">
        <ele>283.5</ele>
        <time>2016-07-20T09:29:12Z</time>
      </trkpt>
      <trkpt lat="42.88599" lon="-8.52989">
        <ele>283.1</ele>
        <time>2016-07-20T09:29:20Z</time>
      </trkpt>
      <trkpt lat="42.88598" lon="-8.53001">
        <ele>282.9</ele>
        <time>2016-07-20T09:29:28Z</time>
      </trkpt>
      <trkpt lat="42.88594" lon="-8.53013">
        <ele>282.8</ele>
        <time>2016-07-20T09:29:38Z</time>
      </trkpt>
      <trkpt lat="42.88589" lon="-8.53024">
        <ele>282.7</ele>
        <time>2016-07-20T09:29:48Z</time>
      </trkpt>
      <trkpt lat="42.88582" lon="-8.53033">
        <ele>282.6</ele>
        <time>2016-07-20T09:29:57Z</time>
      </trkpt>
      <trkpt lat="42.88574" lon="-8.53041">
        <ele>282.6</ele>
        <time>2016-07-20T09:30:05Z</time>
      </trkpt>
      <trkpt lat="42.88565" lon="-8.53049">
        <ele>282.6</ele>
        <time>2016-07-20T09:30:13Z</time>
      </trkpt>
      <trkpt lat="42.8856" lon="-8.53058">
        <ele>282.6</ele>
        <time>2016-07-20T09:30:23Z</time>
      </trkpt>
      <trkpt lat="42.88552" lon="-8.53067">
        <ele>282.9</ele>
        <time>2016-07-20T09:30:32Z</time>
      </trkpt>
      <trkpt lat="42.88546" lon="-8.53077">
        <ele>282.7</ele>
        <time>2016-07-20T09:30:41Z</time>
      </trkpt>
      <trkpt lat="42.88539" lon="-8.53087">
        <ele>282.5</ele>
        <time>2016-07-20T09:30:51Z</time>
      </trkpt>
      <trkpt lat="42.88533" lon="-8.53097">
        <ele>282.6</ele>
        <time>2016-07-20T09:31:02Z</time>
      </trkpt>
      <trkpt lat="42.88527" lon="-8.53107">
        <ele>282.2</ele>
        <time>2016-07-20T09:31:14Z</time>
      </trkpt>
      <trkpt lat="42.88523" lon="-8.53119">
        <ele>282</ele>
        <time>2016-07-20T09:31:23Z</time>
      </trkpt>
      <trkpt lat="42.88517" lon="-8.53127">
        <ele>282</ele>
        <time>2016-07-20T09:31:31Z</time>
      </trkpt>
      <trkpt lat="42.88511" lon="-8.53137">
        <ele>282.1</ele>
        <time>2016-07-20T09:31:40Z</time>
      </trkpt>
      <trkpt lat="42.88506" lon="-8.53148">
        <ele>282</ele>
        <time>2016-07-20T09:31:49Z</time>
      </trkpt>
      <trkpt lat="42.885" lon="-8.53159">
        <ele>281.5</ele>
        <time>2016-07-20T09:31:58Z</time>
      </trkpt>
      <trkpt lat="42.88498" lon="-8.53172">
        <ele>281.3</ele>
        <time>2016-07-20T09:32:09Z</time>
      </trkpt>
      <trkpt lat="42.88497" lon="-8.53185">
        <ele>281.1</ele>
        <time>2016-07-20T09:32:18Z</time>
      </trkpt>
      <trkpt lat="42.88501" lon="-8.53197">
        <ele>280.7</ele>
        <time>2016-07-20T09:32:29Z</time>
      </trkpt>
      <trkpt lat="42.88507" lon="-8.53207">
        <ele>280.4</ele>
        <time>2016-07-20T09:32:40Z</time>
      </trkpt>
      <trkpt lat="42.88512" lon="-8.53219">
        <ele>280.2</ele>
        <time>2016-07-20T09:32:52Z</time>
      </trkpt>
      <trkpt lat="42.88518" lon="-8.53228">
        <ele>280</ele>
        <time>2016-07-20T09:33:00Z</time>
      </trkpt>
      <trkpt lat="42.88526" lon="-8.53237">
        <ele>279.4</ele>
        <time>2016-07-20T09:33:08Z</time>
      </trkpt>
      <trkpt lat="42.88531" lon="-8.53248">
        <ele>279</ele>
        <time>2016-07-20T09:33:17Z</time>
      </trkpt>
      <trkpt lat="42.88533" lon="-8.53261">
        <ele>278.3</ele>
        <time>2016-07-20T09:33:26Z</time>
      </trkpt>
      <trkpt lat="42.88532" lon="-8.53273">
        <ele>277.7</ele>
        <time>2016-07-20T09:33:34Z</time>
      </trkpt>
      <trkpt lat="42.88528" lon="-8.53285">
        <ele>277.1</ele>
        <time>2016-07-20T09:33:42Z</time>
      </trkpt>
      <trkpt lat="42.88521" lon="-8.53293">
        <ele>276.7</ele>
        <time>2016-07-20T09:33:52Z</time>
      </trkpt>
      <trkpt lat="42.88514" lon="-8.53302">
        <ele>276.5</ele>
        <time>2016-07-20T09:34:00Z</time>
      </trkpt>
      <trkpt lat="42.88507" lon="-8.53311">
        <ele>276.4</ele>
        <time>2016-07-20T09:34:11Z</time>
      </trkpt>
      <trkpt lat="42.885" lon="-8.5332">
        <ele>276.4</ele>
        <time>2016-07-20T09:34:20Z</time>
      </trkpt>
      <trkpt lat="42.88493" lon="-8.53328">
        <ele>276.2</ele>
        <time>2016-07-20T09:34:29Z</time>
      </trkpt>
      <trkpt lat="42.88486" lon="-8.53337">
        <ele>275.6</ele>
        <time>2016-07-20T09:34:39Z</time>
      </trkpt>
      <trkpt lat="42.88477" lon="-8.53336">
        <ele>275.3</ele>
        <time>2016-07-20T09:34:50Z</time>
      </trkpt>
      <trkpt lat="42.8847" lon="-8.53327">
        <ele>275</ele>
        <time>2016-07-20T09:35:02Z</time>
      </trkpt>
      <trkpt lat="42.88462" lon="-8.53321">
        <ele>274.7</ele>
        <time>2016-07-20T09:35:12Z</time>
      </trkpt>
      <trkpt lat="42.88453" lon="-8.53316">
        <ele>274.1</ele>
        <time>2016-07-20T09:35:19Z</time>
      </trkpt>
      <trkpt lat="42.88444" lon="-8.53313">
        <ele>273.1</ele>
        <time>2016-07-20T09:35:29Z</time>
      </trkpt>
      <trkpt lat="42.88435" lon="-8.53314">
        <ele>272.5</ele>
        <time>2016-07-20T09:35:41Z</time>
      </trkpt>
      <trkpt lat="42.88427" lon="-8.53321">
        <ele>272.4</ele>
        <time>2016-07-20T09:35:49Z</time>
      </trkpt>
      <trkpt lat="42.88418" lon="-8.53326">
        <ele>272.2</ele>
        <time>2016-07-20T09:35:59Z</time>
      </trkpt>
      <trkpt lat="42.88413" lon="-8.53337">
        <ele>272.7</ele>
        <time>2016-07-20T09:36:14Z</time>
      </trkpt>
      <trkpt lat="42.88409" lon="-8.53348">
        <ele>272.9</ele>
        <time>2016-07-20T09:36:29Z</time>
      </trkpt>
      <trkpt lat="42.88414" lon="-8.53337">
        <ele>272.9</ele>
        <time>2016-07-20T09:36:52Z</time>
      </trkpt>
      <trkpt lat="42.88417" lon="-8.53325">
        <ele>273</ele>
        <time>2016-07-20T09:36:59Z</time>
      </trkpt>
      <trkpt lat="42.88424" lon="-8.53333">
        <ele>274</ele>
        <time>2016-07-20T09:37:10Z</time>
      </trkpt>
      <trkpt lat="42.88425" lon="-8.53346">
        <ele>274.4</ele>
        <time>2016-07-20T09:37:16Z</time>
      </trkpt>
      <trkpt lat="42.88425" lon="-8.5336">
        <ele>275.1</ele>
        <time>2016-07-20T09:37:23Z</time>
      </trkpt>
      <trkpt lat="42.88424" lon="-8.53373">
        <ele>275.8</ele>
        <time>2016-07-20T09:37:30Z</time>
      </trkpt>
      <trkpt lat="42.88419" lon="-8.53384">
        <ele>276.3</ele>
        <time>2016-07-20T09:37:39Z</time>
      </trkpt>
      <trkpt lat="42.88415" lon="-8.53397">
        <ele>276.7</ele>
        <time>2016-07-20T09:37:47Z</time>
      </trkpt>
      <trkpt lat="42.88407" lon="-8.53405">
        <ele>276.8</ele>
        <time>2016-07-20T09:37:56Z</time>
      </trkpt>
      <trkpt lat="42.88398" lon="-8.53411">
        <ele>276.8</ele>
        <time>2016-07-20T09:38:04Z</time>
      </trkpt>
      <trkpt lat="42.88389" lon="-8.53416">
        <ele>277</ele>
        <time>2016-07-20T09:38:14Z</time>
      </trkpt>
      <trkpt lat="42.8838" lon="-8.53421">
        <ele>277.2</ele>
        <time>2016-07-20T09:38:25Z</time>
      </trkpt>
      <trkpt lat="42.8837" lon="-8.53421">
        <ele>277.4</ele>
        <time>2016-07-20T09:38:35Z</time>
      </trkpt>
      <trkpt lat="42.8836" lon="-8.53424">
        <ele>277.7</ele>
        <time>2016-07-20T09:38:46Z</time>
      </trkpt>
      <trkpt lat="42.88351" lon="-8.53423">
        <ele>277.8</ele>
        <time>2016-07-20T09:38:55Z</time>
      </trkpt>
      <trkpt lat="42.88342" lon="-8.53427">
        <ele>278.1</ele>
        <time>2016-07-20T09:39:06Z</time>
      </trkpt>
      <trkpt lat="42.88333" lon="-8.53431">
        <ele>278.3</ele>
        <time>2016-07-20T09:39:17Z</time>
      </trkpt>
      <trkpt lat="42.88324" lon="-8.53433">
        <ele>278.6</ele>
        <time>2016-07-20T09:39:25Z</time>
      </trkpt>
      <trkpt lat="42.88315" lon="-8.53436">
        <ele>279</ele>
        <time>2016-07-20T09:39:35Z</time>
      </trkpt>
      <trkpt lat="42.88305" lon="-8.53437">
        <ele>279.1</ele>
        <time>2016-07-20T09:39:46Z</time>
      </trkpt>
      <trkpt lat="42.88296" lon="-8.53437">
        <ele>279.1</ele>
        <time>2016-07-20T09:39:54Z</time>
      </trkpt>
      <trkpt lat="42.88287" lon="-8.53438">
        <ele>279.6</ele>
        <time>2016-07-20T09:40:05Z</time>
      </trkpt>
      <trkpt lat="42.88278" lon="-8.5344">
        <ele>279.9</ele>
        <time>2016-07-20T09:40:16Z</time>
      </trkpt>
      <trkpt lat="42.88268" lon="-8.53441">
        <ele>280.1</ele>
        <time>2016-07-20T09:40:26Z</time>
      </trkpt>
      <trkpt lat="42.88258" lon="-8.53442">
        <ele>280.3</ele>
        <time>2016-07-20T09:40:33Z</time>
      </trkpt>
      <trkpt lat="42.88249" lon="-8.53445">
        <ele>280.8</ele>
        <time>2016-07-20T09:40:41Z</time>
      </trkpt>
      <trkpt lat="42.8824" lon="-8.53448">
        <ele>280.9</ele>
        <time>2016-07-20T09:40:49Z</time>
      </trkpt>
      <trkpt lat="42.88232" lon="-8.53454">
        <ele>280.8</ele>
        <time>2016-07-20T09:40:59Z</time>
      </trkpt>
      <trkpt lat="42.88224" lon="-8.5346">
        <ele>281.3</ele>
        <time>2016-07-20T09:41:09Z</time>
      </trkpt>
      <trkpt lat="42.88215" lon="-8.53465">
        <ele>281.6</ele>
        <time>2016-07-20T09:41:18Z</time>
      </trkpt>
      <trkpt lat="42.88207" lon="-8.53469">
        <ele>281.5</ele>
        <time>2016-07-20T09:41:28Z</time>
      </trkpt>
      <trkpt lat="42.88199" lon="-8.53476">
        <ele>282.9</ele>
        <time>2016-07-20T09:41:40Z</time>
      </trkpt>
      <trkpt lat="42.8819" lon="-8.53481">
        <ele>283.4</ele>
        <time>2016-07-20T09:41:50Z</time>
      </trkpt>
      <trkpt lat="42.88181" lon="-8.53486">
        <ele>283.5</ele>
        <time>2016-07-20T09:41:59Z</time>
      </trkpt>
      <trkpt lat="42.88176" lon="-8.53498">
        <ele>283.8</ele>
        <time>2016-07-20T09:42:16Z</time>
      </trkpt>
      <trkpt lat="42.88172" lon="-8.53509">
        <ele>284.1</ele>
        <time>2016-07-20T09:42:28Z</time>
      </trkpt>
      <trkpt lat="42.8817" lon="-8.53521">
        <ele>284.8</ele>
        <time>2016-07-20T09:42:40Z</time>
      </trkpt>
      <trkpt lat="42.88171" lon="-8.53534">
        <ele>285.2</ele>
        <time>2016-07-20T09:42:48Z</time>
      </trkpt>
      <trkpt lat="42.88173" lon="-8.53547">
        <ele>285.5</ele>
        <time>2016-07-20T09:42:57Z</time>
      </trkpt>
      <trkpt lat="42.88174" lon="-8.5356">
        <ele>285.3</ele>
        <time>2016-07-20T09:43:05Z</time>
      </trkpt>
      <trkpt lat="42.88174" lon="-8.53572">
        <ele>285.1</ele>
        <time>2016-07-20T09:43:14Z</time>
      </trkpt>
      <trkpt lat="42.88172" lon="-8.53585">
        <ele>284.7</ele>
        <time>2016-07-20T09:43:24Z</time>
      </trkpt>
      <trkpt lat="42.88169" lon="-8.53597">
        <ele>284.1</ele>
        <time>2016-07-20T09:43:33Z</time>
      </trkpt>
      <trkpt lat="42.88166" lon="-8.5361">
        <ele>283.7</ele>
        <time>2016-07-20T09:43:43Z</time>
      </trkpt>
      <trkpt lat="42.88163" lon="-8.53622">
        <ele>283.7</ele>
        <time>2016-07-20T09:43:53Z</time>
      </trkpt>
      <trkpt lat="42.8816" lon="-8.53635">
        <ele>283.1</ele>
        <time>2016-07-20T09:44:03Z</time>
      </trkpt>
      <trkpt lat="42.8816" lon="-8.53648">
        <ele>282.5</ele>
        <time>2016-07-20T09:44:16Z</time>
      </trkpt>
      <trkpt lat="42.88159" lon="-8.53661">
        <ele>282</ele>
        <time>2016-07-20T09:44:25Z</time>
      </trkpt>
      <trkpt lat="42.88156" lon="-8.53673">
        <ele>281.9</ele>
        <time>2016-07-20T09:44:34Z</time>
      </trkpt>
      <trkpt lat="42.88151" lon="-8.53685">
        <ele>281.3</ele>
        <time>2016-07-20T09:44:43Z</time>
      </trkpt>
      <trkpt lat="42.88147" lon="-8.53698">
        <ele>280.9</ele>
        <time>2016-07-20T09:44:53Z</time>
      </trkpt>
      <trkpt lat="42.88147" lon="-8.5371">
        <ele>280.5</ele>
        <time>2016-07-20T09:45:02Z</time>
      </trkpt>
      <trkpt lat="42.88142" lon="-8.53722">
        <ele>280.1</ele>
        <time>2016-07-20T09:45:14Z</time>
      </trkpt>
      <trkpt lat="42.8814" lon="-8.53735">
        <ele>279.3</ele>
        <time>2016-07-20T09:45:27Z</time>
      </trkpt>
      <trkpt lat="42.88138" lon="-8.53747">
        <ele>278.8</ele>
        <time>2016-07-20T09:45:36Z</time>
      </trkpt>
      <trkpt lat="42.88136" lon="-8.5376">
        <ele>278.3</ele>
        <time>2016-07-20T09:45:46Z</time>
      </trkpt>
      <trkpt lat="42.88133" lon="-8.53773">
        <ele>278</ele>
        <time>2016-07-20T09:45:55Z</time>
      </trkpt>
      <trkpt lat="42.88128" lon="-8.53783">
        <ele>277.8</ele>
        <time>2016-07-20T09:46:04Z</time>
      </trkpt>
      <trkpt lat="42.88127" lon="-8.53796">
        <ele>277</ele>
        <time>2016-07-20T09:46:15Z</time>
      </trkpt>
      <trkpt lat="42.88134" lon="-8.53805">
        <ele>275.4</ele>
        <time>2016-07-20T09:46:55Z</time>
      </trkpt>
      <trkpt lat="42.88133" lon="-8.53818">
        <ele>275.1</ele>
        <time>2016-07-20T09:47:06Z</time>
      </trkpt>
      <trkpt lat="42.88138" lon="-8.53829">
        <ele>274.8</ele>
        <time>2016-07-20T09:47:17Z</time>
      </trkpt>
      <trkpt lat="42.88142" lon="-8.53841">
        <ele>274.6</ele>
        <time>2016-07-20T09:47:27Z</time>
      </trkpt>
      <trkpt lat="42.88145" lon="-8.53853">
        <ele>274.3</ele>
        <time>2016-07-20T09:47:36Z</time>
      </trkpt>
      <trkpt lat="42.8815" lon="-8.53865">
        <ele>273.8</ele>
        <time>2016-07-20T09:47:47Z</time>
      </trkpt>
      <trkpt lat="42.88155" lon="-8.53876">
        <ele>273.4</ele>
        <time>2016-07-20T09:47:58Z</time>
      </trkpt>
      <trkpt lat="42.88158" lon="-8.53888">
        <ele>272.5</ele>
        <time>2016-07-20T09:48:09Z</time>
      </trkpt>
      <trkpt lat="42.88164" lon="-8.53898">
        <ele>272</ele>
        <time>2016-07-20T09:48:19Z</time>
      </trkpt>
      <trkpt lat="42.88171" lon="-8.53907">
        <ele>271.5</ele>
        <time>2016-07-20T09:48:29Z</time>
      </trkpt>
      <trkpt lat="42.88174" lon="-8.53919">
        <ele>271</ele>
        <time>2016-07-20T09:48:38Z</time>
      </trkpt>
      <trkpt lat="42.8818" lon="-8.53931">
        <ele>271.1</ele>
        <time>2016-07-20T09:48:48Z</time>
      </trkpt>
      <trkpt lat="42.88185" lon="-8.53942">
        <ele>270.5</ele>
        <time>2016-07-20T09:48:58Z</time>
      </trkpt>
      <trkpt lat="42.88191" lon="-8.53952">
        <ele>270</ele>
        <time>2016-07-20T09:49:07Z</time>
      </trkpt>
      <trkpt lat="42.88198" lon="-8.53961">
        <ele>269.8</ele>
        <time>2016-07-20T09:49:14Z</time>
      </trkpt>
      <trkpt lat="42.88202" lon="-8.53973">
        <ele>269.7</ele>
        <time>2016-07-20T09:49:21Z</time>
      </trkpt>
      <trkpt lat="42.88206" lon="-8.53984">
        <ele>269.6</ele>
        <time>2016-07-20T09:49:30Z</time>
      </trkpt>
      <trkpt lat="42.88201" lon="-8.53996">
        <ele>269.6</ele>
        <time>2016-07-20T09:49:39Z</time>
      </trkpt>
      <trkpt lat="42.88197" lon="-8.54007">
        <ele>269.5</ele>
        <time>2016-07-20T09:49:49Z</time>
      </trkpt>
      <trkpt lat="42.88188" lon="-8.54001">
        <ele>269.4</ele>
        <time>2016-07-20T09:50:04Z</time>
      </trkpt>
      <trkpt lat="42.88181" lon="-8.54009">
        <ele>269.3</ele>
        <time>2016-07-20T09:51:07Z</time>
      </trkpt>
      <trkpt lat="42.88184" lon="-8.54021">
        <ele>269.8</ele>
        <time>2016-07-20T09:51:28Z</time>
      </trkpt>
      <trkpt lat="42.88185" lon="-8.54033">
        <ele>269.7</ele>
        <time>2016-07-20T09:51:46Z</time>
      </trkpt>
      <trkpt lat="42.88189" lon="-8.54045">
        <ele>270.1</ele>
        <time>2016-07-20T09:52:02Z</time>
      </trkpt>
      <trkpt lat="42.88188" lon="-8.54057">
        <ele>271.1</ele>
        <time>2016-07-20T09:52:15Z</time>
      </trkpt>
      <trkpt lat="42.88183" lon="-8.54069">
        <ele>271.4</ele>
        <time>2016-07-20T09:52:24Z</time>
      </trkpt>
      <trkpt lat="42.88179" lon="-8.54081">
        <ele>271.9</ele>
        <time>2016-07-20T09:52:33Z</time>
      </trkpt>
      <trkpt lat="42.88177" lon="-8.54093">
        <ele>272.8</ele>
        <time>2016-07-20T09:52:47Z</time>
      </trkpt>
      <trkpt lat="42.88174" lon="-8.54105">
        <ele>273.4</ele>
        <time>2016-07-20T09:53:24Z</time>
      </trkpt>
      <trkpt lat="42.88169" lon="-8.54115">
        <ele>273.8</ele>
        <time>2016-07-20T09:53:36Z</time>
      </trkpt>
      <trkpt lat="42.88164" lon="-8.54125">
        <ele>274</ele>
        <time>2016-07-20T09:53:48Z</time>
      </trkpt>
      <trkpt lat="42.88163" lon="-8.54138">
        <ele>274.5</ele>
        <time>2016-07-20T09:54:00Z</time>
      </trkpt>
      <trkpt lat="42.88163" lon="-8.54151">
        <ele>275.3</ele>
        <time>2016-07-20T09:54:11Z</time>
      </trkpt>
      <trkpt lat="42.88157" lon="-8.54161">
        <ele>275.9</ele>
        <time>2016-07-20T09:54:24Z</time>
      </trkpt>
      <trkpt lat="42.88151" lon="-8.5417">
        <ele>276.7</ele>
        <time>2016-07-20T09:54:49Z</time>
      </trkpt>
      <trkpt lat="42.88152" lon="-8.54183">
        <ele>277.6</ele>
        <time>2016-07-20T09:55:27Z</time>
      </trkpt>
      <trkpt lat="42.88155" lon="-8.54196">
        <ele>277.8</ele>
        <time>2016-07-20T09:55:50Z</time>
      </trkpt>
      <trkpt lat="42.88152" lon="-8.54208">
        <ele>278</ele>
        <time>2016-07-20T09:56:33Z</time>
      </trkpt>
      <trkpt lat="42.88144" lon="-8.54215">
        <ele>278.3</ele>
        <time>2016-07-20T09:56:45Z</time>
      </trkpt>
      <trkpt lat="42.88139" lon="-8.54226">
        <ele>279.1</ele>
        <time>2016-07-20T09:57:05Z</time>
      </trkpt>
      <trkpt lat="42.88131" lon="-8.54232">
        <ele>279.2</ele>
        <time>2016-07-20T09:57:25Z</time>
      </trkpt>
      <trkpt lat="42.88122" lon="-8.54235">
        <ele>279.4</ele>
        <time>2016-07-20T09:57:35Z</time>
      </trkpt>
      <trkpt lat="42.88113" lon="-8.54236">
        <ele>279.4</ele>
        <time>2016-07-20T09:57:45Z</time>
      </trkpt>
      <trkpt lat="42.88121" lon="-8.54244">
        <ele>278.5</ele>
        <time>2016-07-20T09:59:20Z</time>
      </trkpt>
      <trkpt lat="42.88112" lon="-8.54245">
        <ele>278.8</ele>
        <time>2016-07-20T09:59:56Z</time>
      </trkpt>
      <trkpt lat="42.88103" lon="-8.54242">
        <ele>278.8</ele>
        <time>2016-07-20T10:00:23Z</time>
      </trkpt>
      <trkpt lat="42.88106" lon="-8.54254">
        <ele>278.3</ele>
        <time>2016-07-20T10:04:06Z</time>
      </trkpt>
      <trkpt lat="42.88108" lon="-8.54266">
        <ele>278</ele>
        <time>2016-07-20T10:04:50Z</time>
      </trkpt>
      <trkpt lat="42.88113" lon="-8.54276">
        <ele>277.9</ele>
        <time>2016-07-20T10:04:59Z</time>
      </trkpt>
      <trkpt lat="42.88119" lon="-8.54286">
        <ele>277.9</ele>
        <time>2016-07-20T10:05:08Z</time>
      </trkpt>
      <trkpt lat="42.8812" lon="-8.54298">
        <ele>277.2</ele>
        <time>2016-07-20T10:05:23Z</time>
      </trkpt>
      <trkpt lat="42.8812" lon="-8.54311">
        <ele>276.3</ele>
        <time>2016-07-20T10:05:37Z</time>
      </trkpt>
      <trkpt lat="42.88122" lon="-8.54323">
        <ele>275.8</ele>
        <time>2016-07-20T10:05:49Z</time>
      </trkpt>
      <trkpt lat="42.88126" lon="-8.54335">
        <ele>275.5</ele>
        <time>2016-07-20T10:05:58Z</time>
      </trkpt>
      <trkpt lat="42.88128" lon="-8.54348">
        <ele>275.1</ele>
        <time>2016-07-20T10:06:07Z</time>
      </trkpt>
      <trkpt lat="42.88131" lon="-8.54361">
        <ele>274.9</ele>
        <time>2016-07-20T10:06:15Z</time>
      </trkpt>
      <trkpt lat="42.88135" lon="-8.54372">
        <ele>273.9</ele>
        <time>2016-07-20T10:06:28Z</time>
      </trkpt>
      <trkpt lat="42.88139" lon="-8.54384">
        <ele>273</ele>
        <time>2016-07-20T10:06:47Z</time>
      </trkpt>
      <trkpt lat="42.88136" lon="-8.54396">
        <ele>272.3</ele>
        <time>2016-07-20T10:07:23Z</time>
      </trkpt>
      <trkpt lat="42.88134" lon="-8.54408">
        <ele>271.6</ele>
        <time>2016-07-20T10:07:35Z</time>
      </trkpt>
      <trkpt lat="42.8813" lon="-8.5442">
        <ele>271.5</ele>
        <time>2016-07-20T10:07:48Z</time>
      </trkpt>
      <trkpt lat="42.88122" lon="-8.54427">
        <ele>269.9</ele>
        <time>2016-07-20T10:08:38Z</time>
      </trkpt>
      <trkpt lat="42.88116" lon="-8.54436">
        <ele>269.7</ele>
        <time>2016-07-20T10:09:29Z</time>
      </trkpt>
      <trkpt lat="42.88109" lon="-8.54445">
        <ele>268.7</ele>
        <time>2016-07-20T10:09:53Z</time>
      </trkpt>
      <trkpt lat="42.88108" lon="-8.54458">
        <ele>268.2</ele>
        <time>2016-07-20T10:10:22Z</time>
      </trkpt>
      <trkpt lat="42.88115" lon="-8.54465">
        <ele>267.3</ele>
        <time>2016-07-20T10:10:57Z</time>
      </trkpt>
      <trkpt lat="42.88124" lon="-8.54469">
        <ele>267.1</ele>
        <time>2016-07-20T10:11:40Z</time>
      </trkpt>
      <trkpt lat="42.88116" lon="-8.54476">
        <ele>266.6</ele>
        <time>2016-07-20T10:13:38Z</time>
      </trkpt>
      <trkpt lat="42.88113" lon="-8.54489">
        <ele>265</ele>
        <time>2016-07-20T10:13:56Z</time>
      </trkpt>
      <trkpt lat="42.88111" lon="-8.54501">
        <ele>263.2</ele>
        <time>2016-07-20T10:14:27Z</time>
      </trkpt>
      <trkpt lat="42.88109" lon="-8.54515">
        <ele>261.9</ele>
        <time>2016-07-20T10:14:38Z</time>
      </trkpt>
      <trkpt lat="42.88103" lon="-8.54526">
        <ele>261.2</ele>
        <time>2016-07-20T10:14:48Z</time>
      </trkpt>
      <trkpt lat="42.88101" lon="-8.54538">
        <ele>260.4</ele>
        <time>2016-07-20T10:15:02Z</time>
      </trkpt>
      <trkpt lat="42.88098" lon="-8.54551">
        <ele>259.8</ele>
        <time>2016-07-20T10:15:16Z</time>
      </trkpt>
      <trkpt lat="42.88092" lon="-8.54563">
        <ele>259</ele>
        <time>2016-07-20T10:15:28Z</time>
      </trkpt>
      <trkpt lat="42.88082" lon="-8.54566">
        <ele>259.1</ele>
        <time>2016-07-20T10:15:45Z</time>
      </trkpt>
      <trkpt lat="42.88074" lon="-8.54572">
        <ele>259</ele>
        <time>2016-07-20T10:15:54Z</time>
      </trkpt>
      <trkpt lat="42.88065" lon="-8.54575">
        <ele>258.7</ele>
        <time>2016-07-20T10:16:04Z</time>
      </trkpt>
      <trkpt lat="42.88055" lon="-8.54578">
        <ele>258.4</ele>
        <time>2016-07-20T10:16:13Z</time>
      </trkpt>
      <trkpt lat="42.88046" lon="-8.54581">
        <ele>258.3</ele>
        <time>2016-07-20T10:16:22Z</time>
      </trkpt>
      <trkpt lat="42.88036" lon="-8.5458">
        <ele>257.9</ele>
        <time>2016-07-20T10:16:30Z</time>
      </trkpt>
      <trkpt lat="42.88032" lon="-8.54569">
        <ele>257.4</ele>
        <time>2016-07-20T10:17:16Z</time>
      </trkpt>
      <trkpt lat="42.88039" lon="-8.54561">
        <ele>257.8</ele>
        <time>2016-07-20T10:18:02Z</time>
      </trkpt>
      <trkpt lat="42.8803" lon="-8.54559">
        <ele>257.3</ele>
        <time>2016-07-20T10:18:53Z</time>
      </trkpt>
      <trkpt lat="42.88034" lon="-8.5457">
        <ele>257.6</ele>
        <time>2016-07-20T10:20:42Z</time>
      </trkpt>
      <trkpt lat="42.88041" lon="-8.54578">
        <ele>257.8</ele>
        <time>2016-07-20T10:20:59Z</time>
      </trkpt>
      <trkpt lat="42.8805" lon="-8.54584">
        <ele>257.8</ele>
        <time>2016-07-20T10:21:11Z</time>
      </trkpt>
      <trkpt lat="42.88058" lon="-8.54591">
        <ele>258.1</ele>
        <time>2016-07-20T10:21:22Z</time>
      </trkpt>
      <trkpt lat="42.88066" lon="-8.54596">
        <ele>257.9</ele>
        <time>2016-07-20T10:21:42Z</time>
      </trkpt>
      <trkpt lat="42.88072" lon="-8.54607">
        <ele>257.6</ele>
        <time>2016-07-20T10:22:00Z</time>
      </trkpt>
      <trkpt lat="42.88076" lon="-8.54618">
        <ele>257.3</ele>
        <time>2016-07-20T10:22:08Z</time>
      </trkpt>
      <trkpt lat="42.88085" lon="-8.5462">
        <ele>255.2</ele>
        <time>2016-07-20T10:22:28Z</time>
      </trkpt>
      <trkpt lat="42.88086" lon="-8.54633">
        <ele>253.7</ele>
        <time>2016-07-20T10:23:33Z</time>
      </trkpt>
      <trkpt lat="42.88084" lon="-8.54645">
        <ele>252.4</ele>
        <time>2016-07-20T10:23:51Z</time>
      </trkpt>
      <trkpt lat="42.8809" lon="-8.54656">
        <ele>249.2</ele>
        <time>2016-07-20T10:24:22Z</time>
      </trkpt>
      <trkpt lat="42.88084" lon="-8.54665">
        <ele>248.1</ele>
        <time>2016-07-20T10:24:38Z</time>
      </trkpt>
      <trkpt lat="42.88078" lon="-8.54675">
        <ele>247.2</ele>
        <time>2016-07-20T10:24:49Z</time>
      </trkpt>
      <trkpt lat="42.88072" lon="-8.54685">
        <ele>245.8</ele>
        <time>2016-07-20T10:24:59Z</time>
      </trkpt>
      <trkpt lat="42.88067" lon="-8.54696">
        <ele>245.2</ele>
        <time>2016-07-20T10:25:10Z</time>
      </trkpt>
      <trkpt lat="42.88061" lon="-8.54707">
        <ele>244.5</ele>
        <time>2016-07-20T10:25:19Z</time>
      </trkpt>
      <trkpt lat="42.88056" lon="-8.54718">
        <ele>243.4</ele>
        <time>2016-07-20T10:25:28Z</time>
      </trkpt>
      <trkpt lat="42.88054" lon="-8.54731">
        <ele>242.1</ele>
        <time>2016-07-20T10:25:38Z</time>
      </trkpt>
      <trkpt lat="42.88052" lon="-8.54744">
        <ele>241.5</ele>
        <time>2016-07-20T10:25:47Z</time>
      </trkpt>
      <trkpt lat="42.88047" lon="-8.54755">
        <ele>241.1</ele>
        <time>2016-07-20T10:26:00Z</time>
      </trkpt>
      <trkpt lat="42.88043" lon="-8.54767">
        <ele>240.3</ele>
        <time>2016-07-20T10:26:13Z</time>
      </trkpt>
      <trkpt lat="42.88042" lon="-8.54779">
        <ele>239.9</ele>
        <time>2016-07-20T10:26:22Z</time>
      </trkpt>
      <trkpt lat="42.88041" lon="-8.54791">
        <ele>239.5</ele>
        <time>2016-07-20T10:26:31Z</time>
      </trkpt>
      <trkpt lat="42.88039" lon="-8.54804">
        <ele>238.9</ele>
        <time>2016-07-20T10:26:42Z</time>
      </trkpt>
      <trkpt lat="42.88037" lon="-8.54816">
        <ele>238.4</ele>
        <time>2016-07-20T10:26:53Z</time>
      </trkpt>
      <trkpt lat="42.88036" lon="-8.54829">
        <ele>237.7</ele>
        <time>2016-07-20T10:27:04Z</time>
      </trkpt>
      <trkpt lat="42.8803" lon="-8.54838">
        <ele>237.2</ele>
        <time>2016-07-20T10:27:16Z</time>
      </trkpt>
      <trkpt lat="42.88025" lon="-8.54849">
        <ele>236.5</ele>
        <time>2016-07-20T10:27:28Z</time>
      </trkpt>
      <trkpt lat="42.88021" lon="-8.54862">
        <ele>236.5</ele>
        <time>2016-07-20T10:27:39Z</time>
      </trkpt>
      <trkpt lat="42.8802" lon="-8.54875">
        <ele>236.3</ele>
        <time>2016-07-20T10:27:48Z</time>
      </trkpt>
      <trkpt lat="42.88024" lon="-8.54887">
        <ele>236.6</ele>
        <time>2016-07-20T10:27:55Z</time>
      </trkpt>
      <trkpt lat="42.8803" lon="-8.54898">
        <ele>236.4</ele>
        <time>2016-07-20T10:28:02Z</time>
      </trkpt>
      <trkpt lat="42.88034" lon="-8.5491">
        <ele>236</ele>
        <time>2016-07-20T10:28:15Z</time>
      </trkpt>
      <trkpt lat="42.88036" lon="-8.54923">
        <ele>235.4</ele>
        <time>2016-07-20T10:28:30Z</time>
      </trkpt>
      <trkpt lat="42.88043" lon="-8.54932">
        <ele>235.7</ele>
        <time>2016-07-20T10:28:43Z</time>
      </trkpt>
      <trkpt lat="42.88049" lon="-8.54942">
        <ele>236.3</ele>
        <time>2016-07-20T10:28:55Z</time>
      </trkpt>
      <trkpt lat="42.88052" lon="-8.54954">
        <ele>237.6</ele>
        <time>2016-07-20T10:29:14Z</time>
      </trkpt>
      <trkpt lat="42.88055" lon="-8.54967">
        <ele>238.1</ele>
        <time>2016-07-20T10:29:42Z</time>
      </trkpt>
      <trkpt lat="42.88054" lon="-8.5498">
        <ele>238.2</ele>
        <time>2016-07-20T10:29:59Z</time>
      </trkpt>
      <trkpt lat="42.88049" lon="-8.54992">
        <ele>238.2</ele>
        <time>2016-07-20T10:30:11Z</time>
      </trkpt>
      <trkpt lat="42.88042" lon="-8.55002">
        <ele>238.5</ele>
        <time>2016-07-20T10:30:23Z</time>
      </trkpt>
      <trkpt lat="42.88036" lon="-8.55012">
        <ele>239.1</ele>
        <time>2016-07-20T10:30:34Z</time>
      </trkpt>
      <trkpt lat="42.88027" lon="-8.55015">
        <ele>240.7</ele>
        <time>2016-07-20T10:31:05Z</time>
      </trkpt>
      <trkpt lat="42.88019" lon="-8.55008">
        <ele>241.4</ele>
        <time>2016-07-20T10:31:21Z</time>
      </trkpt>
      <trkpt lat="42.88011" lon="-8.55003">
        <ele>242.7</ele>
        <time>2016-07-20T10:31:34Z</time>
      </trkpt>
      <trkpt lat="42.88001" lon="-8.54999">
        <ele>244</ele>
        <time>2016-07-20T10:31:46Z</time>
      </trkpt>
      <trkpt lat="42.87992" lon="-8.54998">
        <ele>245.3</ele>
        <time>2016-07-20T10:31:57Z</time>
      </trkpt>
      <trkpt lat="42.87982" lon="-8.54997">
        <ele>246.9</ele>
        <time>2016-07-20T10:32:08Z</time>
      </trkpt>
      <trkpt lat="42.87973" lon="-8.54993">
        <ele>248.5</ele>
        <time>2016-07-20T10:32:22Z</time>
      </trkpt>
      <trkpt lat="42.87967" lon="-8.54983">
        <ele>249.7</ele>
        <time>2016-07-20T10:32:43Z</time>
      </trkpt>
      <trkpt lat="42.87962" lon="-8.55011">
        <ele>250</ele>
        <time>2016-07-20T10:35:36Z</time>
      </trkpt>
      <trkpt lat="42.87969" lon="-8.55026">
        <ele>251.8</ele>
        <time>2016-07-20T10:40:13Z</time>
      </trkpt>
      <trkpt lat="42.8797" lon="-8.55013">
        <ele>253.7</ele>
        <time>2016-07-20T10:40:29Z</time>
      </trkpt>
      <trkpt lat="42.87976" lon="-8.55002">
        <ele>254.2</ele>
        <time>2016-07-20T10:40:40Z</time>
      </trkpt>
      <trkpt lat="42.87972" lon="-8.5499">
        <ele>254.5</ele>
        <time>2016-07-20T10:40:50Z</time>
      </trkpt>
      <trkpt lat="42.87969" lon="-8.54977">
        <ele>254.5</ele>
        <time>2016-07-20T10:40:57Z</time>
      </trkpt>
      <trkpt lat="42.87965" lon="-8.54999">
        <ele>254</ele>
        <time>2016-07-20T10:41:17Z</time>
      </trkpt>
      <trkpt lat="42.87968" lon="-8.55011">
        <ele>254.3</ele>
        <time>2016-07-20T10:41:34Z</time>
      </trkpt>
      <trkpt lat="42.87964" lon="-8.55022">
        <ele>254</ele>
        <time>2016-07-20T10:41:55Z</time>
      </trkpt>
      <trkpt lat="42.87971" lon="-8.5503">
        <ele>254</ele>
        <time>2016-07-20T10:42:14Z</time>
      </trkpt>
      <trkpt lat="42.87965" lon="-8.55045">
        <ele>253</ele>
        <time>2016-07-20T10:42:26Z</time>
      </trkpt>
      <trkpt lat="42.87965" lon="-8.55027">
        <ele>253</ele>
        <time>2016-07-20T10:42:50Z</time>
      </trkpt>
      <trkpt lat="42.8797" lon="-8.55013">
        <ele>253</ele>
        <time>2016-07-20T10:42:58Z</time>
      </trkpt>
      <trkpt lat="42.87959" lon="-8.55028">
        <ele>253</ele>
        <time>2016-07-20T10:43:13Z</time>
      </trkpt>
      <trkpt lat="42.87954" lon="-8.55045">
        <ele>253</ele>
        <time>2016-07-20T10:43:30Z</time>
      </trkpt>
      <trkpt lat="42.87952" lon="-8.55033">
        <ele>254</ele>
        <time>2016-07-20T10:43:44Z</time>
      </trkpt>
      <trkpt lat="42.87957" lon="-8.5502">
        <ele>254.1</ele>
        <time>2016-07-20T10:43:55Z</time>
      </trkpt>
      <trkpt lat="42.87964" lon="-8.55011">
        <ele>254</ele>
        <time>2016-07-20T10:44:13Z</time>
      </trkpt>
      <trkpt lat="42.87969" lon="-8.55">
        <ele>253.9</ele>
        <time>2016-07-20T10:44:37Z</time>
      </trkpt>
      <trkpt lat="42.87966" lon="-8.54988">
        <ele>254</ele>
        <time>2016-07-20T10:45:33Z</time>
      </trkpt>
      <trkpt lat="42.87965" lon="-8.54984">
        <ele>253</ele>
        <time>2016-07-20T10:45:41Z</time>
      </trkpt>
    </trkseg>
  </trk>
</gpx>